<?xml version="1.0" encoding="UTF-8" standalone="no" ?>
<gpx xmlns="http://www.topografix.com/GPX/1/1" xmlns:xsi="http://www.w3.org/2001/XMLSchema-instance" xsi:schemaLocation="http://www.topografix.com/GPX/1/1 http://www.topografix.com/GPX/1/1/gpx.xsd" version="1.1" creator="VisuGPX - https://www.visugpx.com">
  <metadata>
    <name>Circuit 38 MIGNOVILLARD </name>
    <desc><![CDATA[Très beau circuit, permettant de découvrir le secteur du domaine skiable de la Bourre et les environs de Bonneveaux.
Attention, circuit exigeant une condition bonne physique. Les descentes peuvent être techniques lorsque le terrain est gras. 
En automne, la chasse est ouverte, alors prudence dans la zone des Lanciers et après Bonneveaux.]]></desc>
  </metadata>
  <wpt lat="46.79556" lon="6.20117">
    <ele>1080</ele>
    <name><![CDATA[Attention balisage caché]]></name>
    <desc><![CDATA[Chemin]]></desc>
    <cmt><![CDATA[Chemin]]></cmt>
  </wpt>
  <wpt lat="46.79863" lon="6.18326">
    <ele>900</ele>
    <name><![CDATA[Attention balisage peu voyant]]></name>
    <desc><![CDATA[Hauteur de 900 m]]></desc>
    <cmt><![CDATA[Hauteur de 900 m]]></cmt>
  </wpt>
  <trk>
    <name><![CDATA[Tracé]]></name>
    <trkseg>
      <trkpt lat="46.79142" lon="6.12618">
        <ele>874.46</ele>
        <time>2013-10-27T09:52:36Z</time>
      </trkpt>
      <trkpt lat="46.79141" lon="6.12619">
        <ele>874.94</ele>
        <time>2013-10-27T09:52:39Z</time>
      </trkpt>
      <trkpt lat="46.79151" lon="6.12632">
        <ele>874.94</ele>
        <time>2013-10-27T09:52:45Z</time>
      </trkpt>
      <trkpt lat="46.7915" lon="6.12648">
        <ele>874.94</ele>
        <time>2013-10-27T09:52:50Z</time>
      </trkpt>
      <trkpt lat="46.79148" lon="6.12663">
        <ele>875.42</ele>
        <time>2013-10-27T09:52:55Z</time>
      </trkpt>
      <trkpt lat="46.79115" lon="6.12697">
        <ele>875.42</ele>
        <time>2013-10-27T09:53:09Z</time>
      </trkpt>
      <trkpt lat="46.79105" lon="6.1268">
        <ele>875.42</ele>
        <time>2013-10-27T09:53:15Z</time>
      </trkpt>
      <trkpt lat="46.79098" lon="6.12649">
        <ele>875.9</ele>
        <time>2013-10-27T09:53:24Z</time>
      </trkpt>
      <trkpt lat="46.79083" lon="6.12651">
        <ele>875.9</ele>
        <time>2013-10-27T09:53:32Z</time>
      </trkpt>
      <trkpt lat="46.79039" lon="6.12658">
        <ele>878.3</ele>
        <time>2013-10-27T09:53:45Z</time>
      </trkpt>
      <trkpt lat="46.7903" lon="6.12657">
        <ele>876.38</ele>
        <time>2013-10-27T09:53:48Z</time>
      </trkpt>
      <trkpt lat="46.7899" lon="6.12657">
        <ele>876.86</ele>
        <time>2013-10-27T09:54:00Z</time>
      </trkpt>
      <trkpt lat="46.7898" lon="6.12665">
        <ele>876.38</ele>
        <time>2013-10-27T09:54:03Z</time>
      </trkpt>
      <trkpt lat="46.78977" lon="6.12668">
        <ele>876.86</ele>
        <time>2013-10-27T09:54:04Z</time>
      </trkpt>
      <trkpt lat="46.78936" lon="6.12692">
        <ele>876.86</ele>
        <time>2013-10-27T09:54:16Z</time>
      </trkpt>
      <trkpt lat="46.78891" lon="6.12691">
        <ele>875.9</ele>
        <time>2013-10-27T09:54:30Z</time>
      </trkpt>
      <trkpt lat="46.78837" lon="6.12688">
        <ele>876.86</ele>
        <time>2013-10-27T09:54:47Z</time>
      </trkpt>
      <trkpt lat="46.78793" lon="6.12683">
        <ele>876.38</ele>
        <time>2013-10-27T09:54:59Z</time>
      </trkpt>
      <trkpt lat="46.78789" lon="6.12684">
        <ele>875.9</ele>
        <time>2013-10-27T09:55:00Z</time>
      </trkpt>
      <trkpt lat="46.78744" lon="6.12706">
        <ele>876.86</ele>
        <time>2013-10-27T09:55:14Z</time>
      </trkpt>
      <trkpt lat="46.7874" lon="6.12709">
        <ele>876.38</ele>
        <time>2013-10-27T09:55:15Z</time>
      </trkpt>
      <trkpt lat="46.78736" lon="6.12712">
        <ele>876.86</ele>
        <time>2013-10-27T09:55:16Z</time>
      </trkpt>
      <trkpt lat="46.78682" lon="6.12769">
        <ele>874.46</ele>
        <time>2013-10-27T09:55:32Z</time>
      </trkpt>
      <trkpt lat="46.78636" lon="6.12815">
        <ele>875.42</ele>
        <time>2013-10-27T09:55:47Z</time>
      </trkpt>
      <trkpt lat="46.786" lon="6.1284">
        <ele>874.94</ele>
        <time>2013-10-27T09:55:59Z</time>
      </trkpt>
      <trkpt lat="46.78597" lon="6.12836">
        <ele>874.46</ele>
        <time>2013-10-27T09:56:00Z</time>
      </trkpt>
      <trkpt lat="46.78596" lon="6.12832">
        <ele>874.46</ele>
        <time>2013-10-27T09:56:01Z</time>
      </trkpt>
      <trkpt lat="46.78594" lon="6.12828">
        <ele>873.98</ele>
        <time>2013-10-27T09:56:02Z</time>
      </trkpt>
      <trkpt lat="46.78593" lon="6.12824">
        <ele>874.46</ele>
        <time>2013-10-27T09:56:03Z</time>
      </trkpt>
      <trkpt lat="46.7858" lon="6.12757">
        <ele>873.5</ele>
        <time>2013-10-27T09:56:16Z</time>
      </trkpt>
      <trkpt lat="46.78574" lon="6.12736">
        <ele>875.9</ele>
        <time>2013-10-27T09:56:21Z</time>
      </trkpt>
      <trkpt lat="46.78566" lon="6.12729">
        <ele>874.46</ele>
        <time>2013-10-27T09:56:24Z</time>
      </trkpt>
      <trkpt lat="46.78543" lon="6.1271">
        <ele>874.94</ele>
        <time>2013-10-27T09:56:34Z</time>
      </trkpt>
      <trkpt lat="46.78533" lon="6.127">
        <ele>874.94</ele>
        <time>2013-10-27T09:56:39Z</time>
      </trkpt>
      <trkpt lat="46.78515" lon="6.12668">
        <ele>874.94</ele>
        <time>2013-10-27T09:56:52Z</time>
      </trkpt>
      <trkpt lat="46.785" lon="6.12623">
        <ele>875.9</ele>
        <time>2013-10-27T09:57:08Z</time>
      </trkpt>
      <trkpt lat="46.78493" lon="6.12607">
        <ele>875.42</ele>
        <time>2013-10-27T09:57:14Z</time>
      </trkpt>
      <trkpt lat="46.7849" lon="6.12597">
        <ele>876.86</ele>
        <time>2013-10-27T09:57:18Z</time>
      </trkpt>
      <trkpt lat="46.78478" lon="6.12566">
        <ele>877.34</ele>
        <time>2013-10-27T09:57:31Z</time>
      </trkpt>
      <trkpt lat="46.78475" lon="6.1256">
        <ele>878.78</ele>
        <time>2013-10-27T09:57:34Z</time>
      </trkpt>
      <trkpt lat="46.78464" lon="6.12532">
        <ele>879.26</ele>
        <time>2013-10-27T09:57:48Z</time>
      </trkpt>
      <trkpt lat="46.78461" lon="6.12525">
        <ele>880.22</ele>
        <time>2013-10-27T09:57:53Z</time>
      </trkpt>
      <trkpt lat="46.78459" lon="6.12521">
        <ele>880.71</ele>
        <time>2013-10-27T09:57:56Z</time>
      </trkpt>
      <trkpt lat="46.78458" lon="6.12519">
        <ele>880.71</ele>
        <time>2013-10-27T09:57:57Z</time>
      </trkpt>
      <trkpt lat="46.78458" lon="6.12518">
        <ele>880.71</ele>
        <time>2013-10-27T09:57:58Z</time>
      </trkpt>
      <trkpt lat="46.78457" lon="6.12516">
        <ele>880.71</ele>
        <time>2013-10-27T09:57:59Z</time>
      </trkpt>
      <trkpt lat="46.78456" lon="6.12515">
        <ele>880.22</ele>
        <time>2013-10-27T09:58:00Z</time>
      </trkpt>
      <trkpt lat="46.78455" lon="6.12513">
        <ele>880.22</ele>
        <time>2013-10-27T09:58:01Z</time>
      </trkpt>
      <trkpt lat="46.78447" lon="6.12496">
        <ele>881.67</ele>
        <time>2013-10-27T09:58:11Z</time>
      </trkpt>
      <trkpt lat="46.78445" lon="6.12494">
        <ele>881.67</ele>
        <time>2013-10-27T09:58:12Z</time>
      </trkpt>
      <trkpt lat="46.78429" lon="6.12467">
        <ele>883.11</ele>
        <time>2013-10-27T09:58:27Z</time>
      </trkpt>
      <trkpt lat="46.78423" lon="6.12463">
        <ele>883.59</ele>
        <time>2013-10-27T09:58:41Z</time>
      </trkpt>
      <trkpt lat="46.78421" lon="6.12463">
        <ele>883.59</ele>
        <time>2013-10-27T09:59:08Z</time>
      </trkpt>
      <trkpt lat="46.78418" lon="6.12464">
        <ele>881.67</ele>
        <time>2013-10-27T09:59:09Z</time>
      </trkpt>
      <trkpt lat="46.78416" lon="6.12466">
        <ele>883.11</ele>
        <time>2013-10-27T09:59:10Z</time>
      </trkpt>
      <trkpt lat="46.78414" lon="6.12468">
        <ele>884.07</ele>
        <time>2013-10-27T09:59:11Z</time>
      </trkpt>
      <trkpt lat="46.78412" lon="6.1247">
        <ele>883.11</ele>
        <time>2013-10-27T09:59:12Z</time>
      </trkpt>
      <trkpt lat="46.78384" lon="6.125">
        <ele>884.07</ele>
        <time>2013-10-27T09:59:27Z</time>
      </trkpt>
      <trkpt lat="46.78351" lon="6.1255">
        <ele>881.67</ele>
        <time>2013-10-27T09:59:44Z</time>
      </trkpt>
      <trkpt lat="46.78343" lon="6.12571">
        <ele>881.19</ele>
        <time>2013-10-27T09:59:48Z</time>
      </trkpt>
      <trkpt lat="46.78341" lon="6.12578">
        <ele>881.19</ele>
        <time>2013-10-27T09:59:49Z</time>
      </trkpt>
      <trkpt lat="46.78303" lon="6.12691">
        <ele>879.26</ele>
        <time>2013-10-27T10:00:03Z</time>
      </trkpt>
      <trkpt lat="46.78283" lon="6.12734">
        <ele>876.86</ele>
        <time>2013-10-27T10:00:09Z</time>
      </trkpt>
      <trkpt lat="46.78265" lon="6.12768">
        <ele>876.86</ele>
        <time>2013-10-27T10:00:15Z</time>
      </trkpt>
      <trkpt lat="46.78262" lon="6.12773">
        <ele>876.86</ele>
        <time>2013-10-27T10:00:16Z</time>
      </trkpt>
      <trkpt lat="46.7826" lon="6.12777">
        <ele>877.34</ele>
        <time>2013-10-27T10:00:17Z</time>
      </trkpt>
      <trkpt lat="46.78228" lon="6.12814">
        <ele>877.82</ele>
        <time>2013-10-27T10:00:30Z</time>
      </trkpt>
      <trkpt lat="46.78203" lon="6.12871">
        <ele>878.78</ele>
        <time>2013-10-27T10:00:45Z</time>
      </trkpt>
      <trkpt lat="46.78204" lon="6.12931">
        <ele>877.82</ele>
        <time>2013-10-27T10:00:57Z</time>
      </trkpt>
      <trkpt lat="46.78188" lon="6.12993">
        <ele>877.34</ele>
        <time>2013-10-27T10:01:08Z</time>
      </trkpt>
      <trkpt lat="46.78185" lon="6.13004">
        <ele>877.82</ele>
        <time>2013-10-27T10:01:10Z</time>
      </trkpt>
      <trkpt lat="46.7818" lon="6.1303">
        <ele>879.26</ele>
        <time>2013-10-27T10:01:14Z</time>
      </trkpt>
      <trkpt lat="46.78156" lon="6.13109">
        <ele>880.22</ele>
        <time>2013-10-27T10:01:29Z</time>
      </trkpt>
      <trkpt lat="46.78148" lon="6.1314">
        <ele>877.82</ele>
        <time>2013-10-27T10:01:35Z</time>
      </trkpt>
      <trkpt lat="46.78141" lon="6.13176">
        <ele>878.78</ele>
        <time>2013-10-27T10:01:42Z</time>
      </trkpt>
      <trkpt lat="46.78134" lon="6.13239">
        <ele>880.22</ele>
        <time>2013-10-27T10:01:55Z</time>
      </trkpt>
      <trkpt lat="46.78123" lon="6.13282">
        <ele>881.67</ele>
        <time>2013-10-27T10:02:05Z</time>
      </trkpt>
      <trkpt lat="46.78117" lon="6.13306">
        <ele>883.11</ele>
        <time>2013-10-27T10:02:12Z</time>
      </trkpt>
      <trkpt lat="46.78094" lon="6.13334">
        <ele>885.03</ele>
        <time>2013-10-27T10:02:27Z</time>
      </trkpt>
      <trkpt lat="46.78088" lon="6.13345">
        <ele>885.51</ele>
        <time>2013-10-27T10:02:32Z</time>
      </trkpt>
      <trkpt lat="46.78087" lon="6.13347">
        <ele>886.47</ele>
        <time>2013-10-27T10:02:33Z</time>
      </trkpt>
      <trkpt lat="46.78085" lon="6.13351">
        <ele>882.63</ele>
        <time>2013-10-27T10:02:35Z</time>
      </trkpt>
      <trkpt lat="46.78084" lon="6.13352">
        <ele>886.95</ele>
        <time>2013-10-27T10:02:36Z</time>
      </trkpt>
      <trkpt lat="46.78083" lon="6.13354">
        <ele>883.59</ele>
        <time>2013-10-27T10:02:37Z</time>
      </trkpt>
      <trkpt lat="46.7808" lon="6.13357">
        <ele>886.95</ele>
        <time>2013-10-27T10:02:39Z</time>
      </trkpt>
      <trkpt lat="46.78061" lon="6.13384">
        <ele>887.43</ele>
        <time>2013-10-27T10:02:53Z</time>
      </trkpt>
      <trkpt lat="46.78044" lon="6.13415">
        <ele>886.95</ele>
        <time>2013-10-27T10:03:06Z</time>
      </trkpt>
      <trkpt lat="46.78043" lon="6.13417">
        <ele>887.91</ele>
        <time>2013-10-27T10:03:07Z</time>
      </trkpt>
      <trkpt lat="46.78042" lon="6.1342">
        <ele>887.91</ele>
        <time>2013-10-27T10:03:08Z</time>
      </trkpt>
      <trkpt lat="46.78037" lon="6.13429">
        <ele>889.36</ele>
        <time>2013-10-27T10:03:12Z</time>
      </trkpt>
      <trkpt lat="46.78036" lon="6.13432">
        <ele>888.4</ele>
        <time>2013-10-27T10:03:13Z</time>
      </trkpt>
      <trkpt lat="46.78035" lon="6.13435">
        <ele>888.88</ele>
        <time>2013-10-27T10:03:14Z</time>
      </trkpt>
      <trkpt lat="46.78034" lon="6.13438">
        <ele>889.84</ele>
        <time>2013-10-27T10:03:15Z</time>
      </trkpt>
      <trkpt lat="46.78033" lon="6.13441">
        <ele>888.88</ele>
        <time>2013-10-27T10:03:16Z</time>
      </trkpt>
      <trkpt lat="46.78031" lon="6.13443">
        <ele>889.84</ele>
        <time>2013-10-27T10:03:17Z</time>
      </trkpt>
      <trkpt lat="46.7803" lon="6.13445">
        <ele>889.36</ele>
        <time>2013-10-27T10:03:18Z</time>
      </trkpt>
      <trkpt lat="46.78029" lon="6.13448">
        <ele>889.84</ele>
        <time>2013-10-27T10:03:19Z</time>
      </trkpt>
      <trkpt lat="46.78012" lon="6.13478">
        <ele>891.76</ele>
        <time>2013-10-27T10:03:31Z</time>
      </trkpt>
      <trkpt lat="46.78009" lon="6.13481">
        <ele>891.28</ele>
        <time>2013-10-27T10:03:33Z</time>
      </trkpt>
      <trkpt lat="46.78006" lon="6.13485">
        <ele>892.24</ele>
        <time>2013-10-27T10:03:35Z</time>
      </trkpt>
      <trkpt lat="46.78004" lon="6.13488">
        <ele>891.76</ele>
        <time>2013-10-27T10:03:36Z</time>
      </trkpt>
      <trkpt lat="46.77972" lon="6.13513">
        <ele>893.2</ele>
        <time>2013-10-27T10:03:51Z</time>
      </trkpt>
      <trkpt lat="46.77947" lon="6.13537">
        <ele>894.16</ele>
        <time>2013-10-27T10:04:04Z</time>
      </trkpt>
      <trkpt lat="46.77921" lon="6.1357">
        <ele>895.61</ele>
        <time>2013-10-27T10:04:19Z</time>
      </trkpt>
      <trkpt lat="46.77899" lon="6.13593">
        <ele>897.53</ele>
        <time>2013-10-27T10:04:31Z</time>
      </trkpt>
      <trkpt lat="46.77889" lon="6.13608">
        <ele>898.97</ele>
        <time>2013-10-27T10:04:38Z</time>
      </trkpt>
      <trkpt lat="46.77876" lon="6.13652">
        <ele>898.97</ele>
        <time>2013-10-27T10:04:54Z</time>
      </trkpt>
      <trkpt lat="46.7787" lon="6.13714">
        <ele>898.49</ele>
        <time>2013-10-27T10:05:10Z</time>
      </trkpt>
      <trkpt lat="46.7786" lon="6.13774">
        <ele>899.45</ele>
        <time>2013-10-27T10:05:26Z</time>
      </trkpt>
      <trkpt lat="46.77847" lon="6.13815">
        <ele>899.45</ele>
        <time>2013-10-27T10:05:39Z</time>
      </trkpt>
      <trkpt lat="46.77828" lon="6.1384">
        <ele>901.37</ele>
        <time>2013-10-27T10:05:51Z</time>
      </trkpt>
      <trkpt lat="46.77808" lon="6.13872">
        <ele>902.33</ele>
        <time>2013-10-27T10:06:06Z</time>
      </trkpt>
      <trkpt lat="46.77791" lon="6.13901">
        <ele>903.3</ele>
        <time>2013-10-27T10:06:20Z</time>
      </trkpt>
      <trkpt lat="46.77782" lon="6.13915">
        <ele>903.3</ele>
        <time>2013-10-27T10:06:27Z</time>
      </trkpt>
      <trkpt lat="46.77781" lon="6.13916">
        <ele>903.78</ele>
        <time>2013-10-27T10:06:28Z</time>
      </trkpt>
      <trkpt lat="46.7778" lon="6.13918">
        <ele>903.3</ele>
        <time>2013-10-27T10:06:29Z</time>
      </trkpt>
      <trkpt lat="46.77777" lon="6.13922">
        <ele>902.82</ele>
        <time>2013-10-27T10:06:32Z</time>
      </trkpt>
      <trkpt lat="46.77775" lon="6.13922">
        <ele>902.82</ele>
        <time>2013-10-27T10:06:33Z</time>
      </trkpt>
      <trkpt lat="46.77774" lon="6.13923">
        <ele>902.82</ele>
        <time>2013-10-27T10:06:34Z</time>
      </trkpt>
      <trkpt lat="46.77772" lon="6.13924">
        <ele>902.82</ele>
        <time>2013-10-27T10:06:35Z</time>
      </trkpt>
      <trkpt lat="46.7777" lon="6.13925">
        <ele>902.82</ele>
        <time>2013-10-27T10:06:36Z</time>
      </trkpt>
      <trkpt lat="46.77768" lon="6.13926">
        <ele>902.82</ele>
        <time>2013-10-27T10:06:37Z</time>
      </trkpt>
      <trkpt lat="46.77745" lon="6.13929">
        <ele>902.82</ele>
        <time>2013-10-27T10:06:49Z</time>
      </trkpt>
      <trkpt lat="46.7772" lon="6.1394">
        <ele>903.3</ele>
        <time>2013-10-27T10:07:02Z</time>
      </trkpt>
      <trkpt lat="46.77715" lon="6.13944">
        <ele>903.78</ele>
        <time>2013-10-27T10:07:05Z</time>
      </trkpt>
      <trkpt lat="46.7771" lon="6.13934">
        <ele>903.3</ele>
        <time>2013-10-27T10:07:13Z</time>
      </trkpt>
      <trkpt lat="46.77709" lon="6.13935">
        <ele>903.78</ele>
        <time>2013-10-27T10:07:19Z</time>
      </trkpt>
      <trkpt lat="46.77706" lon="6.13937">
        <ele>903.3</ele>
        <time>2013-10-27T10:07:36Z</time>
      </trkpt>
      <trkpt lat="46.77693" lon="6.13948">
        <ele>903.78</ele>
        <time>2013-10-27T10:07:49Z</time>
      </trkpt>
      <trkpt lat="46.77688" lon="6.13952">
        <ele>903.3</ele>
        <time>2013-10-27T10:07:53Z</time>
      </trkpt>
      <trkpt lat="46.77674" lon="6.13975">
        <ele>904.26</ele>
        <time>2013-10-27T10:08:06Z</time>
      </trkpt>
      <trkpt lat="46.77673" lon="6.13976">
        <ele>904.26</ele>
        <time>2013-10-27T10:08:07Z</time>
      </trkpt>
      <trkpt lat="46.77651" lon="6.14">
        <ele>903.3</ele>
        <time>2013-10-27T10:08:22Z</time>
      </trkpt>
      <trkpt lat="46.77639" lon="6.14019">
        <ele>903.3</ele>
        <time>2013-10-27T10:08:32Z</time>
      </trkpt>
      <trkpt lat="46.77633" lon="6.14039">
        <ele>903.78</ele>
        <time>2013-10-27T10:08:41Z</time>
      </trkpt>
      <trkpt lat="46.77632" lon="6.14044">
        <ele>903.78</ele>
        <time>2013-10-27T10:08:43Z</time>
      </trkpt>
      <trkpt lat="46.77626" lon="6.14059">
        <ele>904.74</ele>
        <time>2013-10-27T10:08:53Z</time>
      </trkpt>
      <trkpt lat="46.77616" lon="6.14035">
        <ele>901.85</ele>
        <time>2013-10-27T10:09:05Z</time>
      </trkpt>
      <trkpt lat="46.77616" lon="6.13985">
        <ele>898.97</ele>
        <time>2013-10-27T10:09:18Z</time>
      </trkpt>
      <trkpt lat="46.77616" lon="6.13939">
        <ele>896.09</ele>
        <time>2013-10-27T10:09:27Z</time>
      </trkpt>
      <trkpt lat="46.77617" lon="6.13895">
        <ele>894.64</ele>
        <time>2013-10-27T10:09:37Z</time>
      </trkpt>
      <trkpt lat="46.77614" lon="6.13835">
        <ele>892.24</ele>
        <time>2013-10-27T10:09:50Z</time>
      </trkpt>
      <trkpt lat="46.77617" lon="6.13794">
        <ele>891.28</ele>
        <time>2013-10-27T10:10:01Z</time>
      </trkpt>
      <trkpt lat="46.77623" lon="6.13759">
        <ele>890.8</ele>
        <time>2013-10-27T10:10:15Z</time>
      </trkpt>
      <trkpt lat="46.77612" lon="6.13749">
        <ele>890.8</ele>
        <time>2013-10-27T10:10:23Z</time>
      </trkpt>
      <trkpt lat="46.77591" lon="6.13733">
        <ele>891.76</ele>
        <time>2013-10-27T10:10:37Z</time>
      </trkpt>
      <trkpt lat="46.77581" lon="6.13727">
        <ele>891.76</ele>
        <time>2013-10-27T10:10:46Z</time>
      </trkpt>
      <trkpt lat="46.77571" lon="6.13706">
        <ele>889.84</ele>
        <time>2013-10-27T10:10:58Z</time>
      </trkpt>
      <trkpt lat="46.77569" lon="6.1369">
        <ele>891.28</ele>
        <time>2013-10-27T10:11:06Z</time>
      </trkpt>
      <trkpt lat="46.77565" lon="6.13676">
        <ele>889.84</ele>
        <time>2013-10-27T10:11:13Z</time>
      </trkpt>
      <trkpt lat="46.77559" lon="6.13659">
        <ele>890.8</ele>
        <time>2013-10-27T10:11:26Z</time>
      </trkpt>
      <trkpt lat="46.77557" lon="6.13657">
        <ele>891.28</ele>
        <time>2013-10-27T10:11:40Z</time>
      </trkpt>
      <trkpt lat="46.77557" lon="6.13657">
        <ele>890.8</ele>
        <time>2013-10-27T10:11:44Z</time>
      </trkpt>
      <trkpt lat="46.77544" lon="6.13663">
        <ele>889.84</ele>
        <time>2013-10-27T10:11:56Z</time>
      </trkpt>
      <trkpt lat="46.77521" lon="6.13693">
        <ele>890.8</ele>
        <time>2013-10-27T10:12:10Z</time>
      </trkpt>
      <trkpt lat="46.77488" lon="6.13736">
        <ele>891.76</ele>
        <time>2013-10-27T10:12:27Z</time>
      </trkpt>
      <trkpt lat="46.77461" lon="6.13773">
        <ele>893.68</ele>
        <time>2013-10-27T10:12:41Z</time>
      </trkpt>
      <trkpt lat="46.77422" lon="6.13814">
        <ele>894.64</ele>
        <time>2013-10-27T10:12:57Z</time>
      </trkpt>
      <trkpt lat="46.77384" lon="6.13843">
        <ele>895.61</ele>
        <time>2013-10-27T10:13:13Z</time>
      </trkpt>
      <trkpt lat="46.77348" lon="6.13861">
        <ele>898.01</ele>
        <time>2013-10-27T10:13:28Z</time>
      </trkpt>
      <trkpt lat="46.77314" lon="6.13872">
        <ele>899.93</ele>
        <time>2013-10-27T10:13:41Z</time>
      </trkpt>
      <trkpt lat="46.7727" lon="6.13884">
        <ele>900.41</ele>
        <time>2013-10-27T10:13:58Z</time>
      </trkpt>
      <trkpt lat="46.77226" lon="6.13895">
        <ele>901.37</ele>
        <time>2013-10-27T10:14:14Z</time>
      </trkpt>
      <trkpt lat="46.77191" lon="6.13904">
        <ele>902.82</ele>
        <time>2013-10-27T10:14:29Z</time>
      </trkpt>
      <trkpt lat="46.7716" lon="6.13917">
        <ele>902.33</ele>
        <time>2013-10-27T10:14:43Z</time>
      </trkpt>
      <trkpt lat="46.77154" lon="6.13934">
        <ele>904.74</ele>
        <time>2013-10-27T10:14:49Z</time>
      </trkpt>
      <trkpt lat="46.77154" lon="6.1394">
        <ele>904.74</ele>
        <time>2013-10-27T10:14:52Z</time>
      </trkpt>
      <trkpt lat="46.77153" lon="6.13947">
        <ele>905.22</ele>
        <time>2013-10-27T10:15:10Z</time>
      </trkpt>
      <trkpt lat="46.77152" lon="6.13955">
        <ele>905.7</ele>
        <time>2013-10-27T10:16:22Z</time>
      </trkpt>
      <trkpt lat="46.77138" lon="6.13978">
        <ele>907.62</ele>
        <time>2013-10-27T10:16:37Z</time>
      </trkpt>
      <trkpt lat="46.77138" lon="6.1398">
        <ele>907.62</ele>
        <time>2013-10-27T10:16:38Z</time>
      </trkpt>
      <trkpt lat="46.77134" lon="6.13985">
        <ele>907.62</ele>
        <time>2013-10-27T10:16:42Z</time>
      </trkpt>
      <trkpt lat="46.77126" lon="6.13992">
        <ele>909.06</ele>
        <time>2013-10-27T10:16:48Z</time>
      </trkpt>
      <trkpt lat="46.77113" lon="6.14004">
        <ele>910.99</ele>
        <time>2013-10-27T10:16:58Z</time>
      </trkpt>
      <trkpt lat="46.77103" lon="6.14021">
        <ele>912.91</ele>
        <time>2013-10-27T10:17:10Z</time>
      </trkpt>
      <trkpt lat="46.77094" lon="6.14032">
        <ele>913.87</ele>
        <time>2013-10-27T10:17:20Z</time>
      </trkpt>
      <trkpt lat="46.77087" lon="6.14037">
        <ele>913.87</ele>
        <time>2013-10-27T10:17:25Z</time>
      </trkpt>
      <trkpt lat="46.77079" lon="6.14046">
        <ele>914.83</ele>
        <time>2013-10-27T10:17:32Z</time>
      </trkpt>
      <trkpt lat="46.77073" lon="6.14052">
        <ele>916.27</ele>
        <time>2013-10-27T10:17:37Z</time>
      </trkpt>
      <trkpt lat="46.77064" lon="6.14061">
        <ele>919.16</ele>
        <time>2013-10-27T10:17:45Z</time>
      </trkpt>
      <trkpt lat="46.77054" lon="6.14083">
        <ele>919.64</ele>
        <time>2013-10-27T10:17:59Z</time>
      </trkpt>
      <trkpt lat="46.77053" lon="6.14085">
        <ele>920.12</ele>
        <time>2013-10-27T10:18:00Z</time>
      </trkpt>
      <trkpt lat="46.77052" lon="6.14091">
        <ele>920.12</ele>
        <time>2013-10-27T10:18:04Z</time>
      </trkpt>
      <trkpt lat="46.77052" lon="6.1412">
        <ele>922.52</ele>
        <time>2013-10-27T10:18:21Z</time>
      </trkpt>
      <trkpt lat="46.77052" lon="6.14145">
        <ele>924.93</ele>
        <time>2013-10-27T10:18:36Z</time>
      </trkpt>
      <trkpt lat="46.77054" lon="6.14161">
        <ele>926.85</ele>
        <time>2013-10-27T10:18:45Z</time>
      </trkpt>
      <trkpt lat="46.77057" lon="6.1419">
        <ele>928.77</ele>
        <time>2013-10-27T10:19:00Z</time>
      </trkpt>
      <trkpt lat="46.77059" lon="6.142">
        <ele>930.69</ele>
        <time>2013-10-27T10:19:05Z</time>
      </trkpt>
      <trkpt lat="46.77063" lon="6.1422">
        <ele>932.14</ele>
        <time>2013-10-27T10:19:16Z</time>
      </trkpt>
      <trkpt lat="46.77062" lon="6.14223">
        <ele>932.14</ele>
        <time>2013-10-27T10:19:18Z</time>
      </trkpt>
      <trkpt lat="46.77062" lon="6.14234">
        <ele>933.1</ele>
        <time>2013-10-27T10:19:27Z</time>
      </trkpt>
      <trkpt lat="46.77062" lon="6.14234">
        <ele>933.58</ele>
        <time>2013-10-27T10:19:28Z</time>
      </trkpt>
      <trkpt lat="46.77066" lon="6.14234">
        <ele>934.06</ele>
        <time>2013-10-27T10:19:32Z</time>
      </trkpt>
      <trkpt lat="46.77063" lon="6.14234">
        <ele>933.1</ele>
        <time>2013-10-27T10:19:40Z</time>
      </trkpt>
      <trkpt lat="46.77062" lon="6.1424">
        <ele>934.54</ele>
        <time>2013-10-27T10:19:44Z</time>
      </trkpt>
      <trkpt lat="46.77055" lon="6.14247">
        <ele>935.02</ele>
        <time>2013-10-27T10:19:51Z</time>
      </trkpt>
      <trkpt lat="46.77049" lon="6.14248">
        <ele>935.02</ele>
        <time>2013-10-27T10:19:56Z</time>
      </trkpt>
      <trkpt lat="46.77035" lon="6.14257">
        <ele>936.94</ele>
        <time>2013-10-27T10:20:09Z</time>
      </trkpt>
      <trkpt lat="46.7703" lon="6.14262">
        <ele>936.94</ele>
        <time>2013-10-27T10:20:14Z</time>
      </trkpt>
      <trkpt lat="46.7702" lon="6.14272">
        <ele>939.35</ele>
        <time>2013-10-27T10:20:23Z</time>
      </trkpt>
      <trkpt lat="46.77019" lon="6.14273">
        <ele>938.86</ele>
        <time>2013-10-27T10:20:24Z</time>
      </trkpt>
      <trkpt lat="46.77015" lon="6.14299">
        <ele>940.31</ele>
        <time>2013-10-27T10:20:41Z</time>
      </trkpt>
      <trkpt lat="46.77013" lon="6.14302">
        <ele>940.79</ele>
        <time>2013-10-27T10:20:44Z</time>
      </trkpt>
      <trkpt lat="46.77005" lon="6.14322">
        <ele>934.54</ele>
        <time>2013-10-27T10:20:59Z</time>
      </trkpt>
      <trkpt lat="46.77004" lon="6.14323">
        <ele>941.27</ele>
        <time>2013-10-27T10:21:00Z</time>
      </trkpt>
      <trkpt lat="46.76997" lon="6.14338">
        <ele>942.23</ele>
        <time>2013-10-27T10:21:14Z</time>
      </trkpt>
      <trkpt lat="46.76996" lon="6.14339">
        <ele>942.23</ele>
        <time>2013-10-27T10:21:15Z</time>
      </trkpt>
      <trkpt lat="46.76993" lon="6.14344">
        <ele>941.75</ele>
        <time>2013-10-27T10:21:19Z</time>
      </trkpt>
      <trkpt lat="46.76983" lon="6.14358">
        <ele>942.23</ele>
        <time>2013-10-27T10:21:31Z</time>
      </trkpt>
      <trkpt lat="46.76978" lon="6.14366">
        <ele>943.67</ele>
        <time>2013-10-27T10:21:38Z</time>
      </trkpt>
      <trkpt lat="46.7697" lon="6.14375">
        <ele>946.07</ele>
        <time>2013-10-27T10:21:45Z</time>
      </trkpt>
      <trkpt lat="46.76951" lon="6.14378">
        <ele>947.52</ele>
        <time>2013-10-27T10:21:59Z</time>
      </trkpt>
      <trkpt lat="46.76932" lon="6.14382">
        <ele>949.92</ele>
        <time>2013-10-27T10:22:13Z</time>
      </trkpt>
      <trkpt lat="46.76925" lon="6.14387">
        <ele>952.32</ele>
        <time>2013-10-27T10:22:19Z</time>
      </trkpt>
      <trkpt lat="46.76924" lon="6.14388">
        <ele>952.8</ele>
        <time>2013-10-27T10:22:20Z</time>
      </trkpt>
      <trkpt lat="46.76922" lon="6.14393">
        <ele>952.32</ele>
        <time>2013-10-27T10:22:23Z</time>
      </trkpt>
      <trkpt lat="46.76917" lon="6.14399">
        <ele>951.84</ele>
        <time>2013-10-27T10:22:28Z</time>
      </trkpt>
      <trkpt lat="46.76907" lon="6.14416">
        <ele>953.77</ele>
        <time>2013-10-27T10:22:40Z</time>
      </trkpt>
      <trkpt lat="46.76905" lon="6.14421">
        <ele>952.8</ele>
        <time>2013-10-27T10:22:43Z</time>
      </trkpt>
      <trkpt lat="46.76896" lon="6.14434">
        <ele>954.73</ele>
        <time>2013-10-27T10:22:52Z</time>
      </trkpt>
      <trkpt lat="46.76893" lon="6.14439">
        <ele>955.69</ele>
        <time>2013-10-27T10:22:56Z</time>
      </trkpt>
      <trkpt lat="46.76882" lon="6.14456">
        <ele>957.13</ele>
        <time>2013-10-27T10:23:09Z</time>
      </trkpt>
      <trkpt lat="46.76877" lon="6.14468">
        <ele>957.13</ele>
        <time>2013-10-27T10:23:16Z</time>
      </trkpt>
      <trkpt lat="46.76866" lon="6.14501">
        <ele>959.53</ele>
        <time>2013-10-27T10:23:34Z</time>
      </trkpt>
      <trkpt lat="46.76865" lon="6.14507">
        <ele>959.05</ele>
        <time>2013-10-27T10:23:37Z</time>
      </trkpt>
      <trkpt lat="46.76862" lon="6.14519">
        <ele>960.49</ele>
        <time>2013-10-27T10:23:43Z</time>
      </trkpt>
      <trkpt lat="46.76857" lon="6.1453">
        <ele>959.53</ele>
        <time>2013-10-27T10:23:49Z</time>
      </trkpt>
      <trkpt lat="46.76823" lon="6.14546">
        <ele>959.53</ele>
        <time>2013-10-27T10:24:02Z</time>
      </trkpt>
      <trkpt lat="46.76807" lon="6.14563">
        <ele>960.01</ele>
        <time>2013-10-27T10:24:12Z</time>
      </trkpt>
      <trkpt lat="46.76791" lon="6.14597">
        <ele>961.46</ele>
        <time>2013-10-27T10:24:26Z</time>
      </trkpt>
      <trkpt lat="46.76774" lon="6.1462">
        <ele>963.38</ele>
        <time>2013-10-27T10:24:38Z</time>
      </trkpt>
      <trkpt lat="46.76765" lon="6.14635">
        <ele>962.9</ele>
        <time>2013-10-27T10:24:47Z</time>
      </trkpt>
      <trkpt lat="46.7676" lon="6.14641">
        <ele>964.82</ele>
        <time>2013-10-27T10:24:51Z</time>
      </trkpt>
      <trkpt lat="46.76754" lon="6.14646">
        <ele>964.82</ele>
        <time>2013-10-27T10:24:56Z</time>
      </trkpt>
      <trkpt lat="46.76744" lon="6.14669">
        <ele>966.26</ele>
        <time>2013-10-27T10:25:10Z</time>
      </trkpt>
      <trkpt lat="46.76732" lon="6.14698">
        <ele>967.7</ele>
        <time>2013-10-27T10:25:25Z</time>
      </trkpt>
      <trkpt lat="46.76724" lon="6.14726">
        <ele>969.15</ele>
        <time>2013-10-27T10:25:39Z</time>
      </trkpt>
      <trkpt lat="46.76717" lon="6.14756">
        <ele>971.07</ele>
        <time>2013-10-27T10:25:53Z</time>
      </trkpt>
      <trkpt lat="46.76712" lon="6.14765">
        <ele>972.03</ele>
        <time>2013-10-27T10:25:58Z</time>
      </trkpt>
      <trkpt lat="46.76706" lon="6.14771">
        <ele>972.51</ele>
        <time>2013-10-27T10:26:03Z</time>
      </trkpt>
      <trkpt lat="46.76698" lon="6.14785">
        <ele>972.51</ele>
        <time>2013-10-27T10:26:14Z</time>
      </trkpt>
      <trkpt lat="46.76696" lon="6.14786">
        <ele>972.99</ele>
        <time>2013-10-27T10:26:15Z</time>
      </trkpt>
      <trkpt lat="46.76692" lon="6.14792">
        <ele>973.47</ele>
        <time>2013-10-27T10:26:19Z</time>
      </trkpt>
      <trkpt lat="46.76688" lon="6.14799">
        <ele>974.43</ele>
        <time>2013-10-27T10:26:23Z</time>
      </trkpt>
      <trkpt lat="46.76677" lon="6.14834">
        <ele>975.88</ele>
        <time>2013-10-27T10:26:41Z</time>
      </trkpt>
      <trkpt lat="46.76675" lon="6.14839">
        <ele>976.36</ele>
        <time>2013-10-27T10:26:44Z</time>
      </trkpt>
      <trkpt lat="46.76674" lon="6.14844">
        <ele>975.39</ele>
        <time>2013-10-27T10:26:48Z</time>
      </trkpt>
      <trkpt lat="46.7667" lon="6.14859">
        <ele>977.8</ele>
        <time>2013-10-27T10:26:57Z</time>
      </trkpt>
      <trkpt lat="46.76667" lon="6.14869">
        <ele>978.28</ele>
        <time>2013-10-27T10:27:04Z</time>
      </trkpt>
      <trkpt lat="46.7665" lon="6.14893">
        <ele>980.2</ele>
        <time>2013-10-27T10:27:21Z</time>
      </trkpt>
      <trkpt lat="46.76636" lon="6.14919">
        <ele>981.16</ele>
        <time>2013-10-27T10:27:38Z</time>
      </trkpt>
      <trkpt lat="46.76632" lon="6.14932">
        <ele>983.09</ele>
        <time>2013-10-27T10:27:45Z</time>
      </trkpt>
      <trkpt lat="46.76631" lon="6.14939">
        <ele>982.12</ele>
        <time>2013-10-27T10:27:49Z</time>
      </trkpt>
      <trkpt lat="46.7663" lon="6.14943">
        <ele>983.57</ele>
        <time>2013-10-27T10:27:51Z</time>
      </trkpt>
      <trkpt lat="46.76623" lon="6.14972">
        <ele>983.57</ele>
        <time>2013-10-27T10:28:07Z</time>
      </trkpt>
      <trkpt lat="46.76623" lon="6.14975">
        <ele>985.01</ele>
        <time>2013-10-27T10:28:09Z</time>
      </trkpt>
      <trkpt lat="46.76613" lon="6.15001">
        <ele>986.45</ele>
        <time>2013-10-27T10:28:24Z</time>
      </trkpt>
      <trkpt lat="46.76611" lon="6.15003">
        <ele>986.93</ele>
        <time>2013-10-27T10:28:26Z</time>
      </trkpt>
      <trkpt lat="46.76606" lon="6.15013">
        <ele>987.89</ele>
        <time>2013-10-27T10:28:33Z</time>
      </trkpt>
      <trkpt lat="46.766" lon="6.15021">
        <ele>987.41</ele>
        <time>2013-10-27T10:28:38Z</time>
      </trkpt>
      <trkpt lat="46.76581" lon="6.15028">
        <ele>988.85</ele>
        <time>2013-10-27T10:28:52Z</time>
      </trkpt>
      <trkpt lat="46.76568" lon="6.15031">
        <ele>989.81</ele>
        <time>2013-10-27T10:29:03Z</time>
      </trkpt>
      <trkpt lat="46.76559" lon="6.15039">
        <ele>989.81</ele>
        <time>2013-10-27T10:29:11Z</time>
      </trkpt>
      <trkpt lat="46.76549" lon="6.15045">
        <ele>990.78</ele>
        <time>2013-10-27T10:29:21Z</time>
      </trkpt>
      <trkpt lat="46.76538" lon="6.15049">
        <ele>991.74</ele>
        <time>2013-10-27T10:29:32Z</time>
      </trkpt>
      <trkpt lat="46.76525" lon="6.15049">
        <ele>991.26</ele>
        <time>2013-10-27T10:29:42Z</time>
      </trkpt>
      <trkpt lat="46.7651" lon="6.15056">
        <ele>992.7</ele>
        <time>2013-10-27T10:29:56Z</time>
      </trkpt>
      <trkpt lat="46.76498" lon="6.15059">
        <ele>993.66</ele>
        <time>2013-10-27T10:30:05Z</time>
      </trkpt>
      <trkpt lat="46.7648" lon="6.15059">
        <ele>993.18</ele>
        <time>2013-10-27T10:30:20Z</time>
      </trkpt>
      <trkpt lat="46.76466" lon="6.15054">
        <ele>994.14</ele>
        <time>2013-10-27T10:30:32Z</time>
      </trkpt>
      <trkpt lat="46.76455" lon="6.15051">
        <ele>995.1</ele>
        <time>2013-10-27T10:30:43Z</time>
      </trkpt>
      <trkpt lat="46.76451" lon="6.15048">
        <ele>995.1</ele>
        <time>2013-10-27T10:30:46Z</time>
      </trkpt>
      <trkpt lat="46.76445" lon="6.15048">
        <ele>994.62</ele>
        <time>2013-10-27T10:30:50Z</time>
      </trkpt>
      <trkpt lat="46.76441" lon="6.15048">
        <ele>994.62</ele>
        <time>2013-10-27T10:30:53Z</time>
      </trkpt>
      <trkpt lat="46.76433" lon="6.15046">
        <ele>995.58</ele>
        <time>2013-10-27T10:30:58Z</time>
      </trkpt>
      <trkpt lat="46.76427" lon="6.15046">
        <ele>996.06</ele>
        <time>2013-10-27T10:31:02Z</time>
      </trkpt>
      <trkpt lat="46.76416" lon="6.15047">
        <ele>995.1</ele>
        <time>2013-10-27T10:31:09Z</time>
      </trkpt>
      <trkpt lat="46.76393" lon="6.15054">
        <ele>997.02</ele>
        <time>2013-10-27T10:31:24Z</time>
      </trkpt>
      <trkpt lat="46.76365" lon="6.15067">
        <ele>996.54</ele>
        <time>2013-10-27T10:31:37Z</time>
      </trkpt>
      <trkpt lat="46.76337" lon="6.15084">
        <ele>997.02</ele>
        <time>2013-10-27T10:31:50Z</time>
      </trkpt>
      <trkpt lat="46.76318" lon="6.15088">
        <ele>997.99</ele>
        <time>2013-10-27T10:31:59Z</time>
      </trkpt>
      <trkpt lat="46.76291" lon="6.15086">
        <ele>997.99</ele>
        <time>2013-10-27T10:32:10Z</time>
      </trkpt>
      <trkpt lat="46.7628" lon="6.15096">
        <ele>998.47</ele>
        <time>2013-10-27T10:32:17Z</time>
      </trkpt>
      <trkpt lat="46.76273" lon="6.15118">
        <ele>996.54</ele>
        <time>2013-10-27T10:32:22Z</time>
      </trkpt>
      <trkpt lat="46.7627" lon="6.15145">
        <ele>997.51</ele>
        <time>2013-10-27T10:32:35Z</time>
      </trkpt>
      <trkpt lat="46.7627" lon="6.15171">
        <ele>997.99</ele>
        <time>2013-10-27T10:32:46Z</time>
      </trkpt>
      <trkpt lat="46.76269" lon="6.15182">
        <ele>998.95</ele>
        <time>2013-10-27T10:32:51Z</time>
      </trkpt>
      <trkpt lat="46.76266" lon="6.15218">
        <ele>998.95</ele>
        <time>2013-10-27T10:33:07Z</time>
      </trkpt>
      <trkpt lat="46.76266" lon="6.15245">
        <ele>1001.35</ele>
        <time>2013-10-27T10:33:19Z</time>
      </trkpt>
      <trkpt lat="46.76264" lon="6.15272">
        <ele>1003.27</ele>
        <time>2013-10-27T10:33:33Z</time>
      </trkpt>
      <trkpt lat="46.76264" lon="6.15284">
        <ele>1002.79</ele>
        <time>2013-10-27T10:33:40Z</time>
      </trkpt>
      <trkpt lat="46.76262" lon="6.15295">
        <ele>1003.27</ele>
        <time>2013-10-27T10:33:46Z</time>
      </trkpt>
      <trkpt lat="46.7626" lon="6.15305">
        <ele>1004.72</ele>
        <time>2013-10-27T10:33:52Z</time>
      </trkpt>
      <trkpt lat="46.76257" lon="6.15323">
        <ele>1008.08</ele>
        <time>2013-10-27T10:34:04Z</time>
      </trkpt>
      <trkpt lat="46.76259" lon="6.15326">
        <ele>1007.12</ele>
        <time>2013-10-27T10:34:06Z</time>
      </trkpt>
      <trkpt lat="46.76259" lon="6.15333">
        <ele>1007.12</ele>
        <time>2013-10-27T10:34:10Z</time>
      </trkpt>
      <trkpt lat="46.76263" lon="6.1536">
        <ele>1006.64</ele>
        <time>2013-10-27T10:34:25Z</time>
      </trkpt>
      <trkpt lat="46.76264" lon="6.15363">
        <ele>1007.6</ele>
        <time>2013-10-27T10:34:27Z</time>
      </trkpt>
      <trkpt lat="46.76269" lon="6.1539">
        <ele>1007.12</ele>
        <time>2013-10-27T10:34:41Z</time>
      </trkpt>
      <trkpt lat="46.76273" lon="6.15414">
        <ele>1010</ele>
        <time>2013-10-27T10:34:54Z</time>
      </trkpt>
      <trkpt lat="46.76277" lon="6.15426">
        <ele>1009.52</ele>
        <time>2013-10-27T10:35:01Z</time>
      </trkpt>
      <trkpt lat="46.76279" lon="6.15437">
        <ele>1010</ele>
        <time>2013-10-27T10:35:07Z</time>
      </trkpt>
      <trkpt lat="46.76282" lon="6.15444">
        <ele>1010.48</ele>
        <time>2013-10-27T10:35:11Z</time>
      </trkpt>
      <trkpt lat="46.76283" lon="6.15459">
        <ele>1010</ele>
        <time>2013-10-27T10:35:25Z</time>
      </trkpt>
      <trkpt lat="46.76283" lon="6.15459">
        <ele>1009.52</ele>
        <time>2013-10-27T10:35:56Z</time>
      </trkpt>
      <trkpt lat="46.76284" lon="6.15459">
        <ele>1010</ele>
        <time>2013-10-27T10:36:11Z</time>
      </trkpt>
      <trkpt lat="46.76285" lon="6.15463">
        <ele>1009.52</ele>
        <time>2013-10-27T10:37:07Z</time>
      </trkpt>
      <trkpt lat="46.76285" lon="6.15463">
        <ele>1011.44</ele>
        <time>2013-10-27T10:37:29Z</time>
      </trkpt>
      <trkpt lat="46.76287" lon="6.15466">
        <ele>1010</ele>
        <time>2013-10-27T10:37:49Z</time>
      </trkpt>
      <trkpt lat="46.76287" lon="6.15485">
        <ele>1010.96</ele>
        <time>2013-10-27T10:37:59Z</time>
      </trkpt>
      <trkpt lat="46.76288" lon="6.15491">
        <ele>1012.41</ele>
        <time>2013-10-27T10:38:02Z</time>
      </trkpt>
      <trkpt lat="46.76289" lon="6.15496">
        <ele>1012.89</ele>
        <time>2013-10-27T10:38:05Z</time>
      </trkpt>
      <trkpt lat="46.76291" lon="6.15507">
        <ele>1013.85</ele>
        <time>2013-10-27T10:38:10Z</time>
      </trkpt>
      <trkpt lat="46.76292" lon="6.1551">
        <ele>1013.85</ele>
        <time>2013-10-27T10:38:12Z</time>
      </trkpt>
      <trkpt lat="46.76287" lon="6.15531">
        <ele>1012.89</ele>
        <time>2013-10-27T10:38:24Z</time>
      </trkpt>
      <trkpt lat="46.76278" lon="6.15543">
        <ele>1013.85</ele>
        <time>2013-10-27T10:38:32Z</time>
      </trkpt>
      <trkpt lat="46.76272" lon="6.15559">
        <ele>1015.77</ele>
        <time>2013-10-27T10:38:38Z</time>
      </trkpt>
      <trkpt lat="46.76268" lon="6.15572">
        <ele>1015.77</ele>
        <time>2013-10-27T10:38:44Z</time>
      </trkpt>
      <trkpt lat="46.76265" lon="6.15587">
        <ele>1015.77</ele>
        <time>2013-10-27T10:38:50Z</time>
      </trkpt>
      <trkpt lat="46.76264" lon="6.15593">
        <ele>1015.77</ele>
        <time>2013-10-27T10:38:53Z</time>
      </trkpt>
      <trkpt lat="46.76265" lon="6.15618">
        <ele>1017.69</ele>
        <time>2013-10-27T10:39:07Z</time>
      </trkpt>
      <trkpt lat="46.76268" lon="6.15626">
        <ele>1018.65</ele>
        <time>2013-10-27T10:39:13Z</time>
      </trkpt>
      <trkpt lat="46.76273" lon="6.15636">
        <ele>1019.62</ele>
        <time>2013-10-27T10:39:20Z</time>
      </trkpt>
      <trkpt lat="46.76283" lon="6.15653">
        <ele>1021.54</ele>
        <time>2013-10-27T10:39:33Z</time>
      </trkpt>
      <trkpt lat="46.76291" lon="6.15671">
        <ele>1022.5</ele>
        <time>2013-10-27T10:39:45Z</time>
      </trkpt>
      <trkpt lat="46.76296" lon="6.15679">
        <ele>1023.94</ele>
        <time>2013-10-27T10:39:50Z</time>
      </trkpt>
      <trkpt lat="46.76297" lon="6.15695">
        <ele>1026.34</ele>
        <time>2013-10-27T10:40:02Z</time>
      </trkpt>
      <trkpt lat="46.763" lon="6.15713">
        <ele>1027.31</ele>
        <time>2013-10-27T10:40:14Z</time>
      </trkpt>
      <trkpt lat="46.76302" lon="6.1573">
        <ele>1028.75</ele>
        <time>2013-10-27T10:40:25Z</time>
      </trkpt>
      <trkpt lat="46.76301" lon="6.15745">
        <ele>1031.15</ele>
        <time>2013-10-27T10:40:34Z</time>
      </trkpt>
      <trkpt lat="46.76301" lon="6.15751">
        <ele>1031.63</ele>
        <time>2013-10-27T10:40:38Z</time>
      </trkpt>
      <trkpt lat="46.76311" lon="6.1578">
        <ele>1034.04</ele>
        <time>2013-10-27T10:40:53Z</time>
      </trkpt>
      <trkpt lat="46.76321" lon="6.15808">
        <ele>1034.52</ele>
        <time>2013-10-27T10:41:09Z</time>
      </trkpt>
      <trkpt lat="46.76321" lon="6.1581">
        <ele>1035</ele>
        <time>2013-10-27T10:41:10Z</time>
      </trkpt>
      <trkpt lat="46.76322" lon="6.1583">
        <ele>1035.48</ele>
        <time>2013-10-27T10:41:22Z</time>
      </trkpt>
      <trkpt lat="46.7632" lon="6.15846">
        <ele>1037.4</ele>
        <time>2013-10-27T10:41:32Z</time>
      </trkpt>
      <trkpt lat="46.76317" lon="6.15862">
        <ele>1038.36</ele>
        <time>2013-10-27T10:41:43Z</time>
      </trkpt>
      <trkpt lat="46.76317" lon="6.15873">
        <ele>1038.36</ele>
        <time>2013-10-27T10:41:50Z</time>
      </trkpt>
      <trkpt lat="46.76317" lon="6.15877">
        <ele>1038.84</ele>
        <time>2013-10-27T10:41:52Z</time>
      </trkpt>
      <trkpt lat="46.76318" lon="6.15884">
        <ele>1039.32</ele>
        <time>2013-10-27T10:41:58Z</time>
      </trkpt>
      <trkpt lat="46.76313" lon="6.1588">
        <ele>1037.88</ele>
        <time>2013-10-27T10:42:04Z</time>
      </trkpt>
      <trkpt lat="46.76314" lon="6.15867">
        <ele>1039.32</ele>
        <time>2013-10-27T10:42:16Z</time>
      </trkpt>
      <trkpt lat="46.76315" lon="6.15888">
        <ele>1037.88</ele>
        <time>2013-10-27T10:42:26Z</time>
      </trkpt>
      <trkpt lat="46.76314" lon="6.15898">
        <ele>1039.32</ele>
        <time>2013-10-27T10:42:31Z</time>
      </trkpt>
      <trkpt lat="46.76309" lon="6.15933">
        <ele>1040.76</ele>
        <time>2013-10-27T10:42:49Z</time>
      </trkpt>
      <trkpt lat="46.76308" lon="6.15934">
        <ele>1039.8</ele>
        <time>2013-10-27T10:42:50Z</time>
      </trkpt>
      <trkpt lat="46.76304" lon="6.15947">
        <ele>1041.25</ele>
        <time>2013-10-27T10:42:58Z</time>
      </trkpt>
      <trkpt lat="46.763" lon="6.1596">
        <ele>1041.73</ele>
        <time>2013-10-27T10:43:04Z</time>
      </trkpt>
      <trkpt lat="46.76296" lon="6.15974">
        <ele>1041.73</ele>
        <time>2013-10-27T10:43:11Z</time>
      </trkpt>
      <trkpt lat="46.76291" lon="6.16007">
        <ele>1044.13</ele>
        <time>2013-10-27T10:43:26Z</time>
      </trkpt>
      <trkpt lat="46.76291" lon="6.16008">
        <ele>1044.13</ele>
        <time>2013-10-27T10:43:27Z</time>
      </trkpt>
      <trkpt lat="46.76286" lon="6.16024">
        <ele>1046.05</ele>
        <time>2013-10-27T10:43:36Z</time>
      </trkpt>
      <trkpt lat="46.76283" lon="6.16036">
        <ele>1047.49</ele>
        <time>2013-10-27T10:43:41Z</time>
      </trkpt>
      <trkpt lat="46.76282" lon="6.16041">
        <ele>1047.49</ele>
        <time>2013-10-27T10:43:44Z</time>
      </trkpt>
      <trkpt lat="46.76278" lon="6.16064">
        <ele>1048.45</ele>
        <time>2013-10-27T10:43:55Z</time>
      </trkpt>
      <trkpt lat="46.76274" lon="6.1609">
        <ele>1048.45</ele>
        <time>2013-10-27T10:44:08Z</time>
      </trkpt>
      <trkpt lat="46.76273" lon="6.16096">
        <ele>1049.42</ele>
        <time>2013-10-27T10:44:11Z</time>
      </trkpt>
      <trkpt lat="46.76274" lon="6.16104">
        <ele>1049.42</ele>
        <time>2013-10-27T10:44:22Z</time>
      </trkpt>
      <trkpt lat="46.76275" lon="6.16106">
        <ele>1049.42</ele>
        <time>2013-10-27T10:44:38Z</time>
      </trkpt>
      <trkpt lat="46.76278" lon="6.16106">
        <ele>1051.34</ele>
        <time>2013-10-27T10:45:11Z</time>
      </trkpt>
      <trkpt lat="46.76301" lon="6.16115">
        <ele>1052.78</ele>
        <time>2013-10-27T10:45:20Z</time>
      </trkpt>
      <trkpt lat="46.76304" lon="6.16116">
        <ele>1052.3</ele>
        <time>2013-10-27T10:45:21Z</time>
      </trkpt>
      <trkpt lat="46.76309" lon="6.16117">
        <ele>1053.74</ele>
        <time>2013-10-27T10:45:23Z</time>
      </trkpt>
      <trkpt lat="46.76327" lon="6.1611">
        <ele>1056.63</ele>
        <time>2013-10-27T10:45:31Z</time>
      </trkpt>
      <trkpt lat="46.76356" lon="6.16104">
        <ele>1057.59</ele>
        <time>2013-10-27T10:45:44Z</time>
      </trkpt>
      <trkpt lat="46.76366" lon="6.16108">
        <ele>1056.63</ele>
        <time>2013-10-27T10:45:49Z</time>
      </trkpt>
      <trkpt lat="46.76368" lon="6.16128">
        <ele>1059.03</ele>
        <time>2013-10-27T10:45:58Z</time>
      </trkpt>
      <trkpt lat="46.7637" lon="6.16154">
        <ele>1059.99</ele>
        <time>2013-10-27T10:46:10Z</time>
      </trkpt>
      <trkpt lat="46.76369" lon="6.16185">
        <ele>1060.47</ele>
        <time>2013-10-27T10:46:24Z</time>
      </trkpt>
      <trkpt lat="46.76369" lon="6.16188">
        <ele>1060.47</ele>
        <time>2013-10-27T10:46:25Z</time>
      </trkpt>
      <trkpt lat="46.76371" lon="6.16219">
        <ele>1061.43</ele>
        <time>2013-10-27T10:46:39Z</time>
      </trkpt>
      <trkpt lat="46.76371" lon="6.16225">
        <ele>1061.43</ele>
        <time>2013-10-27T10:46:42Z</time>
      </trkpt>
      <trkpt lat="46.7637" lon="6.16247">
        <ele>1062.87</ele>
        <time>2013-10-27T10:46:52Z</time>
      </trkpt>
      <trkpt lat="46.76366" lon="6.16255">
        <ele>1063.36</ele>
        <time>2013-10-27T10:46:56Z</time>
      </trkpt>
      <trkpt lat="46.76365" lon="6.1626">
        <ele>1064.32</ele>
        <time>2013-10-27T10:46:58Z</time>
      </trkpt>
      <trkpt lat="46.76358" lon="6.16272">
        <ele>1063.84</ele>
        <time>2013-10-27T10:47:04Z</time>
      </trkpt>
      <trkpt lat="46.76341" lon="6.16294">
        <ele>1063.36</ele>
        <time>2013-10-27T10:47:14Z</time>
      </trkpt>
      <trkpt lat="46.7633" lon="6.16307">
        <ele>1063.84</ele>
        <time>2013-10-27T10:47:21Z</time>
      </trkpt>
      <trkpt lat="46.76323" lon="6.16315">
        <ele>1064.8</ele>
        <time>2013-10-27T10:47:26Z</time>
      </trkpt>
      <trkpt lat="46.76314" lon="6.16342">
        <ele>1065.76</ele>
        <time>2013-10-27T10:47:36Z</time>
      </trkpt>
      <trkpt lat="46.76318" lon="6.16352">
        <ele>1065.28</ele>
        <time>2013-10-27T10:47:41Z</time>
      </trkpt>
      <trkpt lat="46.76329" lon="6.16366">
        <ele>1066.24</ele>
        <time>2013-10-27T10:47:51Z</time>
      </trkpt>
      <trkpt lat="46.76341" lon="6.16384">
        <ele>1067.68</ele>
        <time>2013-10-27T10:48:01Z</time>
      </trkpt>
      <trkpt lat="46.76356" lon="6.16408">
        <ele>1069.12</ele>
        <time>2013-10-27T10:48:11Z</time>
      </trkpt>
      <trkpt lat="46.76358" lon="6.16436">
        <ele>1070.57</ele>
        <time>2013-10-27T10:48:23Z</time>
      </trkpt>
      <trkpt lat="46.76361" lon="6.16461">
        <ele>1072.49</ele>
        <time>2013-10-27T10:48:34Z</time>
      </trkpt>
      <trkpt lat="46.76366" lon="6.16488">
        <ele>1072.97</ele>
        <time>2013-10-27T10:48:45Z</time>
      </trkpt>
      <trkpt lat="46.76368" lon="6.16502">
        <ele>1072.49</ele>
        <time>2013-10-27T10:48:52Z</time>
      </trkpt>
      <trkpt lat="46.76371" lon="6.16517">
        <ele>1073.93</ele>
        <time>2013-10-27T10:49:01Z</time>
      </trkpt>
      <trkpt lat="46.76371" lon="6.16529">
        <ele>1072.97</ele>
        <time>2013-10-27T10:49:06Z</time>
      </trkpt>
      <trkpt lat="46.76371" lon="6.16536">
        <ele>1074.89</ele>
        <time>2013-10-27T10:49:09Z</time>
      </trkpt>
      <trkpt lat="46.76369" lon="6.16554">
        <ele>1075.37</ele>
        <time>2013-10-27T10:49:17Z</time>
      </trkpt>
      <trkpt lat="46.76366" lon="6.16575">
        <ele>1077.29</ele>
        <time>2013-10-27T10:49:28Z</time>
      </trkpt>
      <trkpt lat="46.76362" lon="6.16589">
        <ele>1077.78</ele>
        <time>2013-10-27T10:49:40Z</time>
      </trkpt>
      <trkpt lat="46.76357" lon="6.16601">
        <ele>1078.26</ele>
        <time>2013-10-27T10:49:50Z</time>
      </trkpt>
      <trkpt lat="46.76351" lon="6.16615">
        <ele>1080.18</ele>
        <time>2013-10-27T10:50:01Z</time>
      </trkpt>
      <trkpt lat="46.76347" lon="6.16628">
        <ele>1078.26</ele>
        <time>2013-10-27T10:50:11Z</time>
      </trkpt>
      <trkpt lat="46.76346" lon="6.16635">
        <ele>1079.7</ele>
        <time>2013-10-27T10:50:14Z</time>
      </trkpt>
      <trkpt lat="46.76344" lon="6.16645">
        <ele>1079.7</ele>
        <time>2013-10-27T10:50:19Z</time>
      </trkpt>
      <trkpt lat="46.76344" lon="6.16654">
        <ele>1081.14</ele>
        <time>2013-10-27T10:50:24Z</time>
      </trkpt>
      <trkpt lat="46.76347" lon="6.16669">
        <ele>1080.18</ele>
        <time>2013-10-27T10:50:33Z</time>
      </trkpt>
      <trkpt lat="46.76344" lon="6.16692">
        <ele>1081.62</ele>
        <time>2013-10-27T10:50:47Z</time>
      </trkpt>
      <trkpt lat="46.76342" lon="6.16714">
        <ele>1082.58</ele>
        <time>2013-10-27T10:50:58Z</time>
      </trkpt>
      <trkpt lat="46.76343" lon="6.1673">
        <ele>1081.62</ele>
        <time>2013-10-27T10:51:05Z</time>
      </trkpt>
      <trkpt lat="46.76344" lon="6.16745">
        <ele>1082.58</ele>
        <time>2013-10-27T10:51:11Z</time>
      </trkpt>
      <trkpt lat="46.76338" lon="6.16761">
        <ele>1082.58</ele>
        <time>2013-10-27T10:51:19Z</time>
      </trkpt>
      <trkpt lat="46.7633" lon="6.16782">
        <ele>1083.54</ele>
        <time>2013-10-27T10:51:31Z</time>
      </trkpt>
      <trkpt lat="46.76327" lon="6.16789">
        <ele>1084.5</ele>
        <time>2013-10-27T10:51:37Z</time>
      </trkpt>
      <trkpt lat="46.76318" lon="6.168">
        <ele>1084.5</ele>
        <time>2013-10-27T10:51:47Z</time>
      </trkpt>
      <trkpt lat="46.76314" lon="6.16809">
        <ele>1083.54</ele>
        <time>2013-10-27T10:51:53Z</time>
      </trkpt>
      <trkpt lat="46.76312" lon="6.16818">
        <ele>1083.54</ele>
        <time>2013-10-27T10:51:57Z</time>
      </trkpt>
      <trkpt lat="46.76304" lon="6.16843">
        <ele>1083.54</ele>
        <time>2013-10-27T10:52:08Z</time>
      </trkpt>
      <trkpt lat="46.76303" lon="6.16852">
        <ele>1084.99</ele>
        <time>2013-10-27T10:52:12Z</time>
      </trkpt>
      <trkpt lat="46.76302" lon="6.16862">
        <ele>1084.99</ele>
        <time>2013-10-27T10:52:16Z</time>
      </trkpt>
      <trkpt lat="46.76304" lon="6.16874">
        <ele>1084.99</ele>
        <time>2013-10-27T10:52:20Z</time>
      </trkpt>
      <trkpt lat="46.76307" lon="6.16916">
        <ele>1083.54</ele>
        <time>2013-10-27T10:52:31Z</time>
      </trkpt>
      <trkpt lat="46.76315" lon="6.16952">
        <ele>1083.06</ele>
        <time>2013-10-27T10:52:43Z</time>
      </trkpt>
      <trkpt lat="46.76319" lon="6.16959">
        <ele>1084.02</ele>
        <time>2013-10-27T10:52:46Z</time>
      </trkpt>
      <trkpt lat="46.7632" lon="6.16974">
        <ele>1083.54</ele>
        <time>2013-10-27T10:52:51Z</time>
      </trkpt>
      <trkpt lat="46.76322" lon="6.16988">
        <ele>1084.5</ele>
        <time>2013-10-27T10:52:56Z</time>
      </trkpt>
      <trkpt lat="46.76324" lon="6.16997">
        <ele>1084.02</ele>
        <time>2013-10-27T10:53:01Z</time>
      </trkpt>
      <trkpt lat="46.76336" lon="6.17007">
        <ele>1084.02</ele>
        <time>2013-10-27T10:53:14Z</time>
      </trkpt>
      <trkpt lat="46.76341" lon="6.17013">
        <ele>1083.06</ele>
        <time>2013-10-27T10:53:16Z</time>
      </trkpt>
      <trkpt lat="46.76344" lon="6.17018">
        <ele>1082.58</ele>
        <time>2013-10-27T10:53:17Z</time>
      </trkpt>
      <trkpt lat="46.76348" lon="6.17024">
        <ele>1081.62</ele>
        <time>2013-10-27T10:53:18Z</time>
      </trkpt>
      <trkpt lat="46.76352" lon="6.17031">
        <ele>1081.14</ele>
        <time>2013-10-27T10:53:19Z</time>
      </trkpt>
      <trkpt lat="46.76355" lon="6.17038">
        <ele>1080.18</ele>
        <time>2013-10-27T10:53:20Z</time>
      </trkpt>
      <trkpt lat="46.76357" lon="6.17044">
        <ele>1081.62</ele>
        <time>2013-10-27T10:53:21Z</time>
      </trkpt>
      <trkpt lat="46.76366" lon="6.17057">
        <ele>1080.66</ele>
        <time>2013-10-27T10:53:29Z</time>
      </trkpt>
      <trkpt lat="46.76366" lon="6.17058">
        <ele>1080.18</ele>
        <time>2013-10-27T10:53:46Z</time>
      </trkpt>
      <trkpt lat="46.76366" lon="6.17058">
        <ele>1083.54</ele>
        <time>2013-10-27T10:53:55Z</time>
      </trkpt>
      <trkpt lat="46.76368" lon="6.17058">
        <ele>1082.1</ele>
        <time>2013-10-27T10:54:00Z</time>
      </trkpt>
      <trkpt lat="46.76369" lon="6.17059">
        <ele>1081.62</ele>
        <time>2013-10-27T10:54:01Z</time>
      </trkpt>
      <trkpt lat="46.76373" lon="6.17057">
        <ele>1081.14</ele>
        <time>2013-10-27T10:54:05Z</time>
      </trkpt>
      <trkpt lat="46.76373" lon="6.17057">
        <ele>1081.62</ele>
        <time>2013-10-27T10:54:06Z</time>
      </trkpt>
      <trkpt lat="46.76383" lon="6.1705">
        <ele>1080.18</ele>
        <time>2013-10-27T10:54:16Z</time>
      </trkpt>
      <trkpt lat="46.76384" lon="6.17047">
        <ele>1080.66</ele>
        <time>2013-10-27T10:54:18Z</time>
      </trkpt>
      <trkpt lat="46.76386" lon="6.17048">
        <ele>1081.14</ele>
        <time>2013-10-27T10:54:19Z</time>
      </trkpt>
      <trkpt lat="46.76388" lon="6.17051">
        <ele>1078.74</ele>
        <time>2013-10-27T10:54:20Z</time>
      </trkpt>
      <trkpt lat="46.76389" lon="6.17055">
        <ele>1080.18</ele>
        <time>2013-10-27T10:54:21Z</time>
      </trkpt>
      <trkpt lat="46.7639" lon="6.17059">
        <ele>1080.18</ele>
        <time>2013-10-27T10:54:22Z</time>
      </trkpt>
      <trkpt lat="46.76409" lon="6.17094">
        <ele>1080.66</ele>
        <time>2013-10-27T10:54:33Z</time>
      </trkpt>
      <trkpt lat="46.76411" lon="6.17099">
        <ele>1078.74</ele>
        <time>2013-10-27T10:54:35Z</time>
      </trkpt>
      <trkpt lat="46.76412" lon="6.17102">
        <ele>1070.08</ele>
        <time>2013-10-27T10:54:36Z</time>
      </trkpt>
      <trkpt lat="46.76413" lon="6.17106">
        <ele>1079.7</ele>
        <time>2013-10-27T10:54:37Z</time>
      </trkpt>
      <trkpt lat="46.76414" lon="6.17112">
        <ele>1082.1</ele>
        <time>2013-10-27T10:54:39Z</time>
      </trkpt>
      <trkpt lat="46.76416" lon="6.17149">
        <ele>1081.62</ele>
        <time>2013-10-27T10:54:52Z</time>
      </trkpt>
      <trkpt lat="46.76416" lon="6.17156">
        <ele>1083.06</ele>
        <time>2013-10-27T10:54:54Z</time>
      </trkpt>
      <trkpt lat="46.76416" lon="6.17159">
        <ele>1082.1</ele>
        <time>2013-10-27T10:54:55Z</time>
      </trkpt>
      <trkpt lat="46.76412" lon="6.17168">
        <ele>1082.1</ele>
        <time>2013-10-27T10:54:58Z</time>
      </trkpt>
      <trkpt lat="46.7641" lon="6.17171">
        <ele>1082.1</ele>
        <time>2013-10-27T10:54:59Z</time>
      </trkpt>
      <trkpt lat="46.76408" lon="6.17174">
        <ele>1082.58</ele>
        <time>2013-10-27T10:55:00Z</time>
      </trkpt>
      <trkpt lat="46.76406" lon="6.17177">
        <ele>1082.58</ele>
        <time>2013-10-27T10:55:01Z</time>
      </trkpt>
      <trkpt lat="46.76403" lon="6.1718">
        <ele>1082.1</ele>
        <time>2013-10-27T10:55:02Z</time>
      </trkpt>
      <trkpt lat="46.76386" lon="6.1721">
        <ele>1082.1</ele>
        <time>2013-10-27T10:55:13Z</time>
      </trkpt>
      <trkpt lat="46.76371" lon="6.1726">
        <ele>1081.14</ele>
        <time>2013-10-27T10:55:27Z</time>
      </trkpt>
      <trkpt lat="46.76369" lon="6.1727">
        <ele>1079.7</ele>
        <time>2013-10-27T10:55:29Z</time>
      </trkpt>
      <trkpt lat="46.7637" lon="6.17276">
        <ele>1079.22</ele>
        <time>2013-10-27T10:55:30Z</time>
      </trkpt>
      <trkpt lat="46.76371" lon="6.17283">
        <ele>1078.74</ele>
        <time>2013-10-27T10:55:31Z</time>
      </trkpt>
      <trkpt lat="46.76375" lon="6.17305">
        <ele>1076.33</ele>
        <time>2013-10-27T10:55:35Z</time>
      </trkpt>
      <trkpt lat="46.76378" lon="6.17321">
        <ele>1073.93</ele>
        <time>2013-10-27T10:55:40Z</time>
      </trkpt>
      <trkpt lat="46.76378" lon="6.17322">
        <ele>1072.97</ele>
        <time>2013-10-27T10:55:41Z</time>
      </trkpt>
      <trkpt lat="46.76377" lon="6.17324">
        <ele>1072.97</ele>
        <time>2013-10-27T10:55:42Z</time>
      </trkpt>
      <trkpt lat="46.76377" lon="6.17326">
        <ele>1073.93</ele>
        <time>2013-10-27T10:55:56Z</time>
      </trkpt>
      <trkpt lat="46.76373" lon="6.17343">
        <ele>1072.49</ele>
        <time>2013-10-27T10:56:04Z</time>
      </trkpt>
      <trkpt lat="46.76371" lon="6.17347">
        <ele>1072.01</ele>
        <time>2013-10-27T10:56:06Z</time>
      </trkpt>
      <trkpt lat="46.76368" lon="6.17356">
        <ele>1070.08</ele>
        <time>2013-10-27T10:56:10Z</time>
      </trkpt>
      <trkpt lat="46.76367" lon="6.17365">
        <ele>1069.6</ele>
        <time>2013-10-27T10:56:12Z</time>
      </trkpt>
      <trkpt lat="46.76359" lon="6.17379">
        <ele>1068.16</ele>
        <time>2013-10-27T10:56:16Z</time>
      </trkpt>
      <trkpt lat="46.7635" lon="6.17397">
        <ele>1066.24</ele>
        <time>2013-10-27T10:56:21Z</time>
      </trkpt>
      <trkpt lat="46.76343" lon="6.17408">
        <ele>1064.8</ele>
        <time>2013-10-27T10:56:24Z</time>
      </trkpt>
      <trkpt lat="46.76341" lon="6.17423">
        <ele>1063.84</ele>
        <time>2013-10-27T10:56:28Z</time>
      </trkpt>
      <trkpt lat="46.7634" lon="6.17434">
        <ele>1063.36</ele>
        <time>2013-10-27T10:56:39Z</time>
      </trkpt>
      <trkpt lat="46.76336" lon="6.17433">
        <ele>1063.36</ele>
        <time>2013-10-27T10:56:49Z</time>
      </trkpt>
      <trkpt lat="46.76336" lon="6.17433">
        <ele>1063.36</ele>
        <time>2013-10-27T10:56:50Z</time>
      </trkpt>
      <trkpt lat="46.76335" lon="6.1745">
        <ele>1063.84</ele>
        <time>2013-10-27T10:56:57Z</time>
      </trkpt>
      <trkpt lat="46.76333" lon="6.17456">
        <ele>1062.87</ele>
        <time>2013-10-27T10:56:59Z</time>
      </trkpt>
      <trkpt lat="46.76305" lon="6.17475">
        <ele>1059.51</ele>
        <time>2013-10-27T10:57:07Z</time>
      </trkpt>
      <trkpt lat="46.76301" lon="6.17476">
        <ele>1058.55</ele>
        <time>2013-10-27T10:57:08Z</time>
      </trkpt>
      <trkpt lat="46.76297" lon="6.17478">
        <ele>1058.55</ele>
        <time>2013-10-27T10:57:09Z</time>
      </trkpt>
      <trkpt lat="46.76294" lon="6.1748">
        <ele>1058.07</ele>
        <time>2013-10-27T10:57:10Z</time>
      </trkpt>
      <trkpt lat="46.7629" lon="6.17482">
        <ele>1058.07</ele>
        <time>2013-10-27T10:57:11Z</time>
      </trkpt>
      <trkpt lat="46.76286" lon="6.17485">
        <ele>1058.07</ele>
        <time>2013-10-27T10:57:12Z</time>
      </trkpt>
      <trkpt lat="46.76282" lon="6.17488">
        <ele>1058.07</ele>
        <time>2013-10-27T10:57:13Z</time>
      </trkpt>
      <trkpt lat="46.76279" lon="6.17491">
        <ele>1058.07</ele>
        <time>2013-10-27T10:57:14Z</time>
      </trkpt>
      <trkpt lat="46.76253" lon="6.17511">
        <ele>1048.94</ele>
        <time>2013-10-27T10:57:20Z</time>
      </trkpt>
      <trkpt lat="46.76243" lon="6.17518">
        <ele>1047.01</ele>
        <time>2013-10-27T10:57:22Z</time>
      </trkpt>
      <trkpt lat="46.76239" lon="6.17521">
        <ele>1047.01</ele>
        <time>2013-10-27T10:57:23Z</time>
      </trkpt>
      <trkpt lat="46.76223" lon="6.17529">
        <ele>1046.05</ele>
        <time>2013-10-27T10:57:27Z</time>
      </trkpt>
      <trkpt lat="46.76186" lon="6.17555">
        <ele>1044.61</ele>
        <time>2013-10-27T10:57:40Z</time>
      </trkpt>
      <trkpt lat="46.76181" lon="6.17558">
        <ele>1043.65</ele>
        <time>2013-10-27T10:57:42Z</time>
      </trkpt>
      <trkpt lat="46.76163" lon="6.17571">
        <ele>1044.61</ele>
        <time>2013-10-27T10:57:54Z</time>
      </trkpt>
      <trkpt lat="46.7615" lon="6.17578">
        <ele>1042.21</ele>
        <time>2013-10-27T10:57:59Z</time>
      </trkpt>
      <trkpt lat="46.76139" lon="6.17588">
        <ele>1037.88</ele>
        <time>2013-10-27T10:58:02Z</time>
      </trkpt>
      <trkpt lat="46.76135" lon="6.17592">
        <ele>1037.88</ele>
        <time>2013-10-27T10:58:03Z</time>
      </trkpt>
      <trkpt lat="46.76124" lon="6.17607">
        <ele>1036.44</ele>
        <time>2013-10-27T10:58:06Z</time>
      </trkpt>
      <trkpt lat="46.76113" lon="6.17618">
        <ele>1035.48</ele>
        <time>2013-10-27T10:58:08Z</time>
      </trkpt>
      <trkpt lat="46.76107" lon="6.17623">
        <ele>1034.52</ele>
        <time>2013-10-27T10:58:09Z</time>
      </trkpt>
      <trkpt lat="46.76076" lon="6.17653">
        <ele>1029.71</ele>
        <time>2013-10-27T10:58:14Z</time>
      </trkpt>
      <trkpt lat="46.76069" lon="6.17659">
        <ele>1028.27</ele>
        <time>2013-10-27T10:58:15Z</time>
      </trkpt>
      <trkpt lat="46.76046" lon="6.17679">
        <ele>1027.79</ele>
        <time>2013-10-27T10:58:19Z</time>
      </trkpt>
      <trkpt lat="46.76009" lon="6.17701">
        <ele>1028.27</ele>
        <time>2013-10-27T10:58:31Z</time>
      </trkpt>
      <trkpt lat="46.75999" lon="6.17711">
        <ele>1029.71</ele>
        <time>2013-10-27T10:58:37Z</time>
      </trkpt>
      <trkpt lat="46.75995" lon="6.17715">
        <ele>1027.31</ele>
        <time>2013-10-27T10:58:40Z</time>
      </trkpt>
      <trkpt lat="46.75992" lon="6.17719">
        <ele>1033.07</ele>
        <time>2013-10-27T10:58:42Z</time>
      </trkpt>
      <trkpt lat="46.75991" lon="6.1772">
        <ele>1028.75</ele>
        <time>2013-10-27T10:58:43Z</time>
      </trkpt>
      <trkpt lat="46.75983" lon="6.1773">
        <ele>1030.67</ele>
        <time>2013-10-27T10:58:49Z</time>
      </trkpt>
      <trkpt lat="46.75979" lon="6.17738">
        <ele>1030.19</ele>
        <time>2013-10-27T10:59:03Z</time>
      </trkpt>
      <trkpt lat="46.75968" lon="6.17753">
        <ele>1031.63</ele>
        <time>2013-10-27T10:59:15Z</time>
      </trkpt>
      <trkpt lat="46.75966" lon="6.17756">
        <ele>1031.63</ele>
        <time>2013-10-27T10:59:17Z</time>
      </trkpt>
      <trkpt lat="46.75961" lon="6.17768">
        <ele>1030.67</ele>
        <time>2013-10-27T10:59:22Z</time>
      </trkpt>
      <trkpt lat="46.75969" lon="6.17798">
        <ele>1032.11</ele>
        <time>2013-10-27T10:59:35Z</time>
      </trkpt>
      <trkpt lat="46.75987" lon="6.17808">
        <ele>1032.59</ele>
        <time>2013-10-27T10:59:48Z</time>
      </trkpt>
      <trkpt lat="46.76006" lon="6.17813">
        <ele>1033.55</ele>
        <time>2013-10-27T11:00:00Z</time>
      </trkpt>
      <trkpt lat="46.76022" lon="6.17825">
        <ele>1034.52</ele>
        <time>2013-10-27T11:00:12Z</time>
      </trkpt>
      <trkpt lat="46.76037" lon="6.17859">
        <ele>1033.07</ele>
        <time>2013-10-27T11:00:24Z</time>
      </trkpt>
      <trkpt lat="46.76045" lon="6.1789">
        <ele>1032.59</ele>
        <time>2013-10-27T11:00:37Z</time>
      </trkpt>
      <trkpt lat="46.76052" lon="6.1792">
        <ele>1035</ele>
        <time>2013-10-27T11:00:49Z</time>
      </trkpt>
      <trkpt lat="46.76052" lon="6.17923">
        <ele>1035</ele>
        <time>2013-10-27T11:00:50Z</time>
      </trkpt>
      <trkpt lat="46.76053" lon="6.17931">
        <ele>1035.96</ele>
        <time>2013-10-27T11:00:53Z</time>
      </trkpt>
      <trkpt lat="46.76056" lon="6.1796">
        <ele>1037.88</ele>
        <time>2013-10-27T11:01:04Z</time>
      </trkpt>
      <trkpt lat="46.76058" lon="6.1797">
        <ele>1039.32</ele>
        <time>2013-10-27T11:01:09Z</time>
      </trkpt>
      <trkpt lat="46.76058" lon="6.17971">
        <ele>1038.84</ele>
        <time>2013-10-27T11:01:35Z</time>
      </trkpt>
      <trkpt lat="46.76058" lon="6.17971">
        <ele>1035.96</ele>
        <time>2013-10-27T11:02:40Z</time>
      </trkpt>
      <trkpt lat="46.76058" lon="6.17972">
        <ele>1036.92</ele>
        <time>2013-10-27T11:04:21Z</time>
      </trkpt>
      <trkpt lat="46.76067" lon="6.17978">
        <ele>1036.44</ele>
        <time>2013-10-27T11:04:25Z</time>
      </trkpt>
      <trkpt lat="46.76083" lon="6.17983">
        <ele>1032.59</ele>
        <time>2013-10-27T11:04:29Z</time>
      </trkpt>
      <trkpt lat="46.76087" lon="6.17984">
        <ele>1032.59</ele>
        <time>2013-10-27T11:04:30Z</time>
      </trkpt>
      <trkpt lat="46.76092" lon="6.17983">
        <ele>1031.15</ele>
        <time>2013-10-27T11:04:31Z</time>
      </trkpt>
      <trkpt lat="46.76104" lon="6.17982">
        <ele>1029.71</ele>
        <time>2013-10-27T11:04:33Z</time>
      </trkpt>
      <trkpt lat="46.76115" lon="6.17982">
        <ele>1028.75</ele>
        <time>2013-10-27T11:04:35Z</time>
      </trkpt>
      <trkpt lat="46.76134" lon="6.17986">
        <ele>1026.83</ele>
        <time>2013-10-27T11:04:38Z</time>
      </trkpt>
      <trkpt lat="46.76148" lon="6.1799">
        <ele>1023.46</ele>
        <time>2013-10-27T11:04:40Z</time>
      </trkpt>
      <trkpt lat="46.76162" lon="6.17995">
        <ele>1021.54</ele>
        <time>2013-10-27T11:04:42Z</time>
      </trkpt>
      <trkpt lat="46.7617" lon="6.17996">
        <ele>1021.06</ele>
        <time>2013-10-27T11:04:43Z</time>
      </trkpt>
      <trkpt lat="46.76186" lon="6.17999">
        <ele>1019.62</ele>
        <time>2013-10-27T11:04:45Z</time>
      </trkpt>
      <trkpt lat="46.76215" lon="6.18002">
        <ele>1017.21</ele>
        <time>2013-10-27T11:04:49Z</time>
      </trkpt>
      <trkpt lat="46.76228" lon="6.18002">
        <ele>1017.21</ele>
        <time>2013-10-27T11:04:51Z</time>
      </trkpt>
      <trkpt lat="46.76234" lon="6.18004">
        <ele>1017.69</ele>
        <time>2013-10-27T11:04:52Z</time>
      </trkpt>
      <trkpt lat="46.76238" lon="6.18005">
        <ele>1017.69</ele>
        <time>2013-10-27T11:04:53Z</time>
      </trkpt>
      <trkpt lat="46.76241" lon="6.18008">
        <ele>1017.69</ele>
        <time>2013-10-27T11:04:54Z</time>
      </trkpt>
      <trkpt lat="46.76243" lon="6.1801">
        <ele>1017.69</ele>
        <time>2013-10-27T11:04:55Z</time>
      </trkpt>
      <trkpt lat="46.76245" lon="6.18012">
        <ele>1017.69</ele>
        <time>2013-10-27T11:04:56Z</time>
      </trkpt>
      <trkpt lat="46.76264" lon="6.1803">
        <ele>1019.62</ele>
        <time>2013-10-27T11:05:06Z</time>
      </trkpt>
      <trkpt lat="46.76283" lon="6.18045">
        <ele>1022.5</ele>
        <time>2013-10-27T11:05:18Z</time>
      </trkpt>
      <trkpt lat="46.76284" lon="6.18047">
        <ele>1022.5</ele>
        <time>2013-10-27T11:05:19Z</time>
      </trkpt>
      <trkpt lat="46.76287" lon="6.18049">
        <ele>1023.94</ele>
        <time>2013-10-27T11:05:21Z</time>
      </trkpt>
      <trkpt lat="46.7629" lon="6.18051">
        <ele>1023.94</ele>
        <time>2013-10-27T11:05:23Z</time>
      </trkpt>
      <trkpt lat="46.76291" lon="6.18053">
        <ele>1025.38</ele>
        <time>2013-10-27T11:05:24Z</time>
      </trkpt>
      <trkpt lat="46.76294" lon="6.18056">
        <ele>1027.31</ele>
        <time>2013-10-27T11:05:26Z</time>
      </trkpt>
      <trkpt lat="46.76297" lon="6.1806">
        <ele>1027.31</ele>
        <time>2013-10-27T11:05:29Z</time>
      </trkpt>
      <trkpt lat="46.76306" lon="6.18073">
        <ele>1023.94</ele>
        <time>2013-10-27T11:05:36Z</time>
      </trkpt>
      <trkpt lat="46.76317" lon="6.18095">
        <ele>1027.31</ele>
        <time>2013-10-27T11:05:46Z</time>
      </trkpt>
      <trkpt lat="46.76318" lon="6.18097">
        <ele>1027.31</ele>
        <time>2013-10-27T11:05:47Z</time>
      </trkpt>
      <trkpt lat="46.76319" lon="6.18099">
        <ele>1027.79</ele>
        <time>2013-10-27T11:05:48Z</time>
      </trkpt>
      <trkpt lat="46.7632" lon="6.181">
        <ele>1028.27</ele>
        <time>2013-10-27T11:05:49Z</time>
      </trkpt>
      <trkpt lat="46.76329" lon="6.18121">
        <ele>1028.75</ele>
        <time>2013-10-27T11:06:02Z</time>
      </trkpt>
      <trkpt lat="46.76329" lon="6.18121">
        <ele>1029.23</ele>
        <time>2013-10-27T11:06:18Z</time>
      </trkpt>
      <trkpt lat="46.76329" lon="6.18121">
        <ele>1026.34</ele>
        <time>2013-10-27T11:06:28Z</time>
      </trkpt>
      <trkpt lat="46.76329" lon="6.18121">
        <ele>1029.23</ele>
        <time>2013-10-27T11:06:30Z</time>
      </trkpt>
      <trkpt lat="46.76329" lon="6.18121">
        <ele>1029.71</ele>
        <time>2013-10-27T11:06:31Z</time>
      </trkpt>
      <trkpt lat="46.76329" lon="6.18121">
        <ele>1029.23</ele>
        <time>2013-10-27T11:06:37Z</time>
      </trkpt>
      <trkpt lat="46.7633" lon="6.18123">
        <ele>1029.23</ele>
        <time>2013-10-27T11:06:39Z</time>
      </trkpt>
      <trkpt lat="46.76331" lon="6.18126">
        <ele>1028.75</ele>
        <time>2013-10-27T11:06:40Z</time>
      </trkpt>
      <trkpt lat="46.76332" lon="6.18128">
        <ele>1028.27</ele>
        <time>2013-10-27T11:06:41Z</time>
      </trkpt>
      <trkpt lat="46.76334" lon="6.18131">
        <ele>1028.75</ele>
        <time>2013-10-27T11:06:42Z</time>
      </trkpt>
      <trkpt lat="46.76337" lon="6.18135">
        <ele>1026.83</ele>
        <time>2013-10-27T11:06:43Z</time>
      </trkpt>
      <trkpt lat="46.76344" lon="6.18144">
        <ele>1025.38</ele>
        <time>2013-10-27T11:06:45Z</time>
      </trkpt>
      <trkpt lat="46.7637" lon="6.18173">
        <ele>1022.98</ele>
        <time>2013-10-27T11:06:51Z</time>
      </trkpt>
      <trkpt lat="46.76373" lon="6.18177">
        <ele>1023.46</ele>
        <time>2013-10-27T11:06:52Z</time>
      </trkpt>
      <trkpt lat="46.76376" lon="6.18182">
        <ele>1024.42</ele>
        <time>2013-10-27T11:06:53Z</time>
      </trkpt>
      <trkpt lat="46.76386" lon="6.18201">
        <ele>1022.98</ele>
        <time>2013-10-27T11:06:57Z</time>
      </trkpt>
      <trkpt lat="46.76396" lon="6.1823">
        <ele>1024.9</ele>
        <time>2013-10-27T11:07:05Z</time>
      </trkpt>
      <trkpt lat="46.76406" lon="6.18266">
        <ele>1023.94</ele>
        <time>2013-10-27T11:07:16Z</time>
      </trkpt>
      <trkpt lat="46.76406" lon="6.18302">
        <ele>1021.54</ele>
        <time>2013-10-27T11:07:25Z</time>
      </trkpt>
      <trkpt lat="46.76409" lon="6.18305">
        <ele>1021.54</ele>
        <time>2013-10-27T11:07:26Z</time>
      </trkpt>
      <trkpt lat="46.76414" lon="6.18307">
        <ele>1021.54</ele>
        <time>2013-10-27T11:07:27Z</time>
      </trkpt>
      <trkpt lat="46.76419" lon="6.18309">
        <ele>1021.54</ele>
        <time>2013-10-27T11:07:28Z</time>
      </trkpt>
      <trkpt lat="46.76425" lon="6.18308">
        <ele>1021.54</ele>
        <time>2013-10-27T11:07:29Z</time>
      </trkpt>
      <trkpt lat="46.76431" lon="6.18306">
        <ele>1021.54</ele>
        <time>2013-10-27T11:07:30Z</time>
      </trkpt>
      <trkpt lat="46.76436" lon="6.18304">
        <ele>1021.54</ele>
        <time>2013-10-27T11:07:31Z</time>
      </trkpt>
      <trkpt lat="46.76441" lon="6.18301">
        <ele>1021.54</ele>
        <time>2013-10-27T11:07:32Z</time>
      </trkpt>
      <trkpt lat="46.7646" lon="6.18288">
        <ele>1016.73</ele>
        <time>2013-10-27T11:07:36Z</time>
      </trkpt>
      <trkpt lat="46.76511" lon="6.18255">
        <ele>1015.77</ele>
        <time>2013-10-27T11:07:49Z</time>
      </trkpt>
      <trkpt lat="46.76551" lon="6.18235">
        <ele>1017.69</ele>
        <time>2013-10-27T11:08:03Z</time>
      </trkpt>
      <trkpt lat="46.76563" lon="6.18232">
        <ele>1018.17</ele>
        <time>2013-10-27T11:08:09Z</time>
      </trkpt>
      <trkpt lat="46.76575" lon="6.18234">
        <ele>1019.62</ele>
        <time>2013-10-27T11:08:16Z</time>
      </trkpt>
      <trkpt lat="46.76582" lon="6.18234">
        <ele>1021.06</ele>
        <time>2013-10-27T11:08:21Z</time>
      </trkpt>
      <trkpt lat="46.76584" lon="6.18234">
        <ele>1020.1</ele>
        <time>2013-10-27T11:08:22Z</time>
      </trkpt>
      <trkpt lat="46.76592" lon="6.18233">
        <ele>1023.46</ele>
        <time>2013-10-27T11:08:27Z</time>
      </trkpt>
      <trkpt lat="46.76594" lon="6.18233">
        <ele>1023.46</ele>
        <time>2013-10-27T11:08:28Z</time>
      </trkpt>
      <trkpt lat="46.76603" lon="6.18231">
        <ele>1024.9</ele>
        <time>2013-10-27T11:08:34Z</time>
      </trkpt>
      <trkpt lat="46.76604" lon="6.18231">
        <ele>1024.9</ele>
        <time>2013-10-27T11:08:35Z</time>
      </trkpt>
      <trkpt lat="46.76606" lon="6.1823">
        <ele>1025.38</ele>
        <time>2013-10-27T11:08:36Z</time>
      </trkpt>
      <trkpt lat="46.76607" lon="6.1823">
        <ele>1025.86</ele>
        <time>2013-10-27T11:08:37Z</time>
      </trkpt>
      <trkpt lat="46.76609" lon="6.1823">
        <ele>1026.34</ele>
        <time>2013-10-27T11:08:38Z</time>
      </trkpt>
      <trkpt lat="46.7661" lon="6.1823">
        <ele>1025.86</ele>
        <time>2013-10-27T11:08:39Z</time>
      </trkpt>
      <trkpt lat="46.76612" lon="6.18231">
        <ele>1026.34</ele>
        <time>2013-10-27T11:08:40Z</time>
      </trkpt>
      <trkpt lat="46.76614" lon="6.18231">
        <ele>1026.83</ele>
        <time>2013-10-27T11:08:42Z</time>
      </trkpt>
      <trkpt lat="46.76616" lon="6.18232">
        <ele>1027.31</ele>
        <time>2013-10-27T11:08:43Z</time>
      </trkpt>
      <trkpt lat="46.76617" lon="6.18232">
        <ele>1027.31</ele>
        <time>2013-10-27T11:08:44Z</time>
      </trkpt>
      <trkpt lat="46.76618" lon="6.18233">
        <ele>1027.79</ele>
        <time>2013-10-27T11:08:45Z</time>
      </trkpt>
      <trkpt lat="46.76619" lon="6.18234">
        <ele>1027.31</ele>
        <time>2013-10-27T11:08:46Z</time>
      </trkpt>
      <trkpt lat="46.7662" lon="6.18234">
        <ele>1027.79</ele>
        <time>2013-10-27T11:08:47Z</time>
      </trkpt>
      <trkpt lat="46.76622" lon="6.18235">
        <ele>1027.79</ele>
        <time>2013-10-27T11:08:48Z</time>
      </trkpt>
      <trkpt lat="46.76623" lon="6.18237">
        <ele>1027.79</ele>
        <time>2013-10-27T11:08:49Z</time>
      </trkpt>
      <trkpt lat="46.76632" lon="6.18251">
        <ele>1028.75</ele>
        <time>2013-10-27T11:09:02Z</time>
      </trkpt>
      <trkpt lat="46.76642" lon="6.18269">
        <ele>1029.23</ele>
        <time>2013-10-27T11:09:14Z</time>
      </trkpt>
      <trkpt lat="46.76648" lon="6.18284">
        <ele>1029.71</ele>
        <time>2013-10-27T11:09:26Z</time>
      </trkpt>
      <trkpt lat="46.76649" lon="6.18287">
        <ele>1029.23</ele>
        <time>2013-10-27T11:09:44Z</time>
      </trkpt>
      <trkpt lat="46.7665" lon="6.18289">
        <ele>1028.75</ele>
        <time>2013-10-27T11:09:53Z</time>
      </trkpt>
      <trkpt lat="46.7665" lon="6.18291">
        <ele>1029.23</ele>
        <time>2013-10-27T11:09:54Z</time>
      </trkpt>
      <trkpt lat="46.76651" lon="6.18293">
        <ele>1029.23</ele>
        <time>2013-10-27T11:09:55Z</time>
      </trkpt>
      <trkpt lat="46.76652" lon="6.18294">
        <ele>1029.23</ele>
        <time>2013-10-27T11:09:56Z</time>
      </trkpt>
      <trkpt lat="46.76656" lon="6.18302">
        <ele>1028.75</ele>
        <time>2013-10-27T11:10:01Z</time>
      </trkpt>
      <trkpt lat="46.76657" lon="6.18303">
        <ele>1029.23</ele>
        <time>2013-10-27T11:10:02Z</time>
      </trkpt>
      <trkpt lat="46.76658" lon="6.18304">
        <ele>1029.23</ele>
        <time>2013-10-27T11:10:03Z</time>
      </trkpt>
      <trkpt lat="46.7666" lon="6.18306">
        <ele>1029.23</ele>
        <time>2013-10-27T11:10:04Z</time>
      </trkpt>
      <trkpt lat="46.76662" lon="6.18307">
        <ele>1029.71</ele>
        <time>2013-10-27T11:10:05Z</time>
      </trkpt>
      <trkpt lat="46.76663" lon="6.18309">
        <ele>1029.71</ele>
        <time>2013-10-27T11:10:06Z</time>
      </trkpt>
      <trkpt lat="46.76664" lon="6.18311">
        <ele>1029.71</ele>
        <time>2013-10-27T11:10:07Z</time>
      </trkpt>
      <trkpt lat="46.76665" lon="6.18313">
        <ele>1029.71</ele>
        <time>2013-10-27T11:10:08Z</time>
      </trkpt>
      <trkpt lat="46.76668" lon="6.18315">
        <ele>1031.63</ele>
        <time>2013-10-27T11:10:10Z</time>
      </trkpt>
      <trkpt lat="46.76675" lon="6.18323">
        <ele>1034.04</ele>
        <time>2013-10-27T11:10:16Z</time>
      </trkpt>
      <trkpt lat="46.7669" lon="6.1835">
        <ele>1031.63</ele>
        <time>2013-10-27T11:10:25Z</time>
      </trkpt>
      <trkpt lat="46.76693" lon="6.18355">
        <ele>1031.63</ele>
        <time>2013-10-27T11:10:26Z</time>
      </trkpt>
      <trkpt lat="46.76709" lon="6.18383">
        <ele>1027.79</ele>
        <time>2013-10-27T11:10:31Z</time>
      </trkpt>
      <trkpt lat="46.76718" lon="6.18399">
        <ele>1030.19</ele>
        <time>2013-10-27T11:10:36Z</time>
      </trkpt>
      <trkpt lat="46.76721" lon="6.18401">
        <ele>1031.63</ele>
        <time>2013-10-27T11:10:39Z</time>
      </trkpt>
      <trkpt lat="46.76731" lon="6.18411">
        <ele>1033.55</ele>
        <time>2013-10-27T11:10:45Z</time>
      </trkpt>
      <trkpt lat="46.76733" lon="6.18412">
        <ele>1032.59</ele>
        <time>2013-10-27T11:10:46Z</time>
      </trkpt>
      <trkpt lat="46.76754" lon="6.18424">
        <ele>1034.04</ele>
        <time>2013-10-27T11:10:57Z</time>
      </trkpt>
      <trkpt lat="46.76765" lon="6.18431">
        <ele>1037.88</ele>
        <time>2013-10-27T11:11:05Z</time>
      </trkpt>
      <trkpt lat="46.76765" lon="6.18432">
        <ele>1037.88</ele>
        <time>2013-10-27T11:11:06Z</time>
      </trkpt>
      <trkpt lat="46.76767" lon="6.18434">
        <ele>1035.48</ele>
        <time>2013-10-27T11:11:24Z</time>
      </trkpt>
      <trkpt lat="46.76768" lon="6.18434">
        <ele>1035.96</ele>
        <time>2013-10-27T11:12:22Z</time>
      </trkpt>
      <trkpt lat="46.76768" lon="6.18434">
        <ele>1035.96</ele>
        <time>2013-10-27T11:12:28Z</time>
      </trkpt>
      <trkpt lat="46.76776" lon="6.18438">
        <ele>1033.55</ele>
        <time>2013-10-27T11:12:46Z</time>
      </trkpt>
      <trkpt lat="46.76777" lon="6.18438">
        <ele>1032.59</ele>
        <time>2013-10-27T11:12:47Z</time>
      </trkpt>
      <trkpt lat="46.76782" lon="6.18436">
        <ele>1034.04</ele>
        <time>2013-10-27T11:12:50Z</time>
      </trkpt>
      <trkpt lat="46.76784" lon="6.18435">
        <ele>1033.55</ele>
        <time>2013-10-27T11:12:51Z</time>
      </trkpt>
      <trkpt lat="46.76807" lon="6.18402">
        <ele>1031.15</ele>
        <time>2013-10-27T11:13:01Z</time>
      </trkpt>
      <trkpt lat="46.76829" lon="6.1839">
        <ele>1029.71</ele>
        <time>2013-10-27T11:13:12Z</time>
      </trkpt>
      <trkpt lat="46.76851" lon="6.18393">
        <ele>1029.23</ele>
        <time>2013-10-27T11:13:20Z</time>
      </trkpt>
      <trkpt lat="46.76875" lon="6.18393">
        <ele>1029.71</ele>
        <time>2013-10-27T11:13:32Z</time>
      </trkpt>
      <trkpt lat="46.76895" lon="6.18389">
        <ele>1028.27</ele>
        <time>2013-10-27T11:13:43Z</time>
      </trkpt>
      <trkpt lat="46.76911" lon="6.18409">
        <ele>1029.23</ele>
        <time>2013-10-27T11:13:51Z</time>
      </trkpt>
      <trkpt lat="46.76925" lon="6.18429">
        <ele>1029.23</ele>
        <time>2013-10-27T11:13:56Z</time>
      </trkpt>
      <trkpt lat="46.76928" lon="6.1843">
        <ele>1029.71</ele>
        <time>2013-10-27T11:13:57Z</time>
      </trkpt>
      <trkpt lat="46.7693" lon="6.18432">
        <ele>1027.79</ele>
        <time>2013-10-27T11:13:58Z</time>
      </trkpt>
      <trkpt lat="46.76948" lon="6.18458">
        <ele>1027.79</ele>
        <time>2013-10-27T11:14:09Z</time>
      </trkpt>
      <trkpt lat="46.76968" lon="6.1849">
        <ele>1028.75</ele>
        <time>2013-10-27T11:14:22Z</time>
      </trkpt>
      <trkpt lat="46.76991" lon="6.18515">
        <ele>1032.59</ele>
        <time>2013-10-27T11:14:34Z</time>
      </trkpt>
      <trkpt lat="46.77015" lon="6.18524">
        <ele>1031.15</ele>
        <time>2013-10-27T11:14:46Z</time>
      </trkpt>
      <trkpt lat="46.77043" lon="6.18514">
        <ele>1030.67</ele>
        <time>2013-10-27T11:14:55Z</time>
      </trkpt>
      <trkpt lat="46.77048" lon="6.1851">
        <ele>1030.19</ele>
        <time>2013-10-27T11:14:58Z</time>
      </trkpt>
      <trkpt lat="46.77063" lon="6.18486">
        <ele>1032.59</ele>
        <time>2013-10-27T11:15:11Z</time>
      </trkpt>
      <trkpt lat="46.77073" lon="6.18464">
        <ele>1036.44</ele>
        <time>2013-10-27T11:15:22Z</time>
      </trkpt>
      <trkpt lat="46.77084" lon="6.18453">
        <ele>1038.36</ele>
        <time>2013-10-27T11:15:31Z</time>
      </trkpt>
      <trkpt lat="46.77088" lon="6.1845">
        <ele>1037.88</ele>
        <time>2013-10-27T11:15:36Z</time>
      </trkpt>
      <trkpt lat="46.77102" lon="6.1845">
        <ele>1039.8</ele>
        <time>2013-10-27T11:15:48Z</time>
      </trkpt>
      <trkpt lat="46.77116" lon="6.18456">
        <ele>1038.84</ele>
        <time>2013-10-27T11:16:01Z</time>
      </trkpt>
      <trkpt lat="46.77127" lon="6.18462">
        <ele>1040.28</ele>
        <time>2013-10-27T11:16:13Z</time>
      </trkpt>
      <trkpt lat="46.77129" lon="6.18462">
        <ele>1039.32</ele>
        <time>2013-10-27T11:16:14Z</time>
      </trkpt>
      <trkpt lat="46.77132" lon="6.18463">
        <ele>1040.76</ele>
        <time>2013-10-27T11:16:17Z</time>
      </trkpt>
      <trkpt lat="46.77143" lon="6.18474">
        <ele>1041.25</ele>
        <time>2013-10-27T11:16:30Z</time>
      </trkpt>
      <trkpt lat="46.77143" lon="6.18475">
        <ele>1042.21</ele>
        <time>2013-10-27T11:16:31Z</time>
      </trkpt>
      <trkpt lat="46.77147" lon="6.18483">
        <ele>1041.25</ele>
        <time>2013-10-27T11:16:35Z</time>
      </trkpt>
      <trkpt lat="46.77151" lon="6.18491">
        <ele>1042.21</ele>
        <time>2013-10-27T11:16:40Z</time>
      </trkpt>
      <trkpt lat="46.7715" lon="6.18507">
        <ele>1045.57</ele>
        <time>2013-10-27T11:16:48Z</time>
      </trkpt>
      <trkpt lat="46.77148" lon="6.18518">
        <ele>1044.61</ele>
        <time>2013-10-27T11:16:55Z</time>
      </trkpt>
      <trkpt lat="46.77149" lon="6.18524">
        <ele>1044.61</ele>
        <time>2013-10-27T11:16:58Z</time>
      </trkpt>
      <trkpt lat="46.7715" lon="6.18534">
        <ele>1045.09</ele>
        <time>2013-10-27T11:17:02Z</time>
      </trkpt>
      <trkpt lat="46.7715" lon="6.18539">
        <ele>1044.61</ele>
        <time>2013-10-27T11:17:06Z</time>
      </trkpt>
      <trkpt lat="46.77148" lon="6.18549">
        <ele>1046.05</ele>
        <time>2013-10-27T11:17:15Z</time>
      </trkpt>
      <trkpt lat="46.77149" lon="6.18553">
        <ele>1047.01</ele>
        <time>2013-10-27T11:17:28Z</time>
      </trkpt>
      <trkpt lat="46.77146" lon="6.18562">
        <ele>1046.05</ele>
        <time>2013-10-27T11:18:07Z</time>
      </trkpt>
      <trkpt lat="46.77138" lon="6.18588">
        <ele>1046.53</ele>
        <time>2013-10-27T11:18:16Z</time>
      </trkpt>
      <trkpt lat="46.77133" lon="6.18608">
        <ele>1046.53</ele>
        <time>2013-10-27T11:18:20Z</time>
      </trkpt>
      <trkpt lat="46.77124" lon="6.18636">
        <ele>1047.01</ele>
        <time>2013-10-27T11:18:27Z</time>
      </trkpt>
      <trkpt lat="46.77107" lon="6.1867">
        <ele>1047.01</ele>
        <time>2013-10-27T11:18:35Z</time>
      </trkpt>
      <trkpt lat="46.77092" lon="6.18727">
        <ele>1047.01</ele>
        <time>2013-10-27T11:18:49Z</time>
      </trkpt>
      <trkpt lat="46.77095" lon="6.18774">
        <ele>1045.57</ele>
        <time>2013-10-27T11:18:59Z</time>
      </trkpt>
      <trkpt lat="46.77088" lon="6.18822">
        <ele>1045.09</ele>
        <time>2013-10-27T11:19:10Z</time>
      </trkpt>
      <trkpt lat="46.77086" lon="6.18826">
        <ele>1045.09</ele>
        <time>2013-10-27T11:19:11Z</time>
      </trkpt>
      <trkpt lat="46.77073" lon="6.18844">
        <ele>1045.57</ele>
        <time>2013-10-27T11:19:16Z</time>
      </trkpt>
      <trkpt lat="46.77051" lon="6.1886">
        <ele>1045.57</ele>
        <time>2013-10-27T11:19:23Z</time>
      </trkpt>
      <trkpt lat="46.77019" lon="6.18873">
        <ele>1046.05</ele>
        <time>2013-10-27T11:19:33Z</time>
      </trkpt>
      <trkpt lat="46.76986" lon="6.18884">
        <ele>1045.57</ele>
        <time>2013-10-27T11:19:42Z</time>
      </trkpt>
      <trkpt lat="46.76949" lon="6.18934">
        <ele>1045.09</ele>
        <time>2013-10-27T11:19:55Z</time>
      </trkpt>
      <trkpt lat="46.76947" lon="6.18938">
        <ele>1045.09</ele>
        <time>2013-10-27T11:19:56Z</time>
      </trkpt>
      <trkpt lat="46.76944" lon="6.18941">
        <ele>1044.61</ele>
        <time>2013-10-27T11:19:57Z</time>
      </trkpt>
      <trkpt lat="46.7692" lon="6.18976">
        <ele>1045.09</ele>
        <time>2013-10-27T11:20:09Z</time>
      </trkpt>
      <trkpt lat="46.76919" lon="6.18979">
        <ele>1045.57</ele>
        <time>2013-10-27T11:20:10Z</time>
      </trkpt>
      <trkpt lat="46.76918" lon="6.18982">
        <ele>1045.57</ele>
        <time>2013-10-27T11:20:11Z</time>
      </trkpt>
      <trkpt lat="46.76917" lon="6.18984">
        <ele>1046.05</ele>
        <time>2013-10-27T11:20:12Z</time>
      </trkpt>
      <trkpt lat="46.76915" lon="6.18984">
        <ele>1045.57</ele>
        <time>2013-10-27T11:20:13Z</time>
      </trkpt>
      <trkpt lat="46.76914" lon="6.18983">
        <ele>1045.57</ele>
        <time>2013-10-27T11:20:14Z</time>
      </trkpt>
      <trkpt lat="46.76913" lon="6.18983">
        <ele>1045.57</ele>
        <time>2013-10-27T11:20:15Z</time>
      </trkpt>
      <trkpt lat="46.76912" lon="6.18984">
        <ele>1046.53</ele>
        <time>2013-10-27T11:20:16Z</time>
      </trkpt>
      <trkpt lat="46.76911" lon="6.18985">
        <ele>1046.05</ele>
        <time>2013-10-27T11:20:17Z</time>
      </trkpt>
      <trkpt lat="46.7691" lon="6.18987">
        <ele>1044.61</ele>
        <time>2013-10-27T11:20:18Z</time>
      </trkpt>
      <trkpt lat="46.76911" lon="6.18989">
        <ele>1045.09</ele>
        <time>2013-10-27T11:20:19Z</time>
      </trkpt>
      <trkpt lat="46.76911" lon="6.18991">
        <ele>1045.57</ele>
        <time>2013-10-27T11:20:20Z</time>
      </trkpt>
      <trkpt lat="46.76911" lon="6.18993">
        <ele>1045.57</ele>
        <time>2013-10-27T11:20:21Z</time>
      </trkpt>
      <trkpt lat="46.76911" lon="6.18994">
        <ele>1046.05</ele>
        <time>2013-10-27T11:20:22Z</time>
      </trkpt>
      <trkpt lat="46.7691" lon="6.18996">
        <ele>1045.57</ele>
        <time>2013-10-27T11:20:23Z</time>
      </trkpt>
      <trkpt lat="46.76909" lon="6.18998">
        <ele>1046.05</ele>
        <time>2013-10-27T11:20:24Z</time>
      </trkpt>
      <trkpt lat="46.76897" lon="6.19019">
        <ele>1047.97</ele>
        <time>2013-10-27T11:20:35Z</time>
      </trkpt>
      <trkpt lat="46.76894" lon="6.19027">
        <ele>1048.45</ele>
        <time>2013-10-27T11:20:39Z</time>
      </trkpt>
      <trkpt lat="46.76896" lon="6.19062">
        <ele>1048.45</ele>
        <time>2013-10-27T11:20:52Z</time>
      </trkpt>
      <trkpt lat="46.76896" lon="6.19067">
        <ele>1049.9</ele>
        <time>2013-10-27T11:20:54Z</time>
      </trkpt>
      <trkpt lat="46.76902" lon="6.19088">
        <ele>1051.34</ele>
        <time>2013-10-27T11:21:07Z</time>
      </trkpt>
      <trkpt lat="46.76909" lon="6.19097">
        <ele>1053.26</ele>
        <time>2013-10-27T11:21:14Z</time>
      </trkpt>
      <trkpt lat="46.76911" lon="6.19099">
        <ele>1052.78</ele>
        <time>2013-10-27T11:21:15Z</time>
      </trkpt>
      <trkpt lat="46.76919" lon="6.19108">
        <ele>1053.74</ele>
        <time>2013-10-27T11:21:21Z</time>
      </trkpt>
      <trkpt lat="46.76921" lon="6.1911">
        <ele>1054.7</ele>
        <time>2013-10-27T11:21:23Z</time>
      </trkpt>
      <trkpt lat="46.76922" lon="6.1911">
        <ele>1054.7</ele>
        <time>2013-10-27T11:21:24Z</time>
      </trkpt>
      <trkpt lat="46.76928" lon="6.19115">
        <ele>1055.67</ele>
        <time>2013-10-27T11:21:30Z</time>
      </trkpt>
      <trkpt lat="46.76929" lon="6.19116">
        <ele>1054.7</ele>
        <time>2013-10-27T11:21:31Z</time>
      </trkpt>
      <trkpt lat="46.76939" lon="6.19132">
        <ele>1057.11</ele>
        <time>2013-10-27T11:21:41Z</time>
      </trkpt>
      <trkpt lat="46.76941" lon="6.19141">
        <ele>1058.07</ele>
        <time>2013-10-27T11:21:46Z</time>
      </trkpt>
      <trkpt lat="46.76943" lon="6.19144">
        <ele>1056.63</ele>
        <time>2013-10-27T11:21:48Z</time>
      </trkpt>
      <trkpt lat="46.76946" lon="6.19155">
        <ele>1058.07</ele>
        <time>2013-10-27T11:21:55Z</time>
      </trkpt>
      <trkpt lat="46.76947" lon="6.19168">
        <ele>1059.99</ele>
        <time>2013-10-27T11:22:02Z</time>
      </trkpt>
      <trkpt lat="46.76951" lon="6.19185">
        <ele>1061.91</ele>
        <time>2013-10-27T11:22:13Z</time>
      </trkpt>
      <trkpt lat="46.76951" lon="6.19188">
        <ele>1062.39</ele>
        <time>2013-10-27T11:22:15Z</time>
      </trkpt>
      <trkpt lat="46.76951" lon="6.19198">
        <ele>1062.87</ele>
        <time>2013-10-27T11:22:20Z</time>
      </trkpt>
      <trkpt lat="46.76952" lon="6.192">
        <ele>1062.87</ele>
        <time>2013-10-27T11:22:21Z</time>
      </trkpt>
      <trkpt lat="46.76952" lon="6.19202">
        <ele>1063.84</ele>
        <time>2013-10-27T11:22:22Z</time>
      </trkpt>
      <trkpt lat="46.76952" lon="6.19204">
        <ele>1063.84</ele>
        <time>2013-10-27T11:22:23Z</time>
      </trkpt>
      <trkpt lat="46.76953" lon="6.19206">
        <ele>1063.84</ele>
        <time>2013-10-27T11:22:24Z</time>
      </trkpt>
      <trkpt lat="46.76953" lon="6.19209">
        <ele>1064.32</ele>
        <time>2013-10-27T11:22:25Z</time>
      </trkpt>
      <trkpt lat="46.76953" lon="6.19211">
        <ele>1064.32</ele>
        <time>2013-10-27T11:22:26Z</time>
      </trkpt>
      <trkpt lat="46.76953" lon="6.19213">
        <ele>1065.28</ele>
        <time>2013-10-27T11:22:27Z</time>
      </trkpt>
      <trkpt lat="46.76952" lon="6.19217">
        <ele>1065.76</ele>
        <time>2013-10-27T11:22:29Z</time>
      </trkpt>
      <trkpt lat="46.76953" lon="6.19218">
        <ele>1065.76</ele>
        <time>2013-10-27T11:22:30Z</time>
      </trkpt>
      <trkpt lat="46.76953" lon="6.19221">
        <ele>1066.24</ele>
        <time>2013-10-27T11:22:31Z</time>
      </trkpt>
      <trkpt lat="46.76954" lon="6.19248">
        <ele>1068.16</ele>
        <time>2013-10-27T11:22:44Z</time>
      </trkpt>
      <trkpt lat="46.76954" lon="6.19265">
        <ele>1070.08</ele>
        <time>2013-10-27T11:22:54Z</time>
      </trkpt>
      <trkpt lat="46.76955" lon="6.19267">
        <ele>1070.57</ele>
        <time>2013-10-27T11:22:55Z</time>
      </trkpt>
      <trkpt lat="46.76956" lon="6.19293">
        <ele>1072.49</ele>
        <time>2013-10-27T11:23:09Z</time>
      </trkpt>
      <trkpt lat="46.76957" lon="6.19298">
        <ele>1072.97</ele>
        <time>2013-10-27T11:23:12Z</time>
      </trkpt>
      <trkpt lat="46.76957" lon="6.193">
        <ele>1073.45</ele>
        <time>2013-10-27T11:23:13Z</time>
      </trkpt>
      <trkpt lat="46.76959" lon="6.19317">
        <ele>1075.85</ele>
        <time>2013-10-27T11:23:21Z</time>
      </trkpt>
      <trkpt lat="46.76959" lon="6.19319">
        <ele>1075.85</ele>
        <time>2013-10-27T11:23:22Z</time>
      </trkpt>
      <trkpt lat="46.76959" lon="6.19321">
        <ele>1076.33</ele>
        <time>2013-10-27T11:23:23Z</time>
      </trkpt>
      <trkpt lat="46.76956" lon="6.19332">
        <ele>1075.85</ele>
        <time>2013-10-27T11:23:34Z</time>
      </trkpt>
      <trkpt lat="46.76957" lon="6.19354">
        <ele>1076.81</ele>
        <time>2013-10-27T11:23:47Z</time>
      </trkpt>
      <trkpt lat="46.76958" lon="6.19364">
        <ele>1076.81</ele>
        <time>2013-10-27T11:23:51Z</time>
      </trkpt>
      <trkpt lat="46.76958" lon="6.19366">
        <ele>1077.29</ele>
        <time>2013-10-27T11:23:52Z</time>
      </trkpt>
      <trkpt lat="46.76959" lon="6.1939">
        <ele>1080.18</ele>
        <time>2013-10-27T11:24:05Z</time>
      </trkpt>
      <trkpt lat="46.76959" lon="6.1939">
        <ele>1079.7</ele>
        <time>2013-10-27T11:24:07Z</time>
      </trkpt>
      <trkpt lat="46.7696" lon="6.19386">
        <ele>1079.22</ele>
        <time>2013-10-27T11:24:10Z</time>
      </trkpt>
      <trkpt lat="46.76959" lon="6.19384">
        <ele>1079.22</ele>
        <time>2013-10-27T11:24:11Z</time>
      </trkpt>
      <trkpt lat="46.7696" lon="6.19382">
        <ele>1079.22</ele>
        <time>2013-10-27T11:24:12Z</time>
      </trkpt>
      <trkpt lat="46.7696" lon="6.1938">
        <ele>1078.74</ele>
        <time>2013-10-27T11:24:13Z</time>
      </trkpt>
      <trkpt lat="46.7696" lon="6.19378">
        <ele>1079.22</ele>
        <time>2013-10-27T11:24:14Z</time>
      </trkpt>
      <trkpt lat="46.7696" lon="6.19376">
        <ele>1078.74</ele>
        <time>2013-10-27T11:24:15Z</time>
      </trkpt>
      <trkpt lat="46.7696" lon="6.19374">
        <ele>1078.74</ele>
        <time>2013-10-27T11:24:16Z</time>
      </trkpt>
      <trkpt lat="46.7696" lon="6.19372">
        <ele>1079.22</ele>
        <time>2013-10-27T11:24:17Z</time>
      </trkpt>
      <trkpt lat="46.7696" lon="6.19369">
        <ele>1078.74</ele>
        <time>2013-10-27T11:24:18Z</time>
      </trkpt>
      <trkpt lat="46.76959" lon="6.19347">
        <ele>1077.78</ele>
        <time>2013-10-27T11:24:28Z</time>
      </trkpt>
      <trkpt lat="46.7696" lon="6.19334">
        <ele>1076.33</ele>
        <time>2013-10-27T11:24:41Z</time>
      </trkpt>
      <trkpt lat="46.7696" lon="6.19334">
        <ele>1076.81</ele>
        <time>2013-10-27T11:25:03Z</time>
      </trkpt>
      <trkpt lat="46.7696" lon="6.19337">
        <ele>1076.81</ele>
        <time>2013-10-27T11:25:06Z</time>
      </trkpt>
      <trkpt lat="46.7696" lon="6.19339">
        <ele>1077.78</ele>
        <time>2013-10-27T11:25:07Z</time>
      </trkpt>
      <trkpt lat="46.7696" lon="6.19341">
        <ele>1077.78</ele>
        <time>2013-10-27T11:25:08Z</time>
      </trkpt>
      <trkpt lat="46.7696" lon="6.19344">
        <ele>1076.81</ele>
        <time>2013-10-27T11:25:09Z</time>
      </trkpt>
      <trkpt lat="46.7696" lon="6.19346">
        <ele>1077.29</ele>
        <time>2013-10-27T11:25:10Z</time>
      </trkpt>
      <trkpt lat="46.7696" lon="6.19348">
        <ele>1077.29</ele>
        <time>2013-10-27T11:25:11Z</time>
      </trkpt>
      <trkpt lat="46.7696" lon="6.19351">
        <ele>1077.78</ele>
        <time>2013-10-27T11:25:12Z</time>
      </trkpt>
      <trkpt lat="46.76959" lon="6.19353">
        <ele>1077.78</ele>
        <time>2013-10-27T11:25:13Z</time>
      </trkpt>
      <trkpt lat="46.7696" lon="6.19356">
        <ele>1077.78</ele>
        <time>2013-10-27T11:25:14Z</time>
      </trkpt>
      <trkpt lat="46.76959" lon="6.19358">
        <ele>1078.74</ele>
        <time>2013-10-27T11:25:15Z</time>
      </trkpt>
      <trkpt lat="46.76959" lon="6.19361">
        <ele>1078.26</ele>
        <time>2013-10-27T11:25:16Z</time>
      </trkpt>
      <trkpt lat="46.7696" lon="6.19364">
        <ele>1078.74</ele>
        <time>2013-10-27T11:25:17Z</time>
      </trkpt>
      <trkpt lat="46.7696" lon="6.19366">
        <ele>1078.74</ele>
        <time>2013-10-27T11:25:18Z</time>
      </trkpt>
      <trkpt lat="46.76961" lon="6.19395">
        <ele>1079.7</ele>
        <time>2013-10-27T11:25:31Z</time>
      </trkpt>
      <trkpt lat="46.76961" lon="6.19399">
        <ele>1079.7</ele>
        <time>2013-10-27T11:25:33Z</time>
      </trkpt>
      <trkpt lat="46.7696" lon="6.19403">
        <ele>1080.66</ele>
        <time>2013-10-27T11:25:35Z</time>
      </trkpt>
      <trkpt lat="46.76963" lon="6.1944">
        <ele>1080.66</ele>
        <time>2013-10-27T11:25:47Z</time>
      </trkpt>
      <trkpt lat="46.76965" lon="6.19472">
        <ele>1082.58</ele>
        <time>2013-10-27T11:25:58Z</time>
      </trkpt>
      <trkpt lat="46.76967" lon="6.19483">
        <ele>1083.06</ele>
        <time>2013-10-27T11:26:02Z</time>
      </trkpt>
      <trkpt lat="46.76967" lon="6.19485">
        <ele>1083.06</ele>
        <time>2013-10-27T11:26:03Z</time>
      </trkpt>
      <trkpt lat="46.76968" lon="6.19493">
        <ele>1084.5</ele>
        <time>2013-10-27T11:26:06Z</time>
      </trkpt>
      <trkpt lat="46.76971" lon="6.19539">
        <ele>1084.5</ele>
        <time>2013-10-27T11:26:21Z</time>
      </trkpt>
      <trkpt lat="46.76971" lon="6.19545">
        <ele>1084.99</ele>
        <time>2013-10-27T11:26:22Z</time>
      </trkpt>
      <trkpt lat="46.76974" lon="6.19571">
        <ele>1084.02</ele>
        <time>2013-10-27T11:26:25Z</time>
      </trkpt>
      <trkpt lat="46.76979" lon="6.19636">
        <ele>1084.5</ele>
        <time>2013-10-27T11:26:35Z</time>
      </trkpt>
      <trkpt lat="46.76983" lon="6.19669">
        <ele>1087.87</ele>
        <time>2013-10-27T11:26:42Z</time>
      </trkpt>
      <trkpt lat="46.76984" lon="6.19695">
        <ele>1089.79</ele>
        <time>2013-10-27T11:26:48Z</time>
      </trkpt>
      <trkpt lat="46.76984" lon="6.19698">
        <ele>1090.75</ele>
        <time>2013-10-27T11:26:49Z</time>
      </trkpt>
      <trkpt lat="46.76984" lon="6.197">
        <ele>1090.27</ele>
        <time>2013-10-27T11:26:50Z</time>
      </trkpt>
      <trkpt lat="46.76984" lon="6.19703">
        <ele>1090.27</ele>
        <time>2013-10-27T11:26:51Z</time>
      </trkpt>
      <trkpt lat="46.76983" lon="6.19705">
        <ele>1089.79</ele>
        <time>2013-10-27T11:26:52Z</time>
      </trkpt>
      <trkpt lat="46.76983" lon="6.19707">
        <ele>1090.27</ele>
        <time>2013-10-27T11:26:53Z</time>
      </trkpt>
      <trkpt lat="46.76983" lon="6.19709">
        <ele>1089.79</ele>
        <time>2013-10-27T11:26:54Z</time>
      </trkpt>
      <trkpt lat="46.76982" lon="6.19711">
        <ele>1090.27</ele>
        <time>2013-10-27T11:26:55Z</time>
      </trkpt>
      <trkpt lat="46.76981" lon="6.19714">
        <ele>1091.23</ele>
        <time>2013-10-27T11:26:56Z</time>
      </trkpt>
      <trkpt lat="46.76981" lon="6.19716">
        <ele>1090.27</ele>
        <time>2013-10-27T11:26:57Z</time>
      </trkpt>
      <trkpt lat="46.7698" lon="6.19718">
        <ele>1090.75</ele>
        <time>2013-10-27T11:26:58Z</time>
      </trkpt>
      <trkpt lat="46.7698" lon="6.1972">
        <ele>1090.75</ele>
        <time>2013-10-27T11:26:59Z</time>
      </trkpt>
      <trkpt lat="46.76979" lon="6.19722">
        <ele>1090.75</ele>
        <time>2013-10-27T11:27:00Z</time>
      </trkpt>
      <trkpt lat="46.76979" lon="6.19725">
        <ele>1091.23</ele>
        <time>2013-10-27T11:27:01Z</time>
      </trkpt>
      <trkpt lat="46.76973" lon="6.19752">
        <ele>1092.2</ele>
        <time>2013-10-27T11:27:13Z</time>
      </trkpt>
      <trkpt lat="46.76969" lon="6.19761">
        <ele>1092.2</ele>
        <time>2013-10-27T11:27:20Z</time>
      </trkpt>
      <trkpt lat="46.76967" lon="6.1977">
        <ele>1091.71</ele>
        <time>2013-10-27T11:27:24Z</time>
      </trkpt>
      <trkpt lat="46.76967" lon="6.19772">
        <ele>1092.2</ele>
        <time>2013-10-27T11:27:25Z</time>
      </trkpt>
      <trkpt lat="46.76967" lon="6.19774">
        <ele>1092.2</ele>
        <time>2013-10-27T11:27:26Z</time>
      </trkpt>
      <trkpt lat="46.76955" lon="6.19798">
        <ele>1093.16</ele>
        <time>2013-10-27T11:27:40Z</time>
      </trkpt>
      <trkpt lat="46.76947" lon="6.19815">
        <ele>1094.12</ele>
        <time>2013-10-27T11:27:53Z</time>
      </trkpt>
      <trkpt lat="46.76946" lon="6.19817">
        <ele>1094.12</ele>
        <time>2013-10-27T11:27:54Z</time>
      </trkpt>
      <trkpt lat="46.76944" lon="6.19818">
        <ele>1094.12</ele>
        <time>2013-10-27T11:27:55Z</time>
      </trkpt>
      <trkpt lat="46.76943" lon="6.19819">
        <ele>1094.6</ele>
        <time>2013-10-27T11:27:56Z</time>
      </trkpt>
      <trkpt lat="46.76942" lon="6.1982">
        <ele>1094.6</ele>
        <time>2013-10-27T11:27:57Z</time>
      </trkpt>
      <trkpt lat="46.76941" lon="6.19821">
        <ele>1094.12</ele>
        <time>2013-10-27T11:27:58Z</time>
      </trkpt>
      <trkpt lat="46.7694" lon="6.19823">
        <ele>1093.64</ele>
        <time>2013-10-27T11:27:59Z</time>
      </trkpt>
      <trkpt lat="46.76939" lon="6.19824">
        <ele>1093.64</ele>
        <time>2013-10-27T11:28:00Z</time>
      </trkpt>
      <trkpt lat="46.76938" lon="6.19827">
        <ele>1094.6</ele>
        <time>2013-10-27T11:28:01Z</time>
      </trkpt>
      <trkpt lat="46.76938" lon="6.19829">
        <ele>1094.6</ele>
        <time>2013-10-27T11:28:02Z</time>
      </trkpt>
      <trkpt lat="46.76931" lon="6.19841">
        <ele>1095.08</ele>
        <time>2013-10-27T11:28:09Z</time>
      </trkpt>
      <trkpt lat="46.7693" lon="6.19843">
        <ele>1095.56</ele>
        <time>2013-10-27T11:28:10Z</time>
      </trkpt>
      <trkpt lat="46.76928" lon="6.19844">
        <ele>1096.04</ele>
        <time>2013-10-27T11:28:11Z</time>
      </trkpt>
      <trkpt lat="46.76927" lon="6.19847">
        <ele>1096.52</ele>
        <time>2013-10-27T11:28:12Z</time>
      </trkpt>
      <trkpt lat="46.76926" lon="6.1985">
        <ele>1097</ele>
        <time>2013-10-27T11:28:13Z</time>
      </trkpt>
      <trkpt lat="46.76925" lon="6.19851">
        <ele>1096.52</ele>
        <time>2013-10-27T11:28:14Z</time>
      </trkpt>
      <trkpt lat="46.76923" lon="6.19853">
        <ele>1097.48</ele>
        <time>2013-10-27T11:28:15Z</time>
      </trkpt>
      <trkpt lat="46.76921" lon="6.19855">
        <ele>1097.96</ele>
        <time>2013-10-27T11:28:16Z</time>
      </trkpt>
      <trkpt lat="46.7692" lon="6.19858">
        <ele>1097.96</ele>
        <time>2013-10-27T11:28:17Z</time>
      </trkpt>
      <trkpt lat="46.76919" lon="6.1986">
        <ele>1098.92</ele>
        <time>2013-10-27T11:28:18Z</time>
      </trkpt>
      <trkpt lat="46.76918" lon="6.19863">
        <ele>1098.44</ele>
        <time>2013-10-27T11:28:19Z</time>
      </trkpt>
      <trkpt lat="46.76917" lon="6.19867">
        <ele>1099.89</ele>
        <time>2013-10-27T11:28:21Z</time>
      </trkpt>
      <trkpt lat="46.76916" lon="6.19869">
        <ele>1099.89</ele>
        <time>2013-10-27T11:28:22Z</time>
      </trkpt>
      <trkpt lat="46.7691" lon="6.19876">
        <ele>1100.37</ele>
        <time>2013-10-27T11:28:25Z</time>
      </trkpt>
      <trkpt lat="46.76908" lon="6.19878">
        <ele>1100.37</ele>
        <time>2013-10-27T11:28:26Z</time>
      </trkpt>
      <trkpt lat="46.76907" lon="6.19881">
        <ele>1101.33</ele>
        <time>2013-10-27T11:28:27Z</time>
      </trkpt>
      <trkpt lat="46.76904" lon="6.19883">
        <ele>1100.85</ele>
        <time>2013-10-27T11:28:28Z</time>
      </trkpt>
      <trkpt lat="46.76902" lon="6.19885">
        <ele>1101.33</ele>
        <time>2013-10-27T11:28:29Z</time>
      </trkpt>
      <trkpt lat="46.76901" lon="6.19887">
        <ele>1101.81</ele>
        <time>2013-10-27T11:28:30Z</time>
      </trkpt>
      <trkpt lat="46.769" lon="6.19889">
        <ele>1101.81</ele>
        <time>2013-10-27T11:28:31Z</time>
      </trkpt>
      <trkpt lat="46.76897" lon="6.19892">
        <ele>1101.81</ele>
        <time>2013-10-27T11:28:34Z</time>
      </trkpt>
      <trkpt lat="46.76896" lon="6.19894">
        <ele>1100.85</ele>
        <time>2013-10-27T11:28:35Z</time>
      </trkpt>
      <trkpt lat="46.76889" lon="6.19909">
        <ele>1102.29</ele>
        <time>2013-10-27T11:28:45Z</time>
      </trkpt>
      <trkpt lat="46.76888" lon="6.19911">
        <ele>1101.33</ele>
        <time>2013-10-27T11:28:46Z</time>
      </trkpt>
      <trkpt lat="46.76883" lon="6.19917">
        <ele>1102.77</ele>
        <time>2013-10-27T11:28:51Z</time>
      </trkpt>
      <trkpt lat="46.76882" lon="6.19918">
        <ele>1102.77</ele>
        <time>2013-10-27T11:28:52Z</time>
      </trkpt>
      <trkpt lat="46.76881" lon="6.1992">
        <ele>1102.29</ele>
        <time>2013-10-27T11:28:53Z</time>
      </trkpt>
      <trkpt lat="46.7688" lon="6.19921">
        <ele>1103.25</ele>
        <time>2013-10-27T11:28:54Z</time>
      </trkpt>
      <trkpt lat="46.76879" lon="6.19922">
        <ele>1102.77</ele>
        <time>2013-10-27T11:28:55Z</time>
      </trkpt>
      <trkpt lat="46.76878" lon="6.19924">
        <ele>1102.77</ele>
        <time>2013-10-27T11:28:56Z</time>
      </trkpt>
      <trkpt lat="46.76878" lon="6.19926">
        <ele>1102.29</ele>
        <time>2013-10-27T11:28:57Z</time>
      </trkpt>
      <trkpt lat="46.76877" lon="6.19928">
        <ele>1101.81</ele>
        <time>2013-10-27T11:28:58Z</time>
      </trkpt>
      <trkpt lat="46.76875" lon="6.1993">
        <ele>1102.29</ele>
        <time>2013-10-27T11:28:59Z</time>
      </trkpt>
      <trkpt lat="46.76874" lon="6.19931">
        <ele>1103.25</ele>
        <time>2013-10-27T11:29:00Z</time>
      </trkpt>
      <trkpt lat="46.76873" lon="6.19933">
        <ele>1104.21</ele>
        <time>2013-10-27T11:29:01Z</time>
      </trkpt>
      <trkpt lat="46.76859" lon="6.19954">
        <ele>1104.21</ele>
        <time>2013-10-27T11:29:15Z</time>
      </trkpt>
      <trkpt lat="46.76859" lon="6.19955">
        <ele>1104.21</ele>
        <time>2013-10-27T11:29:16Z</time>
      </trkpt>
      <trkpt lat="46.76858" lon="6.19957">
        <ele>1105.17</ele>
        <time>2013-10-27T11:29:17Z</time>
      </trkpt>
      <trkpt lat="46.76858" lon="6.19958">
        <ele>1103.73</ele>
        <time>2013-10-27T11:29:18Z</time>
      </trkpt>
      <trkpt lat="46.76856" lon="6.1996">
        <ele>1104.21</ele>
        <time>2013-10-27T11:29:19Z</time>
      </trkpt>
      <trkpt lat="46.76855" lon="6.19962">
        <ele>1103.25</ele>
        <time>2013-10-27T11:29:20Z</time>
      </trkpt>
      <trkpt lat="46.76851" lon="6.19965">
        <ele>1103.73</ele>
        <time>2013-10-27T11:29:22Z</time>
      </trkpt>
      <trkpt lat="46.7685" lon="6.19967">
        <ele>1103.25</ele>
        <time>2013-10-27T11:29:23Z</time>
      </trkpt>
      <trkpt lat="46.7685" lon="6.19969">
        <ele>1103.25</ele>
        <time>2013-10-27T11:29:24Z</time>
      </trkpt>
      <trkpt lat="46.76848" lon="6.19971">
        <ele>1103.25</ele>
        <time>2013-10-27T11:29:25Z</time>
      </trkpt>
      <trkpt lat="46.76847" lon="6.19974">
        <ele>1104.21</ele>
        <time>2013-10-27T11:29:26Z</time>
      </trkpt>
      <trkpt lat="46.76842" lon="6.1998">
        <ele>1104.21</ele>
        <time>2013-10-27T11:29:30Z</time>
      </trkpt>
      <trkpt lat="46.7684" lon="6.19982">
        <ele>1104.21</ele>
        <time>2013-10-27T11:29:31Z</time>
      </trkpt>
      <trkpt lat="46.76839" lon="6.19983">
        <ele>1104.69</ele>
        <time>2013-10-27T11:29:32Z</time>
      </trkpt>
      <trkpt lat="46.76838" lon="6.19985">
        <ele>1103.25</ele>
        <time>2013-10-27T11:29:33Z</time>
      </trkpt>
      <trkpt lat="46.76836" lon="6.19987">
        <ele>1101.81</ele>
        <time>2013-10-27T11:29:34Z</time>
      </trkpt>
      <trkpt lat="46.76834" lon="6.19989">
        <ele>1096.52</ele>
        <time>2013-10-27T11:29:35Z</time>
      </trkpt>
      <trkpt lat="46.76832" lon="6.19991">
        <ele>1102.29</ele>
        <time>2013-10-27T11:29:36Z</time>
      </trkpt>
      <trkpt lat="46.76827" lon="6.19997">
        <ele>1102.77</ele>
        <time>2013-10-27T11:29:38Z</time>
      </trkpt>
      <trkpt lat="46.76816" lon="6.2001">
        <ele>1101.33</ele>
        <time>2013-10-27T11:29:41Z</time>
      </trkpt>
      <trkpt lat="46.76791" lon="6.20043">
        <ele>1101.81</ele>
        <time>2013-10-27T11:29:50Z</time>
      </trkpt>
      <trkpt lat="46.7679" lon="6.20047">
        <ele>1101.33</ele>
        <time>2013-10-27T11:29:51Z</time>
      </trkpt>
      <trkpt lat="46.76787" lon="6.20051">
        <ele>1101.81</ele>
        <time>2013-10-27T11:29:52Z</time>
      </trkpt>
      <trkpt lat="46.76785" lon="6.20056">
        <ele>1100.37</ele>
        <time>2013-10-27T11:29:53Z</time>
      </trkpt>
      <trkpt lat="46.76782" lon="6.20061">
        <ele>1101.81</ele>
        <time>2013-10-27T11:29:54Z</time>
      </trkpt>
      <trkpt lat="46.7678" lon="6.20066">
        <ele>1100.37</ele>
        <time>2013-10-27T11:29:55Z</time>
      </trkpt>
      <trkpt lat="46.76773" lon="6.20076">
        <ele>1101.81</ele>
        <time>2013-10-27T11:29:57Z</time>
      </trkpt>
      <trkpt lat="46.7677" lon="6.20081">
        <ele>1100.37</ele>
        <time>2013-10-27T11:29:58Z</time>
      </trkpt>
      <trkpt lat="46.76756" lon="6.2011">
        <ele>1100.85</ele>
        <time>2013-10-27T11:30:05Z</time>
      </trkpt>
      <trkpt lat="46.76754" lon="6.20113">
        <ele>1100.85</ele>
        <time>2013-10-27T11:30:06Z</time>
      </trkpt>
      <trkpt lat="46.76752" lon="6.20116">
        <ele>1101.33</ele>
        <time>2013-10-27T11:30:07Z</time>
      </trkpt>
      <trkpt lat="46.76729" lon="6.20144">
        <ele>1101.81</ele>
        <time>2013-10-27T11:30:21Z</time>
      </trkpt>
      <trkpt lat="46.76725" lon="6.20152">
        <ele>1101.81</ele>
        <time>2013-10-27T11:30:34Z</time>
      </trkpt>
      <trkpt lat="46.76725" lon="6.20152">
        <ele>1102.29</ele>
        <time>2013-10-27T11:30:47Z</time>
      </trkpt>
      <trkpt lat="46.76723" lon="6.20161">
        <ele>1101.81</ele>
        <time>2013-10-27T11:30:52Z</time>
      </trkpt>
      <trkpt lat="46.76708" lon="6.20192">
        <ele>1103.25</ele>
        <time>2013-10-27T11:31:03Z</time>
      </trkpt>
      <trkpt lat="46.76695" lon="6.20223">
        <ele>1105.65</ele>
        <time>2013-10-27T11:31:14Z</time>
      </trkpt>
      <trkpt lat="46.76693" lon="6.20226">
        <ele>1105.17</ele>
        <time>2013-10-27T11:31:15Z</time>
      </trkpt>
      <trkpt lat="46.76683" lon="6.20245">
        <ele>1107.58</ele>
        <time>2013-10-27T11:31:23Z</time>
      </trkpt>
      <trkpt lat="46.76679" lon="6.20254">
        <ele>1107.58</ele>
        <time>2013-10-27T11:31:26Z</time>
      </trkpt>
      <trkpt lat="46.76679" lon="6.20258">
        <ele>1107.58</ele>
        <time>2013-10-27T11:31:27Z</time>
      </trkpt>
      <trkpt lat="46.76679" lon="6.20261">
        <ele>1107.58</ele>
        <time>2013-10-27T11:31:28Z</time>
      </trkpt>
      <trkpt lat="46.76678" lon="6.20267">
        <ele>1109.02</ele>
        <time>2013-10-27T11:31:30Z</time>
      </trkpt>
      <trkpt lat="46.76669" lon="6.20288">
        <ele>1109.02</ele>
        <time>2013-10-27T11:31:38Z</time>
      </trkpt>
      <trkpt lat="46.76667" lon="6.2029">
        <ele>1109.02</ele>
        <time>2013-10-27T11:31:39Z</time>
      </trkpt>
      <trkpt lat="46.76657" lon="6.20299">
        <ele>1109.02</ele>
        <time>2013-10-27T11:31:45Z</time>
      </trkpt>
      <trkpt lat="46.76654" lon="6.20305">
        <ele>1109.98</ele>
        <time>2013-10-27T11:31:48Z</time>
      </trkpt>
      <trkpt lat="46.76645" lon="6.20317">
        <ele>1109.98</ele>
        <time>2013-10-27T11:31:55Z</time>
      </trkpt>
      <trkpt lat="46.76634" lon="6.20334">
        <ele>1110.46</ele>
        <time>2013-10-27T11:32:03Z</time>
      </trkpt>
      <trkpt lat="46.7663" lon="6.20348">
        <ele>1110.46</ele>
        <time>2013-10-27T11:32:09Z</time>
      </trkpt>
      <trkpt lat="46.76623" lon="6.2036">
        <ele>1111.42</ele>
        <time>2013-10-27T11:32:15Z</time>
      </trkpt>
      <trkpt lat="46.76613" lon="6.20376">
        <ele>1109.5</ele>
        <time>2013-10-27T11:32:24Z</time>
      </trkpt>
      <trkpt lat="46.76613" lon="6.20384">
        <ele>1108.06</ele>
        <time>2013-10-27T11:32:28Z</time>
      </trkpt>
      <trkpt lat="46.76615" lon="6.20389">
        <ele>1108.06</ele>
        <time>2013-10-27T11:32:30Z</time>
      </trkpt>
      <trkpt lat="46.76626" lon="6.20423">
        <ele>1106.61</ele>
        <time>2013-10-27T11:32:41Z</time>
      </trkpt>
      <trkpt lat="46.76628" lon="6.20431">
        <ele>1106.13</ele>
        <time>2013-10-27T11:32:50Z</time>
      </trkpt>
      <trkpt lat="46.76628" lon="6.20431">
        <ele>1105.65</ele>
        <time>2013-10-27T11:33:02Z</time>
      </trkpt>
      <trkpt lat="46.76628" lon="6.20431">
        <ele>1106.13</ele>
        <time>2013-10-27T11:33:12Z</time>
      </trkpt>
      <trkpt lat="46.7663" lon="6.20435">
        <ele>1105.65</ele>
        <time>2013-10-27T11:33:16Z</time>
      </trkpt>
      <trkpt lat="46.76633" lon="6.20442">
        <ele>1105.65</ele>
        <time>2013-10-27T11:33:28Z</time>
      </trkpt>
      <trkpt lat="46.76638" lon="6.20449">
        <ele>1105.65</ele>
        <time>2013-10-27T11:33:41Z</time>
      </trkpt>
      <trkpt lat="46.76638" lon="6.20449">
        <ele>1105.17</ele>
        <time>2013-10-27T11:34:43Z</time>
      </trkpt>
      <trkpt lat="46.76638" lon="6.20449">
        <ele>1105.17</ele>
        <time>2013-10-27T11:34:58Z</time>
      </trkpt>
      <trkpt lat="46.76638" lon="6.20449">
        <ele>1104.69</ele>
        <time>2013-10-27T11:35:24Z</time>
      </trkpt>
      <trkpt lat="46.76641" lon="6.20452">
        <ele>1105.17</ele>
        <time>2013-10-27T11:37:20Z</time>
      </trkpt>
      <trkpt lat="46.76642" lon="6.20455">
        <ele>1103.73</ele>
        <time>2013-10-27T11:37:29Z</time>
      </trkpt>
      <trkpt lat="46.76649" lon="6.20466">
        <ele>1103.25</ele>
        <time>2013-10-27T11:37:34Z</time>
      </trkpt>
      <trkpt lat="46.7666" lon="6.20484">
        <ele>1101.81</ele>
        <time>2013-10-27T11:37:45Z</time>
      </trkpt>
      <trkpt lat="46.76661" lon="6.20494">
        <ele>1101.33</ele>
        <time>2013-10-27T11:37:50Z</time>
      </trkpt>
      <trkpt lat="46.76666" lon="6.20512">
        <ele>1099.4</ele>
        <time>2013-10-27T11:37:55Z</time>
      </trkpt>
      <trkpt lat="46.76673" lon="6.20546">
        <ele>1098.92</ele>
        <time>2013-10-27T11:38:04Z</time>
      </trkpt>
      <trkpt lat="46.76676" lon="6.20554">
        <ele>1098.92</ele>
        <time>2013-10-27T11:38:07Z</time>
      </trkpt>
      <trkpt lat="46.76687" lon="6.20578">
        <ele>1098.44</ele>
        <time>2013-10-27T11:38:17Z</time>
      </trkpt>
      <trkpt lat="46.76686" lon="6.2061">
        <ele>1097.96</ele>
        <time>2013-10-27T11:38:26Z</time>
      </trkpt>
      <trkpt lat="46.76687" lon="6.20634">
        <ele>1096.04</ele>
        <time>2013-10-27T11:38:33Z</time>
      </trkpt>
      <trkpt lat="46.76692" lon="6.20653">
        <ele>1096.04</ele>
        <time>2013-10-27T11:38:41Z</time>
      </trkpt>
      <trkpt lat="46.76696" lon="6.20663">
        <ele>1094.12</ele>
        <time>2013-10-27T11:38:45Z</time>
      </trkpt>
      <trkpt lat="46.76699" lon="6.20665">
        <ele>1093.64</ele>
        <time>2013-10-27T11:39:00Z</time>
      </trkpt>
      <trkpt lat="46.76699" lon="6.20665">
        <ele>1094.6</ele>
        <time>2013-10-27T11:39:20Z</time>
      </trkpt>
      <trkpt lat="46.76699" lon="6.20665">
        <ele>1092.68</ele>
        <time>2013-10-27T11:39:25Z</time>
      </trkpt>
      <trkpt lat="46.767" lon="6.20667">
        <ele>1093.64</ele>
        <time>2013-10-27T11:40:09Z</time>
      </trkpt>
      <trkpt lat="46.76708" lon="6.20679">
        <ele>1093.16</ele>
        <time>2013-10-27T11:40:13Z</time>
      </trkpt>
      <trkpt lat="46.76725" lon="6.20701">
        <ele>1091.71</ele>
        <time>2013-10-27T11:40:21Z</time>
      </trkpt>
      <trkpt lat="46.76727" lon="6.20706">
        <ele>1090.75</ele>
        <time>2013-10-27T11:40:23Z</time>
      </trkpt>
      <trkpt lat="46.76727" lon="6.20709">
        <ele>1090.27</ele>
        <time>2013-10-27T11:40:27Z</time>
      </trkpt>
      <trkpt lat="46.76735" lon="6.20726">
        <ele>1089.79</ele>
        <time>2013-10-27T11:40:33Z</time>
      </trkpt>
      <trkpt lat="46.76735" lon="6.20739">
        <ele>1089.79</ele>
        <time>2013-10-27T11:40:37Z</time>
      </trkpt>
      <trkpt lat="46.76733" lon="6.20756">
        <ele>1089.31</ele>
        <time>2013-10-27T11:40:44Z</time>
      </trkpt>
      <trkpt lat="46.76734" lon="6.20767">
        <ele>1087.39</ele>
        <time>2013-10-27T11:40:56Z</time>
      </trkpt>
      <trkpt lat="46.76735" lon="6.2077">
        <ele>1087.39</ele>
        <time>2013-10-27T11:41:26Z</time>
      </trkpt>
      <trkpt lat="46.76738" lon="6.20773">
        <ele>1087.39</ele>
        <time>2013-10-27T11:42:09Z</time>
      </trkpt>
      <trkpt lat="46.76742" lon="6.20777">
        <ele>1088.35</ele>
        <time>2013-10-27T11:42:15Z</time>
      </trkpt>
      <trkpt lat="46.7675" lon="6.20778">
        <ele>1087.87</ele>
        <time>2013-10-27T11:42:31Z</time>
      </trkpt>
      <trkpt lat="46.76753" lon="6.20778">
        <ele>1087.39</ele>
        <time>2013-10-27T11:42:46Z</time>
      </trkpt>
      <trkpt lat="46.76755" lon="6.20778">
        <ele>1087.87</ele>
        <time>2013-10-27T11:42:48Z</time>
      </trkpt>
      <trkpt lat="46.7676" lon="6.20784">
        <ele>1086.43</ele>
        <time>2013-10-27T11:42:52Z</time>
      </trkpt>
      <trkpt lat="46.76776" lon="6.20819">
        <ele>1085.47</ele>
        <time>2013-10-27T11:43:03Z</time>
      </trkpt>
      <trkpt lat="46.76781" lon="6.20828">
        <ele>1083.54</ele>
        <time>2013-10-27T11:43:06Z</time>
      </trkpt>
      <trkpt lat="46.76782" lon="6.20831">
        <ele>1083.54</ele>
        <time>2013-10-27T11:43:07Z</time>
      </trkpt>
      <trkpt lat="46.76787" lon="6.20839">
        <ele>1082.58</ele>
        <time>2013-10-27T11:43:10Z</time>
      </trkpt>
      <trkpt lat="46.768" lon="6.2085">
        <ele>1081.14</ele>
        <time>2013-10-27T11:43:18Z</time>
      </trkpt>
      <trkpt lat="46.76804" lon="6.20854">
        <ele>1081.14</ele>
        <time>2013-10-27T11:43:21Z</time>
      </trkpt>
      <trkpt lat="46.76813" lon="6.20859">
        <ele>1079.7</ele>
        <time>2013-10-27T11:43:26Z</time>
      </trkpt>
      <trkpt lat="46.76827" lon="6.20864">
        <ele>1078.74</ele>
        <time>2013-10-27T11:43:39Z</time>
      </trkpt>
      <trkpt lat="46.76828" lon="6.20864">
        <ele>1076.33</ele>
        <time>2013-10-27T11:43:43Z</time>
      </trkpt>
      <trkpt lat="46.76833" lon="6.20864">
        <ele>1077.29</ele>
        <time>2013-10-27T11:43:47Z</time>
      </trkpt>
      <trkpt lat="46.76851" lon="6.2087">
        <ele>1076.33</ele>
        <time>2013-10-27T11:43:53Z</time>
      </trkpt>
      <trkpt lat="46.76872" lon="6.20871">
        <ele>1077.29</ele>
        <time>2013-10-27T11:44:05Z</time>
      </trkpt>
      <trkpt lat="46.76895" lon="6.20878">
        <ele>1076.33</ele>
        <time>2013-10-27T11:44:16Z</time>
      </trkpt>
      <trkpt lat="46.76908" lon="6.20879">
        <ele>1075.37</ele>
        <time>2013-10-27T11:44:27Z</time>
      </trkpt>
      <trkpt lat="46.76913" lon="6.20879">
        <ele>1075.37</ele>
        <time>2013-10-27T11:44:37Z</time>
      </trkpt>
      <trkpt lat="46.76918" lon="6.20881">
        <ele>1074.89</ele>
        <time>2013-10-27T11:44:46Z</time>
      </trkpt>
      <trkpt lat="46.76926" lon="6.20887">
        <ele>1074.89</ele>
        <time>2013-10-27T11:44:49Z</time>
      </trkpt>
      <trkpt lat="46.76935" lon="6.20892">
        <ele>1075.37</ele>
        <time>2013-10-27T11:44:55Z</time>
      </trkpt>
      <trkpt lat="46.76941" lon="6.20915">
        <ele>1074.41</ele>
        <time>2013-10-27T11:45:07Z</time>
      </trkpt>
      <trkpt lat="46.76941" lon="6.20917">
        <ele>1074.89</ele>
        <time>2013-10-27T11:45:08Z</time>
      </trkpt>
      <trkpt lat="46.76942" lon="6.20923">
        <ele>1073.93</ele>
        <time>2013-10-27T11:45:11Z</time>
      </trkpt>
      <trkpt lat="46.76943" lon="6.20936">
        <ele>1074.41</ele>
        <time>2013-10-27T11:45:16Z</time>
      </trkpt>
      <trkpt lat="46.76948" lon="6.20956">
        <ele>1072.97</ele>
        <time>2013-10-27T11:45:23Z</time>
      </trkpt>
      <trkpt lat="46.76955" lon="6.2097">
        <ele>1072.01</ele>
        <time>2013-10-27T11:45:30Z</time>
      </trkpt>
      <trkpt lat="46.76963" lon="6.20974">
        <ele>1071.05</ele>
        <time>2013-10-27T11:45:42Z</time>
      </trkpt>
      <trkpt lat="46.76963" lon="6.20974">
        <ele>1072.97</ele>
        <time>2013-10-27T11:46:36Z</time>
      </trkpt>
      <trkpt lat="46.76969" lon="6.20976">
        <ele>1070.08</ele>
        <time>2013-10-27T11:46:59Z</time>
      </trkpt>
      <trkpt lat="46.76984" lon="6.2098">
        <ele>1070.08</ele>
        <time>2013-10-27T11:47:09Z</time>
      </trkpt>
      <trkpt lat="46.76992" lon="6.20984">
        <ele>1068.64</ele>
        <time>2013-10-27T11:47:15Z</time>
      </trkpt>
      <trkpt lat="46.7701" lon="6.20987">
        <ele>1065.76</ele>
        <time>2013-10-27T11:47:25Z</time>
      </trkpt>
      <trkpt lat="46.7701" lon="6.20987">
        <ele>1066.24</ele>
        <time>2013-10-27T11:47:27Z</time>
      </trkpt>
      <trkpt lat="46.77018" lon="6.20988">
        <ele>1065.76</ele>
        <time>2013-10-27T11:47:32Z</time>
      </trkpt>
      <trkpt lat="46.77026" lon="6.20991">
        <ele>1065.28</ele>
        <time>2013-10-27T11:47:36Z</time>
      </trkpt>
      <trkpt lat="46.77045" lon="6.2099">
        <ele>1063.36</ele>
        <time>2013-10-27T11:47:44Z</time>
      </trkpt>
      <trkpt lat="46.77065" lon="6.20992">
        <ele>1063.84</ele>
        <time>2013-10-27T11:47:55Z</time>
      </trkpt>
      <trkpt lat="46.7707" lon="6.20994">
        <ele>1062.39</ele>
        <time>2013-10-27T11:48:04Z</time>
      </trkpt>
      <trkpt lat="46.77073" lon="6.20993">
        <ele>1062.39</ele>
        <time>2013-10-27T11:48:07Z</time>
      </trkpt>
      <trkpt lat="46.77076" lon="6.20991">
        <ele>1062.39</ele>
        <time>2013-10-27T11:48:21Z</time>
      </trkpt>
      <trkpt lat="46.77078" lon="6.20989">
        <ele>1062.39</ele>
        <time>2013-10-27T11:48:29Z</time>
      </trkpt>
      <trkpt lat="46.77083" lon="6.20984">
        <ele>1061.43</ele>
        <time>2013-10-27T11:48:38Z</time>
      </trkpt>
      <trkpt lat="46.77092" lon="6.20988">
        <ele>1059.99</ele>
        <time>2013-10-27T11:48:49Z</time>
      </trkpt>
      <trkpt lat="46.77098" lon="6.20997">
        <ele>1060.47</ele>
        <time>2013-10-27T11:48:55Z</time>
      </trkpt>
      <trkpt lat="46.771" lon="6.21003">
        <ele>1059.03</ele>
        <time>2013-10-27T11:48:58Z</time>
      </trkpt>
      <trkpt lat="46.77107" lon="6.21016">
        <ele>1057.59</ele>
        <time>2013-10-27T11:49:02Z</time>
      </trkpt>
      <trkpt lat="46.77118" lon="6.21024">
        <ele>1055.18</ele>
        <time>2013-10-27T11:49:09Z</time>
      </trkpt>
      <trkpt lat="46.77122" lon="6.21025">
        <ele>1054.7</ele>
        <time>2013-10-27T11:49:12Z</time>
      </trkpt>
      <trkpt lat="46.77135" lon="6.21023">
        <ele>1053.26</ele>
        <time>2013-10-27T11:49:23Z</time>
      </trkpt>
      <trkpt lat="46.77146" lon="6.21018">
        <ele>1050.38</ele>
        <time>2013-10-27T11:49:27Z</time>
      </trkpt>
      <trkpt lat="46.77149" lon="6.21016">
        <ele>1049.42</ele>
        <time>2013-10-27T11:49:29Z</time>
      </trkpt>
      <trkpt lat="46.77154" lon="6.21014">
        <ele>1048.94</ele>
        <time>2013-10-27T11:49:32Z</time>
      </trkpt>
      <trkpt lat="46.77174" lon="6.20998">
        <ele>1046.05</ele>
        <time>2013-10-27T11:49:44Z</time>
      </trkpt>
      <trkpt lat="46.77183" lon="6.20989">
        <ele>1046.05</ele>
        <time>2013-10-27T11:49:53Z</time>
      </trkpt>
      <trkpt lat="46.77188" lon="6.20984">
        <ele>1044.61</ele>
        <time>2013-10-27T11:50:01Z</time>
      </trkpt>
      <trkpt lat="46.77189" lon="6.2098">
        <ele>1042.69</ele>
        <time>2013-10-27T11:50:06Z</time>
      </trkpt>
      <trkpt lat="46.77194" lon="6.20979">
        <ele>1041.73</ele>
        <time>2013-10-27T11:50:11Z</time>
      </trkpt>
      <trkpt lat="46.77197" lon="6.2098">
        <ele>1041.25</ele>
        <time>2013-10-27T11:50:13Z</time>
      </trkpt>
      <trkpt lat="46.77213" lon="6.20993">
        <ele>1038.84</ele>
        <time>2013-10-27T11:50:25Z</time>
      </trkpt>
      <trkpt lat="46.77219" lon="6.21003">
        <ele>1037.88</ele>
        <time>2013-10-27T11:50:39Z</time>
      </trkpt>
      <trkpt lat="46.7722" lon="6.21003">
        <ele>1038.36</ele>
        <time>2013-10-27T11:51:18Z</time>
      </trkpt>
      <trkpt lat="46.7722" lon="6.21003">
        <ele>1039.32</ele>
        <time>2013-10-27T11:51:37Z</time>
      </trkpt>
      <trkpt lat="46.77221" lon="6.21006">
        <ele>1037.88</ele>
        <time>2013-10-27T11:52:39Z</time>
      </trkpt>
      <trkpt lat="46.77222" lon="6.21007">
        <ele>1037.88</ele>
        <time>2013-10-27T11:52:42Z</time>
      </trkpt>
      <trkpt lat="46.77228" lon="6.21009">
        <ele>1035.48</ele>
        <time>2013-10-27T11:52:49Z</time>
      </trkpt>
      <trkpt lat="46.77231" lon="6.21013">
        <ele>1034.04</ele>
        <time>2013-10-27T11:52:53Z</time>
      </trkpt>
      <trkpt lat="46.77234" lon="6.21019">
        <ele>1034.04</ele>
        <time>2013-10-27T11:52:59Z</time>
      </trkpt>
      <trkpt lat="46.77243" lon="6.21031">
        <ele>1033.07</ele>
        <time>2013-10-27T11:53:09Z</time>
      </trkpt>
      <trkpt lat="46.77243" lon="6.21031">
        <ele>1033.55</ele>
        <time>2013-10-27T11:53:13Z</time>
      </trkpt>
      <trkpt lat="46.77246" lon="6.21036">
        <ele>1032.11</ele>
        <time>2013-10-27T11:53:29Z</time>
      </trkpt>
      <trkpt lat="46.77246" lon="6.21036">
        <ele>1032.59</ele>
        <time>2013-10-27T11:53:35Z</time>
      </trkpt>
      <trkpt lat="46.77245" lon="6.21038">
        <ele>1032.59</ele>
        <time>2013-10-27T11:53:37Z</time>
      </trkpt>
      <trkpt lat="46.77248" lon="6.21049">
        <ele>1032.11</ele>
        <time>2013-10-27T11:53:41Z</time>
      </trkpt>
      <trkpt lat="46.77252" lon="6.21066">
        <ele>1031.63</ele>
        <time>2013-10-27T11:53:45Z</time>
      </trkpt>
      <trkpt lat="46.77262" lon="6.21093">
        <ele>1031.15</ele>
        <time>2013-10-27T11:53:55Z</time>
      </trkpt>
      <trkpt lat="46.77276" lon="6.21092">
        <ele>1030.19</ele>
        <time>2013-10-27T11:54:04Z</time>
      </trkpt>
      <trkpt lat="46.7729" lon="6.21082">
        <ele>1029.71</ele>
        <time>2013-10-27T11:54:13Z</time>
      </trkpt>
      <trkpt lat="46.77311" lon="6.21076">
        <ele>1031.15</ele>
        <time>2013-10-27T11:54:24Z</time>
      </trkpt>
      <trkpt lat="46.77314" lon="6.21073">
        <ele>1032.59</ele>
        <time>2013-10-27T11:54:27Z</time>
      </trkpt>
      <trkpt lat="46.77317" lon="6.21072">
        <ele>1033.07</ele>
        <time>2013-10-27T11:54:30Z</time>
      </trkpt>
      <trkpt lat="46.7733" lon="6.21061">
        <ele>1035.48</ele>
        <time>2013-10-27T11:54:39Z</time>
      </trkpt>
      <trkpt lat="46.77341" lon="6.21055">
        <ele>1036.92</ele>
        <time>2013-10-27T11:54:52Z</time>
      </trkpt>
      <trkpt lat="46.77348" lon="6.21048">
        <ele>1036.44</ele>
        <time>2013-10-27T11:55:01Z</time>
      </trkpt>
      <trkpt lat="46.77364" lon="6.21039">
        <ele>1036.92</ele>
        <time>2013-10-27T11:55:11Z</time>
      </trkpt>
      <trkpt lat="46.77378" lon="6.21033">
        <ele>1036.44</ele>
        <time>2013-10-27T11:55:21Z</time>
      </trkpt>
      <trkpt lat="46.7739" lon="6.21026">
        <ele>1036.44</ele>
        <time>2013-10-27T11:55:29Z</time>
      </trkpt>
      <trkpt lat="46.77403" lon="6.21016">
        <ele>1034.52</ele>
        <time>2013-10-27T11:55:35Z</time>
      </trkpt>
      <trkpt lat="46.77424" lon="6.20995">
        <ele>1034.52</ele>
        <time>2013-10-27T11:55:45Z</time>
      </trkpt>
      <trkpt lat="46.77428" lon="6.20993">
        <ele>1034.04</ele>
        <time>2013-10-27T11:55:47Z</time>
      </trkpt>
      <trkpt lat="46.77439" lon="6.20983">
        <ele>1034.04</ele>
        <time>2013-10-27T11:55:54Z</time>
      </trkpt>
      <trkpt lat="46.77457" lon="6.2097">
        <ele>1033.55</ele>
        <time>2013-10-27T11:56:05Z</time>
      </trkpt>
      <trkpt lat="46.77459" lon="6.20969">
        <ele>1033.55</ele>
        <time>2013-10-27T11:56:07Z</time>
      </trkpt>
      <trkpt lat="46.77471" lon="6.20949">
        <ele>1032.11</ele>
        <time>2013-10-27T11:56:16Z</time>
      </trkpt>
      <trkpt lat="46.77473" lon="6.20942">
        <ele>1030.19</ele>
        <time>2013-10-27T11:56:19Z</time>
      </trkpt>
      <trkpt lat="46.77481" lon="6.20931">
        <ele>1029.71</ele>
        <time>2013-10-27T11:56:30Z</time>
      </trkpt>
      <trkpt lat="46.77481" lon="6.20931">
        <ele>1031.15</ele>
        <time>2013-10-27T11:56:33Z</time>
      </trkpt>
      <trkpt lat="46.77482" lon="6.20929">
        <ele>1031.63</ele>
        <time>2013-10-27T11:56:42Z</time>
      </trkpt>
      <trkpt lat="46.77486" lon="6.20927">
        <ele>1031.15</ele>
        <time>2013-10-27T11:56:44Z</time>
      </trkpt>
      <trkpt lat="46.77494" lon="6.20923">
        <ele>1030.67</ele>
        <time>2013-10-27T11:56:50Z</time>
      </trkpt>
      <trkpt lat="46.77506" lon="6.20926">
        <ele>1029.71</ele>
        <time>2013-10-27T11:56:55Z</time>
      </trkpt>
      <trkpt lat="46.77517" lon="6.20926">
        <ele>1028.27</ele>
        <time>2013-10-27T11:57:01Z</time>
      </trkpt>
      <trkpt lat="46.77519" lon="6.20926">
        <ele>1028.27</ele>
        <time>2013-10-27T11:57:02Z</time>
      </trkpt>
      <trkpt lat="46.77541" lon="6.20927">
        <ele>1025.86</ele>
        <time>2013-10-27T11:57:10Z</time>
      </trkpt>
      <trkpt lat="46.77553" lon="6.20932">
        <ele>1023.94</ele>
        <time>2013-10-27T11:57:15Z</time>
      </trkpt>
      <trkpt lat="46.77557" lon="6.20933">
        <ele>1023.94</ele>
        <time>2013-10-27T11:57:17Z</time>
      </trkpt>
      <trkpt lat="46.77565" lon="6.20936">
        <ele>1023.94</ele>
        <time>2013-10-27T11:57:23Z</time>
      </trkpt>
      <trkpt lat="46.77581" lon="6.20931">
        <ele>1022.02</ele>
        <time>2013-10-27T11:57:33Z</time>
      </trkpt>
      <trkpt lat="46.77583" lon="6.20929">
        <ele>1022.02</ele>
        <time>2013-10-27T11:57:34Z</time>
      </trkpt>
      <trkpt lat="46.77595" lon="6.20921">
        <ele>1020.58</ele>
        <time>2013-10-27T11:57:41Z</time>
      </trkpt>
      <trkpt lat="46.7761" lon="6.20902">
        <ele>1015.77</ele>
        <time>2013-10-27T11:57:47Z</time>
      </trkpt>
      <trkpt lat="46.77617" lon="6.20892">
        <ele>1015.29</ele>
        <time>2013-10-27T11:57:51Z</time>
      </trkpt>
      <trkpt lat="46.77638" lon="6.20874">
        <ele>1011.93</ele>
        <time>2013-10-27T11:58:01Z</time>
      </trkpt>
      <trkpt lat="46.77646" lon="6.20872">
        <ele>1010.48</ele>
        <time>2013-10-27T11:58:05Z</time>
      </trkpt>
      <trkpt lat="46.77664" lon="6.20848">
        <ele>1007.12</ele>
        <time>2013-10-27T11:58:16Z</time>
      </trkpt>
      <trkpt lat="46.7767" lon="6.20829">
        <ele>1003.75</ele>
        <time>2013-10-27T11:58:24Z</time>
      </trkpt>
      <trkpt lat="46.77677" lon="6.20815">
        <ele>1003.27</ele>
        <time>2013-10-27T11:58:31Z</time>
      </trkpt>
      <trkpt lat="46.77697" lon="6.20794">
        <ele>1002.31</ele>
        <time>2013-10-27T11:58:42Z</time>
      </trkpt>
      <trkpt lat="46.77703" lon="6.20792">
        <ele>1001.35</ele>
        <time>2013-10-27T11:58:46Z</time>
      </trkpt>
      <trkpt lat="46.77728" lon="6.20778">
        <ele>998.95</ele>
        <time>2013-10-27T11:58:59Z</time>
      </trkpt>
      <trkpt lat="46.7773" lon="6.20777">
        <ele>998.95</ele>
        <time>2013-10-27T11:59:00Z</time>
      </trkpt>
      <trkpt lat="46.77748" lon="6.20772">
        <ele>998.47</ele>
        <time>2013-10-27T11:59:10Z</time>
      </trkpt>
      <trkpt lat="46.77768" lon="6.20766">
        <ele>995.58</ele>
        <time>2013-10-27T11:59:19Z</time>
      </trkpt>
      <trkpt lat="46.77781" lon="6.2076">
        <ele>995.1</ele>
        <time>2013-10-27T11:59:31Z</time>
      </trkpt>
      <trkpt lat="46.77804" lon="6.20765">
        <ele>994.14</ele>
        <time>2013-10-27T11:59:43Z</time>
      </trkpt>
      <trkpt lat="46.77808" lon="6.20767">
        <ele>981.16</ele>
        <time>2013-10-27T11:59:46Z</time>
      </trkpt>
      <trkpt lat="46.7781" lon="6.20767">
        <ele>1000.39</ele>
        <time>2013-10-27T11:59:47Z</time>
      </trkpt>
      <trkpt lat="46.77811" lon="6.20768">
        <ele>994.14</ele>
        <time>2013-10-27T11:59:48Z</time>
      </trkpt>
      <trkpt lat="46.77814" lon="6.20769">
        <ele>992.22</ele>
        <time>2013-10-27T11:59:50Z</time>
      </trkpt>
      <trkpt lat="46.77821" lon="6.20775">
        <ele>993.18</ele>
        <time>2013-10-27T11:59:54Z</time>
      </trkpt>
      <trkpt lat="46.77845" lon="6.20795">
        <ele>992.22</ele>
        <time>2013-10-27T12:00:08Z</time>
      </trkpt>
      <trkpt lat="46.77869" lon="6.20812">
        <ele>993.66</ele>
        <time>2013-10-27T12:00:21Z</time>
      </trkpt>
      <trkpt lat="46.77879" lon="6.2082">
        <ele>992.22</ele>
        <time>2013-10-27T12:00:27Z</time>
      </trkpt>
      <trkpt lat="46.77886" lon="6.20823">
        <ele>992.7</ele>
        <time>2013-10-27T12:00:31Z</time>
      </trkpt>
      <trkpt lat="46.77909" lon="6.20833">
        <ele>992.22</ele>
        <time>2013-10-27T12:00:44Z</time>
      </trkpt>
      <trkpt lat="46.77934" lon="6.20822">
        <ele>992.22</ele>
        <time>2013-10-27T12:00:58Z</time>
      </trkpt>
      <trkpt lat="46.77952" lon="6.20809">
        <ele>991.74</ele>
        <time>2013-10-27T12:01:10Z</time>
      </trkpt>
      <trkpt lat="46.77969" lon="6.2081">
        <ele>991.26</ele>
        <time>2013-10-27T12:01:22Z</time>
      </trkpt>
      <trkpt lat="46.77979" lon="6.20806">
        <ele>991.26</ele>
        <time>2013-10-27T12:01:32Z</time>
      </trkpt>
      <trkpt lat="46.77994" lon="6.20789">
        <ele>993.66</ele>
        <time>2013-10-27T12:01:46Z</time>
      </trkpt>
      <trkpt lat="46.77996" lon="6.20786">
        <ele>993.66</ele>
        <time>2013-10-27T12:01:49Z</time>
      </trkpt>
      <trkpt lat="46.78016" lon="6.20788">
        <ele>995.58</ele>
        <time>2013-10-27T12:02:00Z</time>
      </trkpt>
      <trkpt lat="46.78022" lon="6.20791">
        <ele>997.02</ele>
        <time>2013-10-27T12:02:05Z</time>
      </trkpt>
      <trkpt lat="46.7803" lon="6.20799">
        <ele>997.02</ele>
        <time>2013-10-27T12:02:13Z</time>
      </trkpt>
      <trkpt lat="46.78032" lon="6.20802">
        <ele>997.02</ele>
        <time>2013-10-27T12:02:15Z</time>
      </trkpt>
      <trkpt lat="46.78046" lon="6.20805">
        <ele>997.51</ele>
        <time>2013-10-27T12:02:26Z</time>
      </trkpt>
      <trkpt lat="46.7805" lon="6.20804">
        <ele>997.51</ele>
        <time>2013-10-27T12:02:30Z</time>
      </trkpt>
      <trkpt lat="46.78057" lon="6.20806">
        <ele>997.51</ele>
        <time>2013-10-27T12:02:34Z</time>
      </trkpt>
      <trkpt lat="46.78072" lon="6.2081">
        <ele>997.99</ele>
        <time>2013-10-27T12:02:46Z</time>
      </trkpt>
      <trkpt lat="46.78082" lon="6.20809">
        <ele>998.47</ele>
        <time>2013-10-27T12:02:55Z</time>
      </trkpt>
      <trkpt lat="46.78086" lon="6.20809">
        <ele>997.51</ele>
        <time>2013-10-27T12:02:58Z</time>
      </trkpt>
      <trkpt lat="46.78112" lon="6.20808">
        <ele>995.58</ele>
        <time>2013-10-27T12:03:09Z</time>
      </trkpt>
      <trkpt lat="46.7814" lon="6.208">
        <ele>993.66</ele>
        <time>2013-10-27T12:03:20Z</time>
      </trkpt>
      <trkpt lat="46.78166" lon="6.20789">
        <ele>993.18</ele>
        <time>2013-10-27T12:03:29Z</time>
      </trkpt>
      <trkpt lat="46.78196" lon="6.20773">
        <ele>991.74</ele>
        <time>2013-10-27T12:03:42Z</time>
      </trkpt>
      <trkpt lat="46.78198" lon="6.20771">
        <ele>991.26</ele>
        <time>2013-10-27T12:03:43Z</time>
      </trkpt>
      <trkpt lat="46.78208" lon="6.20765">
        <ele>991.26</ele>
        <time>2013-10-27T12:03:56Z</time>
      </trkpt>
      <trkpt lat="46.78207" lon="6.20765">
        <ele>992.22</ele>
        <time>2013-10-27T12:05:29Z</time>
      </trkpt>
      <trkpt lat="46.78212" lon="6.20771">
        <ele>992.7</ele>
        <time>2013-10-27T12:05:34Z</time>
      </trkpt>
      <trkpt lat="46.78236" lon="6.20799">
        <ele>992.7</ele>
        <time>2013-10-27T12:05:43Z</time>
      </trkpt>
      <trkpt lat="46.7824" lon="6.20802">
        <ele>991.26</ele>
        <time>2013-10-27T12:05:44Z</time>
      </trkpt>
      <trkpt lat="46.78247" lon="6.20809">
        <ele>991.74</ele>
        <time>2013-10-27T12:05:46Z</time>
      </trkpt>
      <trkpt lat="46.7825" lon="6.20813">
        <ele>991.74</ele>
        <time>2013-10-27T12:05:47Z</time>
      </trkpt>
      <trkpt lat="46.78253" lon="6.20817">
        <ele>991.74</ele>
        <time>2013-10-27T12:05:48Z</time>
      </trkpt>
      <trkpt lat="46.78256" lon="6.20822">
        <ele>991.26</ele>
        <time>2013-10-27T12:05:49Z</time>
      </trkpt>
      <trkpt lat="46.78258" lon="6.20826">
        <ele>991.74</ele>
        <time>2013-10-27T12:05:50Z</time>
      </trkpt>
      <trkpt lat="46.78261" lon="6.2083">
        <ele>991.26</ele>
        <time>2013-10-27T12:05:51Z</time>
      </trkpt>
      <trkpt lat="46.78286" lon="6.20881">
        <ele>990.78</ele>
        <time>2013-10-27T12:06:03Z</time>
      </trkpt>
      <trkpt lat="46.78288" lon="6.20887">
        <ele>990.78</ele>
        <time>2013-10-27T12:06:04Z</time>
      </trkpt>
      <trkpt lat="46.78306" lon="6.20947">
        <ele>992.22</ele>
        <time>2013-10-27T12:06:16Z</time>
      </trkpt>
      <trkpt lat="46.78316" lon="6.2097">
        <ele>990.78</ele>
        <time>2013-10-27T12:06:21Z</time>
      </trkpt>
      <trkpt lat="46.78333" lon="6.21006">
        <ele>989.33</ele>
        <time>2013-10-27T12:06:26Z</time>
      </trkpt>
      <trkpt lat="46.7835" lon="6.21062">
        <ele>989.81</ele>
        <time>2013-10-27T12:06:37Z</time>
      </trkpt>
      <trkpt lat="46.78361" lon="6.21103">
        <ele>989.81</ele>
        <time>2013-10-27T12:06:47Z</time>
      </trkpt>
      <trkpt lat="46.78362" lon="6.21104">
        <ele>990.3</ele>
        <time>2013-10-27T12:06:48Z</time>
      </trkpt>
      <trkpt lat="46.78364" lon="6.21104">
        <ele>989.81</ele>
        <time>2013-10-27T12:06:49Z</time>
      </trkpt>
      <trkpt lat="46.78365" lon="6.21103">
        <ele>989.33</ele>
        <time>2013-10-27T12:06:50Z</time>
      </trkpt>
      <trkpt lat="46.78366" lon="6.21101">
        <ele>989.81</ele>
        <time>2013-10-27T12:06:51Z</time>
      </trkpt>
      <trkpt lat="46.78366" lon="6.21098">
        <ele>990.3</ele>
        <time>2013-10-27T12:06:52Z</time>
      </trkpt>
      <trkpt lat="46.78366" lon="6.21095">
        <ele>990.78</ele>
        <time>2013-10-27T12:06:53Z</time>
      </trkpt>
      <trkpt lat="46.78366" lon="6.21092">
        <ele>989.81</ele>
        <time>2013-10-27T12:06:54Z</time>
      </trkpt>
      <trkpt lat="46.78366" lon="6.21089">
        <ele>990.3</ele>
        <time>2013-10-27T12:06:55Z</time>
      </trkpt>
      <trkpt lat="46.78367" lon="6.21085">
        <ele>990.78</ele>
        <time>2013-10-27T12:06:56Z</time>
      </trkpt>
      <trkpt lat="46.78368" lon="6.21082">
        <ele>989.81</ele>
        <time>2013-10-27T12:06:57Z</time>
      </trkpt>
      <trkpt lat="46.78369" lon="6.21079">
        <ele>990.78</ele>
        <time>2013-10-27T12:06:58Z</time>
      </trkpt>
      <trkpt lat="46.78371" lon="6.21057">
        <ele>992.22</ele>
        <time>2013-10-27T12:07:06Z</time>
      </trkpt>
      <trkpt lat="46.78376" lon="6.2102">
        <ele>993.66</ele>
        <time>2013-10-27T12:07:21Z</time>
      </trkpt>
      <trkpt lat="46.78376" lon="6.21018">
        <ele>994.14</ele>
        <time>2013-10-27T12:07:22Z</time>
      </trkpt>
      <trkpt lat="46.78378" lon="6.20996">
        <ele>995.58</ele>
        <time>2013-10-27T12:07:33Z</time>
      </trkpt>
      <trkpt lat="46.78379" lon="6.20993">
        <ele>995.58</ele>
        <time>2013-10-27T12:07:34Z</time>
      </trkpt>
      <trkpt lat="46.78383" lon="6.20976">
        <ele>995.58</ele>
        <time>2013-10-27T12:07:41Z</time>
      </trkpt>
      <trkpt lat="46.78383" lon="6.20973">
        <ele>996.54</ele>
        <time>2013-10-27T12:07:43Z</time>
      </trkpt>
      <trkpt lat="46.78385" lon="6.20959">
        <ele>997.99</ele>
        <time>2013-10-27T12:07:51Z</time>
      </trkpt>
      <trkpt lat="46.78388" lon="6.20953">
        <ele>997.51</ele>
        <time>2013-10-27T12:07:55Z</time>
      </trkpt>
      <trkpt lat="46.78388" lon="6.20952">
        <ele>997.99</ele>
        <time>2013-10-27T12:07:56Z</time>
      </trkpt>
      <trkpt lat="46.78389" lon="6.2095">
        <ele>997.99</ele>
        <time>2013-10-27T12:07:57Z</time>
      </trkpt>
      <trkpt lat="46.7839" lon="6.2094">
        <ele>997.99</ele>
        <time>2013-10-27T12:08:02Z</time>
      </trkpt>
      <trkpt lat="46.7839" lon="6.20938">
        <ele>997.99</ele>
        <time>2013-10-27T12:08:03Z</time>
      </trkpt>
      <trkpt lat="46.78391" lon="6.20936">
        <ele>997.51</ele>
        <time>2013-10-27T12:08:04Z</time>
      </trkpt>
      <trkpt lat="46.78393" lon="6.2092">
        <ele>1000.87</ele>
        <time>2013-10-27T12:08:14Z</time>
      </trkpt>
      <trkpt lat="46.78393" lon="6.20918">
        <ele>1000.87</ele>
        <time>2013-10-27T12:08:15Z</time>
      </trkpt>
      <trkpt lat="46.78394" lon="6.20916">
        <ele>1000.87</ele>
        <time>2013-10-27T12:08:16Z</time>
      </trkpt>
      <trkpt lat="46.78395" lon="6.20911">
        <ele>1003.27</ele>
        <time>2013-10-27T12:08:20Z</time>
      </trkpt>
      <trkpt lat="46.78395" lon="6.20908">
        <ele>1003.75</ele>
        <time>2013-10-27T12:08:21Z</time>
      </trkpt>
      <trkpt lat="46.78396" lon="6.20906">
        <ele>1004.72</ele>
        <time>2013-10-27T12:08:22Z</time>
      </trkpt>
      <trkpt lat="46.78396" lon="6.20903">
        <ele>1004.23</ele>
        <time>2013-10-27T12:08:23Z</time>
      </trkpt>
      <trkpt lat="46.78397" lon="6.20898">
        <ele>1004.23</ele>
        <time>2013-10-27T12:08:26Z</time>
      </trkpt>
      <trkpt lat="46.78398" lon="6.20896">
        <ele>1005.2</ele>
        <time>2013-10-27T12:08:27Z</time>
      </trkpt>
      <trkpt lat="46.78399" lon="6.20888">
        <ele>1004.72</ele>
        <time>2013-10-27T12:08:31Z</time>
      </trkpt>
      <trkpt lat="46.78398" lon="6.20884">
        <ele>1005.2</ele>
        <time>2013-10-27T12:08:33Z</time>
      </trkpt>
      <trkpt lat="46.78398" lon="6.20882">
        <ele>1004.72</ele>
        <time>2013-10-27T12:08:34Z</time>
      </trkpt>
      <trkpt lat="46.78399" lon="6.2088">
        <ele>1004.23</ele>
        <time>2013-10-27T12:08:35Z</time>
      </trkpt>
      <trkpt lat="46.78404" lon="6.20867">
        <ele>1004.72</ele>
        <time>2013-10-27T12:08:43Z</time>
      </trkpt>
      <trkpt lat="46.78405" lon="6.20866">
        <ele>1004.23</ele>
        <time>2013-10-27T12:08:44Z</time>
      </trkpt>
      <trkpt lat="46.78414" lon="6.20853">
        <ele>1006.64</ele>
        <time>2013-10-27T12:08:55Z</time>
      </trkpt>
      <trkpt lat="46.78423" lon="6.20845">
        <ele>1007.12</ele>
        <time>2013-10-27T12:09:07Z</time>
      </trkpt>
      <trkpt lat="46.78431" lon="6.20841">
        <ele>1007.6</ele>
        <time>2013-10-27T12:09:14Z</time>
      </trkpt>
      <trkpt lat="46.78432" lon="6.2084">
        <ele>1007.6</ele>
        <time>2013-10-27T12:09:15Z</time>
      </trkpt>
      <trkpt lat="46.78434" lon="6.20838">
        <ele>1007.12</ele>
        <time>2013-10-27T12:09:16Z</time>
      </trkpt>
      <trkpt lat="46.78441" lon="6.20831">
        <ele>1007.12</ele>
        <time>2013-10-27T12:09:27Z</time>
      </trkpt>
      <trkpt lat="46.7844" lon="6.2083">
        <ele>1007.12</ele>
        <time>2013-10-27T12:09:33Z</time>
      </trkpt>
      <trkpt lat="46.78442" lon="6.20829">
        <ele>1007.6</ele>
        <time>2013-10-27T12:09:34Z</time>
      </trkpt>
      <trkpt lat="46.78449" lon="6.20828">
        <ele>1008.08</ele>
        <time>2013-10-27T12:09:41Z</time>
      </trkpt>
      <trkpt lat="46.78451" lon="6.20828">
        <ele>1008.08</ele>
        <time>2013-10-27T12:09:42Z</time>
      </trkpt>
      <trkpt lat="46.78453" lon="6.20828">
        <ele>1007.6</ele>
        <time>2013-10-27T12:09:43Z</time>
      </trkpt>
      <trkpt lat="46.78455" lon="6.20828">
        <ele>1008.08</ele>
        <time>2013-10-27T12:09:44Z</time>
      </trkpt>
      <trkpt lat="46.78457" lon="6.20828">
        <ele>1008.08</ele>
        <time>2013-10-27T12:09:45Z</time>
      </trkpt>
      <trkpt lat="46.78458" lon="6.20828">
        <ele>1007.6</ele>
        <time>2013-10-27T12:09:46Z</time>
      </trkpt>
      <trkpt lat="46.7846" lon="6.20827">
        <ele>1008.08</ele>
        <time>2013-10-27T12:09:47Z</time>
      </trkpt>
      <trkpt lat="46.78462" lon="6.20826">
        <ele>1007.6</ele>
        <time>2013-10-27T12:09:48Z</time>
      </trkpt>
      <trkpt lat="46.78463" lon="6.20826">
        <ele>1007.12</ele>
        <time>2013-10-27T12:09:49Z</time>
      </trkpt>
      <trkpt lat="46.78464" lon="6.20827">
        <ele>1008.08</ele>
        <time>2013-10-27T12:09:51Z</time>
      </trkpt>
      <trkpt lat="46.78488" lon="6.20834">
        <ele>1008.08</ele>
        <time>2013-10-27T12:10:04Z</time>
      </trkpt>
      <trkpt lat="46.78494" lon="6.20837">
        <ele>1008.08</ele>
        <time>2013-10-27T12:10:08Z</time>
      </trkpt>
      <trkpt lat="46.78496" lon="6.20837">
        <ele>1007.6</ele>
        <time>2013-10-27T12:10:09Z</time>
      </trkpt>
      <trkpt lat="46.7851" lon="6.20836">
        <ele>1007.12</ele>
        <time>2013-10-27T12:10:16Z</time>
      </trkpt>
      <trkpt lat="46.78512" lon="6.20835">
        <ele>1006.64</ele>
        <time>2013-10-27T12:10:17Z</time>
      </trkpt>
      <trkpt lat="46.78529" lon="6.20832">
        <ele>1006.64</ele>
        <time>2013-10-27T12:10:24Z</time>
      </trkpt>
      <trkpt lat="46.78532" lon="6.20832">
        <ele>1005.68</ele>
        <time>2013-10-27T12:10:26Z</time>
      </trkpt>
      <trkpt lat="46.78533" lon="6.20831">
        <ele>1006.16</ele>
        <time>2013-10-27T12:10:27Z</time>
      </trkpt>
      <trkpt lat="46.78536" lon="6.20831">
        <ele>1005.2</ele>
        <time>2013-10-27T12:10:28Z</time>
      </trkpt>
      <trkpt lat="46.78538" lon="6.20831">
        <ele>1006.16</ele>
        <time>2013-10-27T12:10:29Z</time>
      </trkpt>
      <trkpt lat="46.78543" lon="6.20827">
        <ele>1005.68</ele>
        <time>2013-10-27T12:10:30Z</time>
      </trkpt>
      <trkpt lat="46.78548" lon="6.20826">
        <ele>1006.16</ele>
        <time>2013-10-27T12:10:31Z</time>
      </trkpt>
      <trkpt lat="46.78551" lon="6.20825">
        <ele>1006.16</ele>
        <time>2013-10-27T12:10:32Z</time>
      </trkpt>
      <trkpt lat="46.78554" lon="6.20824">
        <ele>1005.68</ele>
        <time>2013-10-27T12:10:33Z</time>
      </trkpt>
      <trkpt lat="46.78557" lon="6.20824">
        <ele>1005.68</ele>
        <time>2013-10-27T12:10:34Z</time>
      </trkpt>
      <trkpt lat="46.78579" lon="6.20814">
        <ele>1005.2</ele>
        <time>2013-10-27T12:10:45Z</time>
      </trkpt>
      <trkpt lat="46.7858" lon="6.20811">
        <ele>1006.16</ele>
        <time>2013-10-27T12:10:59Z</time>
      </trkpt>
      <trkpt lat="46.7858" lon="6.20809">
        <ele>1006.16</ele>
        <time>2013-10-27T12:11:00Z</time>
      </trkpt>
      <trkpt lat="46.7858" lon="6.20807">
        <ele>1006.16</ele>
        <time>2013-10-27T12:11:01Z</time>
      </trkpt>
      <trkpt lat="46.78582" lon="6.20786">
        <ele>1007.6</ele>
        <time>2013-10-27T12:11:14Z</time>
      </trkpt>
      <trkpt lat="46.78584" lon="6.20783">
        <ele>1008.08</ele>
        <time>2013-10-27T12:11:16Z</time>
      </trkpt>
      <trkpt lat="46.78585" lon="6.2078">
        <ele>1008.08</ele>
        <time>2013-10-27T12:11:17Z</time>
      </trkpt>
      <trkpt lat="46.78586" lon="6.2077">
        <ele>1008.56</ele>
        <time>2013-10-27T12:11:27Z</time>
      </trkpt>
      <trkpt lat="46.78588" lon="6.20762">
        <ele>1009.04</ele>
        <time>2013-10-27T12:11:36Z</time>
      </trkpt>
      <trkpt lat="46.78594" lon="6.20747">
        <ele>1010.96</ele>
        <time>2013-10-27T12:11:48Z</time>
      </trkpt>
      <trkpt lat="46.78596" lon="6.20739">
        <ele>1012.89</ele>
        <time>2013-10-27T12:12:01Z</time>
      </trkpt>
      <trkpt lat="46.78603" lon="6.20728">
        <ele>1013.37</ele>
        <time>2013-10-27T12:12:13Z</time>
      </trkpt>
      <trkpt lat="46.78608" lon="6.20717">
        <ele>1013.85</ele>
        <time>2013-10-27T12:12:25Z</time>
      </trkpt>
      <trkpt lat="46.78614" lon="6.20705">
        <ele>1015.29</ele>
        <time>2013-10-27T12:12:36Z</time>
      </trkpt>
      <trkpt lat="46.78615" lon="6.20699">
        <ele>1015.77</ele>
        <time>2013-10-27T12:12:46Z</time>
      </trkpt>
      <trkpt lat="46.78615" lon="6.20699">
        <ele>1016.25</ele>
        <time>2013-10-27T12:13:31Z</time>
      </trkpt>
      <trkpt lat="46.78615" lon="6.20695">
        <ele>1017.69</ele>
        <time>2013-10-27T12:14:09Z</time>
      </trkpt>
      <trkpt lat="46.78615" lon="6.20687">
        <ele>1017.21</ele>
        <time>2013-10-27T12:14:17Z</time>
      </trkpt>
      <trkpt lat="46.78616" lon="6.20672">
        <ele>1019.13</ele>
        <time>2013-10-27T12:14:27Z</time>
      </trkpt>
      <trkpt lat="46.78615" lon="6.20657">
        <ele>1020.58</ele>
        <time>2013-10-27T12:14:38Z</time>
      </trkpt>
      <trkpt lat="46.78615" lon="6.20648">
        <ele>1020.58</ele>
        <time>2013-10-27T12:14:48Z</time>
      </trkpt>
      <trkpt lat="46.78614" lon="6.20634">
        <ele>1021.06</ele>
        <time>2013-10-27T12:14:59Z</time>
      </trkpt>
      <trkpt lat="46.78614" lon="6.20622">
        <ele>1022.5</ele>
        <time>2013-10-27T12:15:10Z</time>
      </trkpt>
      <trkpt lat="46.78611" lon="6.20611">
        <ele>1022.98</ele>
        <time>2013-10-27T12:15:19Z</time>
      </trkpt>
      <trkpt lat="46.78612" lon="6.20598">
        <ele>1024.9</ele>
        <time>2013-10-27T12:15:30Z</time>
      </trkpt>
      <trkpt lat="46.78618" lon="6.20588">
        <ele>1025.86</ele>
        <time>2013-10-27T12:15:41Z</time>
      </trkpt>
      <trkpt lat="46.78623" lon="6.20588">
        <ele>1025.38</ele>
        <time>2013-10-27T12:15:48Z</time>
      </trkpt>
      <trkpt lat="46.78628" lon="6.20587">
        <ele>1026.83</ele>
        <time>2013-10-27T12:15:59Z</time>
      </trkpt>
      <trkpt lat="46.78636" lon="6.20586">
        <ele>1026.83</ele>
        <time>2013-10-27T12:16:10Z</time>
      </trkpt>
      <trkpt lat="46.7865" lon="6.20585">
        <ele>1026.83</ele>
        <time>2013-10-27T12:16:24Z</time>
      </trkpt>
      <trkpt lat="46.78657" lon="6.20584">
        <ele>1027.79</ele>
        <time>2013-10-27T12:16:36Z</time>
      </trkpt>
      <trkpt lat="46.78663" lon="6.20581">
        <ele>1028.75</ele>
        <time>2013-10-27T12:16:47Z</time>
      </trkpt>
      <trkpt lat="46.78669" lon="6.20573">
        <ele>1031.15</ele>
        <time>2013-10-27T12:16:59Z</time>
      </trkpt>
      <trkpt lat="46.78677" lon="6.20562">
        <ele>1032.59</ele>
        <time>2013-10-27T12:17:11Z</time>
      </trkpt>
      <trkpt lat="46.78681" lon="6.20552">
        <ele>1033.55</ele>
        <time>2013-10-27T12:17:24Z</time>
      </trkpt>
      <trkpt lat="46.78686" lon="6.20539">
        <ele>1034.04</ele>
        <time>2013-10-27T12:17:37Z</time>
      </trkpt>
      <trkpt lat="46.78695" lon="6.20525">
        <ele>1034.52</ele>
        <time>2013-10-27T12:17:56Z</time>
      </trkpt>
      <trkpt lat="46.78696" lon="6.20523">
        <ele>1034.52</ele>
        <time>2013-10-27T12:17:57Z</time>
      </trkpt>
      <trkpt lat="46.78697" lon="6.2052">
        <ele>1035</ele>
        <time>2013-10-27T12:17:59Z</time>
      </trkpt>
      <trkpt lat="46.78698" lon="6.20505">
        <ele>1034.52</ele>
        <time>2013-10-27T12:18:06Z</time>
      </trkpt>
      <trkpt lat="46.78694" lon="6.20486">
        <ele>1035.96</ele>
        <time>2013-10-27T12:18:18Z</time>
      </trkpt>
      <trkpt lat="46.78689" lon="6.20467">
        <ele>1038.36</ele>
        <time>2013-10-27T12:18:29Z</time>
      </trkpt>
      <trkpt lat="46.78689" lon="6.20465">
        <ele>1037.88</ele>
        <time>2013-10-27T12:18:30Z</time>
      </trkpt>
      <trkpt lat="46.78687" lon="6.20439">
        <ele>1039.8</ele>
        <time>2013-10-27T12:18:44Z</time>
      </trkpt>
      <trkpt lat="46.78691" lon="6.20417">
        <ele>1041.25</ele>
        <time>2013-10-27T12:18:58Z</time>
      </trkpt>
      <trkpt lat="46.78696" lon="6.20396">
        <ele>1045.09</ele>
        <time>2013-10-27T12:19:11Z</time>
      </trkpt>
      <trkpt lat="46.78698" lon="6.2039">
        <ele>1045.09</ele>
        <time>2013-10-27T12:19:14Z</time>
      </trkpt>
      <trkpt lat="46.78698" lon="6.20388">
        <ele>1045.57</ele>
        <time>2013-10-27T12:19:15Z</time>
      </trkpt>
      <trkpt lat="46.78698" lon="6.20386">
        <ele>1045.09</ele>
        <time>2013-10-27T12:19:16Z</time>
      </trkpt>
      <trkpt lat="46.78701" lon="6.20375">
        <ele>1046.53</ele>
        <time>2013-10-27T12:19:27Z</time>
      </trkpt>
      <trkpt lat="46.78703" lon="6.20368">
        <ele>1047.97</ele>
        <time>2013-10-27T12:20:20Z</time>
      </trkpt>
      <trkpt lat="46.78704" lon="6.20366">
        <ele>1048.94</ele>
        <time>2013-10-27T12:21:18Z</time>
      </trkpt>
      <trkpt lat="46.78704" lon="6.20366">
        <ele>1045.57</ele>
        <time>2013-10-27T12:22:36Z</time>
      </trkpt>
      <trkpt lat="46.78704" lon="6.20366">
        <ele>1047.01</ele>
        <time>2013-10-27T12:24:26Z</time>
      </trkpt>
      <trkpt lat="46.78706" lon="6.20355">
        <ele>1048.45</ele>
        <time>2013-10-27T12:25:17Z</time>
      </trkpt>
      <trkpt lat="46.78706" lon="6.20342">
        <ele>1049.42</ele>
        <time>2013-10-27T12:25:26Z</time>
      </trkpt>
      <trkpt lat="46.78706" lon="6.20331">
        <ele>1051.34</ele>
        <time>2013-10-27T12:25:37Z</time>
      </trkpt>
      <trkpt lat="46.78706" lon="6.20326">
        <ele>1050.86</ele>
        <time>2013-10-27T12:25:42Z</time>
      </trkpt>
      <trkpt lat="46.78707" lon="6.20312">
        <ele>1053.26</ele>
        <time>2013-10-27T12:25:54Z</time>
      </trkpt>
      <trkpt lat="46.78708" lon="6.20301">
        <ele>1053.74</ele>
        <time>2013-10-27T12:26:06Z</time>
      </trkpt>
      <trkpt lat="46.78709" lon="6.20293">
        <ele>1055.67</ele>
        <time>2013-10-27T12:26:17Z</time>
      </trkpt>
      <trkpt lat="46.78715" lon="6.20273">
        <ele>1058.55</ele>
        <time>2013-10-27T12:26:29Z</time>
      </trkpt>
      <trkpt lat="46.78717" lon="6.2027">
        <ele>1059.03</ele>
        <time>2013-10-27T12:26:32Z</time>
      </trkpt>
      <trkpt lat="46.78719" lon="6.20257">
        <ele>1060.47</ele>
        <time>2013-10-27T12:26:44Z</time>
      </trkpt>
      <trkpt lat="46.7872" lon="6.20247">
        <ele>1060.95</ele>
        <time>2013-10-27T12:26:51Z</time>
      </trkpt>
      <trkpt lat="46.78722" lon="6.20241">
        <ele>1062.39</ele>
        <time>2013-10-27T12:26:54Z</time>
      </trkpt>
      <trkpt lat="46.78722" lon="6.20238">
        <ele>1062.87</ele>
        <time>2013-10-27T12:26:56Z</time>
      </trkpt>
      <trkpt lat="46.78726" lon="6.20225">
        <ele>1063.84</ele>
        <time>2013-10-27T12:27:05Z</time>
      </trkpt>
      <trkpt lat="46.78726" lon="6.20224">
        <ele>1063.36</ele>
        <time>2013-10-27T12:27:06Z</time>
      </trkpt>
      <trkpt lat="46.78726" lon="6.2022">
        <ele>1064.32</ele>
        <time>2013-10-27T12:27:17Z</time>
      </trkpt>
      <trkpt lat="46.78726" lon="6.20213">
        <ele>1064.8</ele>
        <time>2013-10-27T12:27:26Z</time>
      </trkpt>
      <trkpt lat="46.78726" lon="6.20212">
        <ele>1065.28</ele>
        <time>2013-10-27T12:27:27Z</time>
      </trkpt>
      <trkpt lat="46.78728" lon="6.20201">
        <ele>1066.24</ele>
        <time>2013-10-27T12:27:34Z</time>
      </trkpt>
      <trkpt lat="46.7873" lon="6.20188">
        <ele>1068.64</ele>
        <time>2013-10-27T12:27:44Z</time>
      </trkpt>
      <trkpt lat="46.78732" lon="6.20183">
        <ele>1069.12</ele>
        <time>2013-10-27T12:27:48Z</time>
      </trkpt>
      <trkpt lat="46.78732" lon="6.20178">
        <ele>1070.57</ele>
        <time>2013-10-27T12:27:53Z</time>
      </trkpt>
      <trkpt lat="46.78737" lon="6.20162">
        <ele>1072.01</ele>
        <time>2013-10-27T12:28:05Z</time>
      </trkpt>
      <trkpt lat="46.78739" lon="6.20158">
        <ele>1072.01</ele>
        <time>2013-10-27T12:28:08Z</time>
      </trkpt>
      <trkpt lat="46.78742" lon="6.20157">
        <ele>1072.01</ele>
        <time>2013-10-27T12:28:11Z</time>
      </trkpt>
      <trkpt lat="46.78749" lon="6.20148">
        <ele>1073.45</ele>
        <time>2013-10-27T12:28:22Z</time>
      </trkpt>
      <trkpt lat="46.78756" lon="6.20139">
        <ele>1074.41</ele>
        <time>2013-10-27T12:28:36Z</time>
      </trkpt>
      <trkpt lat="46.78765" lon="6.20132">
        <ele>1075.37</ele>
        <time>2013-10-27T12:28:48Z</time>
      </trkpt>
      <trkpt lat="46.7877" lon="6.20128">
        <ele>1074.89</ele>
        <time>2013-10-27T12:29:02Z</time>
      </trkpt>
      <trkpt lat="46.78772" lon="6.20127">
        <ele>1074.41</ele>
        <time>2013-10-27T12:29:17Z</time>
      </trkpt>
      <trkpt lat="46.78778" lon="6.20126">
        <ele>1075.85</ele>
        <time>2013-10-27T12:29:31Z</time>
      </trkpt>
      <trkpt lat="46.78779" lon="6.20126">
        <ele>1074.89</ele>
        <time>2013-10-27T12:29:33Z</time>
      </trkpt>
      <trkpt lat="46.78778" lon="6.20128">
        <ele>1074.89</ele>
        <time>2013-10-27T12:29:34Z</time>
      </trkpt>
      <trkpt lat="46.78777" lon="6.2013">
        <ele>1075.37</ele>
        <time>2013-10-27T12:29:35Z</time>
      </trkpt>
      <trkpt lat="46.78758" lon="6.20141">
        <ele>1073.45</ele>
        <time>2013-10-27T12:29:45Z</time>
      </trkpt>
      <trkpt lat="46.78755" lon="6.20143">
        <ele>1073.45</ele>
        <time>2013-10-27T12:29:56Z</time>
      </trkpt>
      <trkpt lat="46.78756" lon="6.20142">
        <ele>1073.45</ele>
        <time>2013-10-27T12:29:57Z</time>
      </trkpt>
      <trkpt lat="46.78758" lon="6.20139">
        <ele>1073.45</ele>
        <time>2013-10-27T12:30:00Z</time>
      </trkpt>
      <trkpt lat="46.78759" lon="6.20138">
        <ele>1073.45</ele>
        <time>2013-10-27T12:30:01Z</time>
      </trkpt>
      <trkpt lat="46.7876" lon="6.20137">
        <ele>1073.93</ele>
        <time>2013-10-27T12:30:02Z</time>
      </trkpt>
      <trkpt lat="46.78763" lon="6.20132">
        <ele>1074.41</ele>
        <time>2013-10-27T12:30:07Z</time>
      </trkpt>
      <trkpt lat="46.78766" lon="6.20132">
        <ele>1074.89</ele>
        <time>2013-10-27T12:30:10Z</time>
      </trkpt>
      <trkpt lat="46.78768" lon="6.20132">
        <ele>1074.89</ele>
        <time>2013-10-27T12:30:11Z</time>
      </trkpt>
      <trkpt lat="46.78779" lon="6.20129">
        <ele>1074.89</ele>
        <time>2013-10-27T12:30:22Z</time>
      </trkpt>
      <trkpt lat="46.78784" lon="6.20126">
        <ele>1074.89</ele>
        <time>2013-10-27T12:30:35Z</time>
      </trkpt>
      <trkpt lat="46.78795" lon="6.20125">
        <ele>1075.85</ele>
        <time>2013-10-27T12:30:45Z</time>
      </trkpt>
      <trkpt lat="46.78797" lon="6.20123">
        <ele>1075.37</ele>
        <time>2013-10-27T12:30:46Z</time>
      </trkpt>
      <trkpt lat="46.78799" lon="6.20123">
        <ele>1076.33</ele>
        <time>2013-10-27T12:30:47Z</time>
      </trkpt>
      <trkpt lat="46.78803" lon="6.2012">
        <ele>1075.37</ele>
        <time>2013-10-27T12:30:50Z</time>
      </trkpt>
      <trkpt lat="46.78804" lon="6.2012">
        <ele>1075.85</ele>
        <time>2013-10-27T12:30:51Z</time>
      </trkpt>
      <trkpt lat="46.78805" lon="6.20119">
        <ele>1079.7</ele>
        <time>2013-10-27T12:30:52Z</time>
      </trkpt>
      <trkpt lat="46.78807" lon="6.20119">
        <ele>1077.29</ele>
        <time>2013-10-27T12:30:53Z</time>
      </trkpt>
      <trkpt lat="46.78815" lon="6.20116">
        <ele>1077.78</ele>
        <time>2013-10-27T12:30:59Z</time>
      </trkpt>
      <trkpt lat="46.78827" lon="6.2011">
        <ele>1074.89</ele>
        <time>2013-10-27T12:31:06Z</time>
      </trkpt>
      <trkpt lat="46.78839" lon="6.20106">
        <ele>1074.89</ele>
        <time>2013-10-27T12:31:12Z</time>
      </trkpt>
      <trkpt lat="46.7884" lon="6.20105">
        <ele>1076.33</ele>
        <time>2013-10-27T12:31:13Z</time>
      </trkpt>
      <trkpt lat="46.78842" lon="6.20104">
        <ele>1075.37</ele>
        <time>2013-10-27T12:31:14Z</time>
      </trkpt>
      <trkpt lat="46.78843" lon="6.20104">
        <ele>1076.33</ele>
        <time>2013-10-27T12:31:15Z</time>
      </trkpt>
      <trkpt lat="46.78845" lon="6.20103">
        <ele>1075.85</ele>
        <time>2013-10-27T12:31:16Z</time>
      </trkpt>
      <trkpt lat="46.78848" lon="6.20102">
        <ele>1076.33</ele>
        <time>2013-10-27T12:31:18Z</time>
      </trkpt>
      <trkpt lat="46.7885" lon="6.20101">
        <ele>1074.41</ele>
        <time>2013-10-27T12:31:19Z</time>
      </trkpt>
      <trkpt lat="46.78851" lon="6.201">
        <ele>1075.37</ele>
        <time>2013-10-27T12:31:20Z</time>
      </trkpt>
      <trkpt lat="46.78853" lon="6.20099">
        <ele>1076.81</ele>
        <time>2013-10-27T12:31:21Z</time>
      </trkpt>
      <trkpt lat="46.78854" lon="6.20097">
        <ele>1075.85</ele>
        <time>2013-10-27T12:31:22Z</time>
      </trkpt>
      <trkpt lat="46.78876" lon="6.20072">
        <ele>1076.33</ele>
        <time>2013-10-27T12:31:35Z</time>
      </trkpt>
      <trkpt lat="46.78877" lon="6.2007">
        <ele>1077.29</ele>
        <time>2013-10-27T12:31:36Z</time>
      </trkpt>
      <trkpt lat="46.78878" lon="6.20067">
        <ele>1076.81</ele>
        <time>2013-10-27T12:31:37Z</time>
      </trkpt>
      <trkpt lat="46.78879" lon="6.20064">
        <ele>1077.29</ele>
        <time>2013-10-27T12:31:38Z</time>
      </trkpt>
      <trkpt lat="46.78881" lon="6.20061">
        <ele>1076.33</ele>
        <time>2013-10-27T12:31:39Z</time>
      </trkpt>
      <trkpt lat="46.78882" lon="6.20059">
        <ele>1078.26</ele>
        <time>2013-10-27T12:31:40Z</time>
      </trkpt>
      <trkpt lat="46.78883" lon="6.20057">
        <ele>1078.74</ele>
        <time>2013-10-27T12:31:41Z</time>
      </trkpt>
      <trkpt lat="46.78885" lon="6.20054">
        <ele>1078.26</ele>
        <time>2013-10-27T12:31:42Z</time>
      </trkpt>
      <trkpt lat="46.78894" lon="6.20031">
        <ele>1079.22</ele>
        <time>2013-10-27T12:31:52Z</time>
      </trkpt>
      <trkpt lat="46.78898" lon="6.20025">
        <ele>1080.18</ele>
        <time>2013-10-27T12:31:55Z</time>
      </trkpt>
      <trkpt lat="46.78899" lon="6.20024">
        <ele>1080.66</ele>
        <time>2013-10-27T12:31:56Z</time>
      </trkpt>
      <trkpt lat="46.789" lon="6.20023">
        <ele>1080.66</ele>
        <time>2013-10-27T12:31:57Z</time>
      </trkpt>
      <trkpt lat="46.78901" lon="6.20021">
        <ele>1080.66</ele>
        <time>2013-10-27T12:31:58Z</time>
      </trkpt>
      <trkpt lat="46.78902" lon="6.2002">
        <ele>1080.18</ele>
        <time>2013-10-27T12:31:59Z</time>
      </trkpt>
      <trkpt lat="46.7891" lon="6.20008">
        <ele>1082.1</ele>
        <time>2013-10-27T12:32:10Z</time>
      </trkpt>
      <trkpt lat="46.78927" lon="6.19992">
        <ele>1083.54</ele>
        <time>2013-10-27T12:32:24Z</time>
      </trkpt>
      <trkpt lat="46.78939" lon="6.19969">
        <ele>1084.5</ele>
        <time>2013-10-27T12:32:36Z</time>
      </trkpt>
      <trkpt lat="46.78947" lon="6.19946">
        <ele>1085.95</ele>
        <time>2013-10-27T12:32:47Z</time>
      </trkpt>
      <trkpt lat="46.78948" lon="6.19941">
        <ele>1086.43</ele>
        <time>2013-10-27T12:32:50Z</time>
      </trkpt>
      <trkpt lat="46.78948" lon="6.19928">
        <ele>1086.91</ele>
        <time>2013-10-27T12:32:57Z</time>
      </trkpt>
      <trkpt lat="46.78947" lon="6.19926">
        <ele>1086.91</ele>
        <time>2013-10-27T12:32:58Z</time>
      </trkpt>
      <trkpt lat="46.78948" lon="6.19924">
        <ele>1086.91</ele>
        <time>2013-10-27T12:32:59Z</time>
      </trkpt>
      <trkpt lat="46.78948" lon="6.19922">
        <ele>1087.39</ele>
        <time>2013-10-27T12:33:00Z</time>
      </trkpt>
      <trkpt lat="46.78949" lon="6.1992">
        <ele>1087.39</ele>
        <time>2013-10-27T12:33:01Z</time>
      </trkpt>
      <trkpt lat="46.78949" lon="6.19918">
        <ele>1087.39</ele>
        <time>2013-10-27T12:33:02Z</time>
      </trkpt>
      <trkpt lat="46.78949" lon="6.19915">
        <ele>1087.39</ele>
        <time>2013-10-27T12:33:03Z</time>
      </trkpt>
      <trkpt lat="46.78948" lon="6.19912">
        <ele>1087.39</ele>
        <time>2013-10-27T12:33:04Z</time>
      </trkpt>
      <trkpt lat="46.78948" lon="6.1991">
        <ele>1087.39</ele>
        <time>2013-10-27T12:33:05Z</time>
      </trkpt>
      <trkpt lat="46.78947" lon="6.19907">
        <ele>1087.87</ele>
        <time>2013-10-27T12:33:06Z</time>
      </trkpt>
      <trkpt lat="46.78947" lon="6.19905">
        <ele>1087.87</ele>
        <time>2013-10-27T12:33:07Z</time>
      </trkpt>
      <trkpt lat="46.78946" lon="6.19903">
        <ele>1088.83</ele>
        <time>2013-10-27T12:33:08Z</time>
      </trkpt>
      <trkpt lat="46.78946" lon="6.199">
        <ele>1088.35</ele>
        <time>2013-10-27T12:33:09Z</time>
      </trkpt>
      <trkpt lat="46.78946" lon="6.19898">
        <ele>1088.83</ele>
        <time>2013-10-27T12:33:10Z</time>
      </trkpt>
      <trkpt lat="46.78946" lon="6.19895">
        <ele>1089.79</ele>
        <time>2013-10-27T12:33:11Z</time>
      </trkpt>
      <trkpt lat="46.78945" lon="6.19893">
        <ele>1088.35</ele>
        <time>2013-10-27T12:33:12Z</time>
      </trkpt>
      <trkpt lat="46.7895" lon="6.19848">
        <ele>1088.35</ele>
        <time>2013-10-27T12:33:27Z</time>
      </trkpt>
      <trkpt lat="46.78958" lon="6.19825">
        <ele>1090.27</ele>
        <time>2013-10-27T12:33:33Z</time>
      </trkpt>
      <trkpt lat="46.78976" lon="6.19779">
        <ele>1088.35</ele>
        <time>2013-10-27T12:33:46Z</time>
      </trkpt>
      <trkpt lat="46.78985" lon="6.1977">
        <ele>1086.91</ele>
        <time>2013-10-27T12:33:49Z</time>
      </trkpt>
      <trkpt lat="46.79025" lon="6.19749">
        <ele>1085.95</ele>
        <time>2013-10-27T12:34:01Z</time>
      </trkpt>
      <trkpt lat="46.79029" lon="6.19748">
        <ele>1086.43</ele>
        <time>2013-10-27T12:34:02Z</time>
      </trkpt>
      <trkpt lat="46.79033" lon="6.19746">
        <ele>1087.87</ele>
        <time>2013-10-27T12:34:03Z</time>
      </trkpt>
      <trkpt lat="46.79037" lon="6.19744">
        <ele>1087.87</ele>
        <time>2013-10-27T12:34:04Z</time>
      </trkpt>
      <trkpt lat="46.79041" lon="6.19743">
        <ele>1088.83</ele>
        <time>2013-10-27T12:34:05Z</time>
      </trkpt>
      <trkpt lat="46.79046" lon="6.19742">
        <ele>1088.35</ele>
        <time>2013-10-27T12:34:06Z</time>
      </trkpt>
      <trkpt lat="46.79066" lon="6.19742">
        <ele>1086.91</ele>
        <time>2013-10-27T12:34:11Z</time>
      </trkpt>
      <trkpt lat="46.7907" lon="6.19743">
        <ele>1087.39</ele>
        <time>2013-10-27T12:34:12Z</time>
      </trkpt>
      <trkpt lat="46.79075" lon="6.19744">
        <ele>1086.91</ele>
        <time>2013-10-27T12:34:13Z</time>
      </trkpt>
      <trkpt lat="46.79079" lon="6.19745">
        <ele>1087.87</ele>
        <time>2013-10-27T12:34:14Z</time>
      </trkpt>
      <trkpt lat="46.79083" lon="6.19745">
        <ele>1087.39</ele>
        <time>2013-10-27T12:34:15Z</time>
      </trkpt>
      <trkpt lat="46.79137" lon="6.19757">
        <ele>1086.43</ele>
        <time>2013-10-27T12:34:28Z</time>
      </trkpt>
      <trkpt lat="46.79166" lon="6.19762">
        <ele>1084.99</ele>
        <time>2013-10-27T12:34:33Z</time>
      </trkpt>
      <trkpt lat="46.79171" lon="6.19762">
        <ele>1085.47</ele>
        <time>2013-10-27T12:34:34Z</time>
      </trkpt>
      <trkpt lat="46.79176" lon="6.19761">
        <ele>1084.5</ele>
        <time>2013-10-27T12:34:35Z</time>
      </trkpt>
      <trkpt lat="46.79181" lon="6.19759">
        <ele>1084.99</ele>
        <time>2013-10-27T12:34:36Z</time>
      </trkpt>
      <trkpt lat="46.79185" lon="6.19757">
        <ele>1084.5</ele>
        <time>2013-10-27T12:34:37Z</time>
      </trkpt>
      <trkpt lat="46.7919" lon="6.19754">
        <ele>1084.99</ele>
        <time>2013-10-27T12:34:38Z</time>
      </trkpt>
      <trkpt lat="46.79193" lon="6.1975">
        <ele>1084.99</ele>
        <time>2013-10-27T12:34:39Z</time>
      </trkpt>
      <trkpt lat="46.79197" lon="6.19745">
        <ele>1084.02</ele>
        <time>2013-10-27T12:34:40Z</time>
      </trkpt>
      <trkpt lat="46.79199" lon="6.1974">
        <ele>1084.02</ele>
        <time>2013-10-27T12:34:41Z</time>
      </trkpt>
      <trkpt lat="46.79202" lon="6.19733">
        <ele>1083.54</ele>
        <time>2013-10-27T12:34:42Z</time>
      </trkpt>
      <trkpt lat="46.79204" lon="6.19725">
        <ele>1082.1</ele>
        <time>2013-10-27T12:34:43Z</time>
      </trkpt>
      <trkpt lat="46.79206" lon="6.19717">
        <ele>1082.1</ele>
        <time>2013-10-27T12:34:44Z</time>
      </trkpt>
      <trkpt lat="46.79207" lon="6.19709">
        <ele>1082.1</ele>
        <time>2013-10-27T12:34:45Z</time>
      </trkpt>
      <trkpt lat="46.79207" lon="6.197">
        <ele>1080.66</ele>
        <time>2013-10-27T12:34:46Z</time>
      </trkpt>
      <trkpt lat="46.79206" lon="6.19692">
        <ele>1081.14</ele>
        <time>2013-10-27T12:34:47Z</time>
      </trkpt>
      <trkpt lat="46.79204" lon="6.19683">
        <ele>1080.66</ele>
        <time>2013-10-27T12:34:48Z</time>
      </trkpt>
      <trkpt lat="46.792" lon="6.19675">
        <ele>1080.18</ele>
        <time>2013-10-27T12:34:49Z</time>
      </trkpt>
      <trkpt lat="46.79196" lon="6.19667">
        <ele>1078.74</ele>
        <time>2013-10-27T12:34:50Z</time>
      </trkpt>
      <trkpt lat="46.79192" lon="6.1966">
        <ele>1077.78</ele>
        <time>2013-10-27T12:34:51Z</time>
      </trkpt>
      <trkpt lat="46.79187" lon="6.19653">
        <ele>1076.81</ele>
        <time>2013-10-27T12:34:52Z</time>
      </trkpt>
      <trkpt lat="46.79164" lon="6.19627">
        <ele>1072.97</ele>
        <time>2013-10-27T12:34:56Z</time>
      </trkpt>
      <trkpt lat="46.79146" lon="6.19607">
        <ele>1069.6</ele>
        <time>2013-10-27T12:34:59Z</time>
      </trkpt>
      <trkpt lat="46.79141" lon="6.196">
        <ele>1068.16</ele>
        <time>2013-10-27T12:35:00Z</time>
      </trkpt>
      <trkpt lat="46.79131" lon="6.1959">
        <ele>1063.84</ele>
        <time>2013-10-27T12:35:02Z</time>
      </trkpt>
      <trkpt lat="46.79124" lon="6.19583">
        <ele>1065.76</ele>
        <time>2013-10-27T12:35:04Z</time>
      </trkpt>
      <trkpt lat="46.7913" lon="6.19576">
        <ele>1062.87</ele>
        <time>2013-10-27T12:35:09Z</time>
      </trkpt>
      <trkpt lat="46.79168" lon="6.19587">
        <ele>1063.84</ele>
        <time>2013-10-27T12:35:23Z</time>
      </trkpt>
      <trkpt lat="46.79193" lon="6.19603">
        <ele>1064.32</ele>
        <time>2013-10-27T12:35:34Z</time>
      </trkpt>
      <trkpt lat="46.7924" lon="6.19627">
        <ele>1064.8</ele>
        <time>2013-10-27T12:35:46Z</time>
      </trkpt>
      <trkpt lat="46.79245" lon="6.19628">
        <ele>1064.32</ele>
        <time>2013-10-27T12:35:47Z</time>
      </trkpt>
      <trkpt lat="46.79249" lon="6.19627">
        <ele>1065.76</ele>
        <time>2013-10-27T12:35:48Z</time>
      </trkpt>
      <trkpt lat="46.79253" lon="6.19627">
        <ele>1063.84</ele>
        <time>2013-10-27T12:35:49Z</time>
      </trkpt>
      <trkpt lat="46.79258" lon="6.19625">
        <ele>1064.32</ele>
        <time>2013-10-27T12:35:50Z</time>
      </trkpt>
      <trkpt lat="46.79262" lon="6.19622">
        <ele>1062.87</ele>
        <time>2013-10-27T12:35:51Z</time>
      </trkpt>
      <trkpt lat="46.79267" lon="6.19619">
        <ele>1063.84</ele>
        <time>2013-10-27T12:35:52Z</time>
      </trkpt>
      <trkpt lat="46.79279" lon="6.19613">
        <ele>1061.43</ele>
        <time>2013-10-27T12:35:55Z</time>
      </trkpt>
      <trkpt lat="46.79281" lon="6.19614">
        <ele>1061.43</ele>
        <time>2013-10-27T12:35:56Z</time>
      </trkpt>
      <trkpt lat="46.79289" lon="6.19616">
        <ele>1062.87</ele>
        <time>2013-10-27T12:36:11Z</time>
      </trkpt>
      <trkpt lat="46.79289" lon="6.19616">
        <ele>1062.87</ele>
        <time>2013-10-27T12:36:12Z</time>
      </trkpt>
      <trkpt lat="46.79289" lon="6.19616">
        <ele>1062.39</ele>
        <time>2013-10-27T12:36:19Z</time>
      </trkpt>
      <trkpt lat="46.79289" lon="6.19616">
        <ele>1062.39</ele>
        <time>2013-10-27T12:36:43Z</time>
      </trkpt>
      <trkpt lat="46.79289" lon="6.19616">
        <ele>1060.95</ele>
        <time>2013-10-27T12:36:51Z</time>
      </trkpt>
      <trkpt lat="46.79302" lon="6.1962">
        <ele>1060.95</ele>
        <time>2013-10-27T12:37:44Z</time>
      </trkpt>
      <trkpt lat="46.79303" lon="6.1962">
        <ele>1063.36</ele>
        <time>2013-10-27T12:37:45Z</time>
      </trkpt>
      <trkpt lat="46.79305" lon="6.19621">
        <ele>1061.43</ele>
        <time>2013-10-27T12:37:46Z</time>
      </trkpt>
      <trkpt lat="46.79306" lon="6.19623">
        <ele>1062.39</ele>
        <time>2013-10-27T12:37:47Z</time>
      </trkpt>
      <trkpt lat="46.79308" lon="6.19624">
        <ele>1061.43</ele>
        <time>2013-10-27T12:37:48Z</time>
      </trkpt>
      <trkpt lat="46.7931" lon="6.19626">
        <ele>1061.43</ele>
        <time>2013-10-27T12:37:49Z</time>
      </trkpt>
      <trkpt lat="46.79313" lon="6.19628">
        <ele>1062.39</ele>
        <time>2013-10-27T12:37:50Z</time>
      </trkpt>
      <trkpt lat="46.79338" lon="6.19642">
        <ele>1059.03</ele>
        <time>2013-10-27T12:38:01Z</time>
      </trkpt>
      <trkpt lat="46.79341" lon="6.19642">
        <ele>1059.03</ele>
        <time>2013-10-27T12:38:02Z</time>
      </trkpt>
      <trkpt lat="46.79357" lon="6.19639">
        <ele>1059.99</ele>
        <time>2013-10-27T12:38:11Z</time>
      </trkpt>
      <trkpt lat="46.79368" lon="6.19641">
        <ele>1063.36</ele>
        <time>2013-10-27T12:38:18Z</time>
      </trkpt>
      <trkpt lat="46.79389" lon="6.19643">
        <ele>1062.87</ele>
        <time>2013-10-27T12:38:31Z</time>
      </trkpt>
      <trkpt lat="46.79394" lon="6.19646">
        <ele>1066.24</ele>
        <time>2013-10-27T12:38:34Z</time>
      </trkpt>
      <trkpt lat="46.79395" lon="6.19647">
        <ele>1065.76</ele>
        <time>2013-10-27T12:38:35Z</time>
      </trkpt>
      <trkpt lat="46.79413" lon="6.19658">
        <ele>1067.68</ele>
        <time>2013-10-27T12:38:48Z</time>
      </trkpt>
      <trkpt lat="46.79414" lon="6.19659">
        <ele>1068.16</ele>
        <time>2013-10-27T12:38:49Z</time>
      </trkpt>
      <trkpt lat="46.79417" lon="6.1966">
        <ele>1068.64</ele>
        <time>2013-10-27T12:38:51Z</time>
      </trkpt>
      <trkpt lat="46.79426" lon="6.19673">
        <ele>1069.6</ele>
        <time>2013-10-27T12:39:05Z</time>
      </trkpt>
      <trkpt lat="46.79424" lon="6.19685">
        <ele>1071.53</ele>
        <time>2013-10-27T12:39:18Z</time>
      </trkpt>
      <trkpt lat="46.79422" lon="6.19702">
        <ele>1074.41</ele>
        <time>2013-10-27T12:39:32Z</time>
      </trkpt>
      <trkpt lat="46.79423" lon="6.19711">
        <ele>1073.93</ele>
        <time>2013-10-27T12:39:37Z</time>
      </trkpt>
      <trkpt lat="46.79422" lon="6.1972">
        <ele>1074.41</ele>
        <time>2013-10-27T12:39:52Z</time>
      </trkpt>
      <trkpt lat="46.79422" lon="6.19724">
        <ele>1077.29</ele>
        <time>2013-10-27T12:40:31Z</time>
      </trkpt>
      <trkpt lat="46.79422" lon="6.19725">
        <ele>1076.33</ele>
        <time>2013-10-27T12:40:32Z</time>
      </trkpt>
      <trkpt lat="46.79418" lon="6.19751">
        <ele>1075.37</ele>
        <time>2013-10-27T12:40:46Z</time>
      </trkpt>
      <trkpt lat="46.79411" lon="6.19765">
        <ele>1075.37</ele>
        <time>2013-10-27T12:40:53Z</time>
      </trkpt>
      <trkpt lat="46.79402" lon="6.19784">
        <ele>1077.29</ele>
        <time>2013-10-27T12:41:05Z</time>
      </trkpt>
      <trkpt lat="46.794" lon="6.19788">
        <ele>1077.29</ele>
        <time>2013-10-27T12:41:08Z</time>
      </trkpt>
      <trkpt lat="46.79398" lon="6.19795">
        <ele>1078.26</ele>
        <time>2013-10-27T12:41:12Z</time>
      </trkpt>
      <trkpt lat="46.79383" lon="6.1981">
        <ele>1078.26</ele>
        <time>2013-10-27T12:41:26Z</time>
      </trkpt>
      <trkpt lat="46.79381" lon="6.19812">
        <ele>1079.22</ele>
        <time>2013-10-27T12:41:28Z</time>
      </trkpt>
      <trkpt lat="46.79377" lon="6.19819">
        <ele>1080.66</ele>
        <time>2013-10-27T12:41:34Z</time>
      </trkpt>
      <trkpt lat="46.79372" lon="6.19827">
        <ele>1080.66</ele>
        <time>2013-10-27T12:41:40Z</time>
      </trkpt>
      <trkpt lat="46.79367" lon="6.19835">
        <ele>1081.14</ele>
        <time>2013-10-27T12:41:46Z</time>
      </trkpt>
      <trkpt lat="46.79361" lon="6.19847">
        <ele>1080.66</ele>
        <time>2013-10-27T12:41:53Z</time>
      </trkpt>
      <trkpt lat="46.79359" lon="6.19853">
        <ele>1081.62</ele>
        <time>2013-10-27T12:41:55Z</time>
      </trkpt>
      <trkpt lat="46.79351" lon="6.19879">
        <ele>1082.1</ele>
        <time>2013-10-27T12:42:07Z</time>
      </trkpt>
      <trkpt lat="46.7935" lon="6.19884">
        <ele>1081.62</ele>
        <time>2013-10-27T12:42:09Z</time>
      </trkpt>
      <trkpt lat="46.79355" lon="6.199">
        <ele>1082.58</ele>
        <time>2013-10-27T12:42:16Z</time>
      </trkpt>
      <trkpt lat="46.79368" lon="6.19916">
        <ele>1084.99</ele>
        <time>2013-10-27T12:42:27Z</time>
      </trkpt>
      <trkpt lat="46.79387" lon="6.1993">
        <ele>1085.95</ele>
        <time>2013-10-27T12:42:40Z</time>
      </trkpt>
      <trkpt lat="46.79389" lon="6.19933">
        <ele>1086.91</ele>
        <time>2013-10-27T12:42:42Z</time>
      </trkpt>
      <trkpt lat="46.79392" lon="6.19936">
        <ele>1086.43</ele>
        <time>2013-10-27T12:42:43Z</time>
      </trkpt>
      <trkpt lat="46.79402" lon="6.19962">
        <ele>1084.99</ele>
        <time>2013-10-27T12:42:49Z</time>
      </trkpt>
      <trkpt lat="46.79403" lon="6.19977">
        <ele>1082.1</ele>
        <time>2013-10-27T12:42:51Z</time>
      </trkpt>
      <trkpt lat="46.79405" lon="6.19984">
        <ele>1082.58</ele>
        <time>2013-10-27T12:42:52Z</time>
      </trkpt>
      <trkpt lat="46.79407" lon="6.20011">
        <ele>1083.06</ele>
        <time>2013-10-27T12:43:00Z</time>
      </trkpt>
      <trkpt lat="46.79412" lon="6.20032">
        <ele>1083.06</ele>
        <time>2013-10-27T12:43:07Z</time>
      </trkpt>
      <trkpt lat="46.79424" lon="6.2005">
        <ele>1081.14</ele>
        <time>2013-10-27T12:43:16Z</time>
      </trkpt>
      <trkpt lat="46.79425" lon="6.20052">
        <ele>1081.14</ele>
        <time>2013-10-27T12:43:17Z</time>
      </trkpt>
      <trkpt lat="46.79426" lon="6.20054">
        <ele>1081.14</ele>
        <time>2013-10-27T12:43:18Z</time>
      </trkpt>
      <trkpt lat="46.79429" lon="6.20057">
        <ele>1082.58</ele>
        <time>2013-10-27T12:43:20Z</time>
      </trkpt>
      <trkpt lat="46.79431" lon="6.20059">
        <ele>1083.06</ele>
        <time>2013-10-27T12:43:21Z</time>
      </trkpt>
      <trkpt lat="46.7944" lon="6.20065">
        <ele>1084.02</ele>
        <time>2013-10-27T12:43:25Z</time>
      </trkpt>
      <trkpt lat="46.79442" lon="6.20067">
        <ele>1083.54</ele>
        <time>2013-10-27T12:43:26Z</time>
      </trkpt>
      <trkpt lat="46.79465" lon="6.20096">
        <ele>1083.54</ele>
        <time>2013-10-27T12:43:37Z</time>
      </trkpt>
      <trkpt lat="46.79486" lon="6.20113">
        <ele>1082.1</ele>
        <time>2013-10-27T12:43:47Z</time>
      </trkpt>
      <trkpt lat="46.79503" lon="6.20114">
        <ele>1082.58</ele>
        <time>2013-10-27T12:43:54Z</time>
      </trkpt>
      <trkpt lat="46.79522" lon="6.20111">
        <ele>1082.58</ele>
        <time>2013-10-27T12:44:06Z</time>
      </trkpt>
      <trkpt lat="46.79556" lon="6.20117">
        <ele>1084.99</ele>
        <time>2013-10-27T12:44:22Z</time>
      </trkpt>
      <trkpt lat="46.79558" lon="6.20115">
        <ele>1083.54</ele>
        <time>2013-10-27T12:49:21Z</time>
      </trkpt>
      <trkpt lat="46.79564" lon="6.20105">
        <ele>1083.06</ele>
        <time>2013-10-27T12:49:26Z</time>
      </trkpt>
      <trkpt lat="46.79563" lon="6.20046">
        <ele>1082.58</ele>
        <time>2013-10-27T12:49:38Z</time>
      </trkpt>
      <trkpt lat="46.79572" lon="6.2002">
        <ele>1083.54</ele>
        <time>2013-10-27T12:49:47Z</time>
      </trkpt>
      <trkpt lat="46.79573" lon="6.20018">
        <ele>1084.02</ele>
        <time>2013-10-27T12:50:11Z</time>
      </trkpt>
      <trkpt lat="46.79574" lon="6.20014">
        <ele>1084.5</ele>
        <time>2013-10-27T12:50:13Z</time>
      </trkpt>
      <trkpt lat="46.79577" lon="6.2001">
        <ele>1084.99</ele>
        <time>2013-10-27T12:50:17Z</time>
      </trkpt>
      <trkpt lat="46.79584" lon="6.1999">
        <ele>1087.39</ele>
        <time>2013-10-27T12:50:30Z</time>
      </trkpt>
      <trkpt lat="46.79587" lon="6.19976">
        <ele>1088.35</ele>
        <time>2013-10-27T12:50:44Z</time>
      </trkpt>
      <trkpt lat="46.79587" lon="6.1997">
        <ele>1088.35</ele>
        <time>2013-10-27T12:50:47Z</time>
      </trkpt>
      <trkpt lat="46.79588" lon="6.19945">
        <ele>1089.31</ele>
        <time>2013-10-27T12:50:53Z</time>
      </trkpt>
      <trkpt lat="46.79595" lon="6.19926">
        <ele>1089.31</ele>
        <time>2013-10-27T12:51:00Z</time>
      </trkpt>
      <trkpt lat="46.79605" lon="6.19897">
        <ele>1089.31</ele>
        <time>2013-10-27T12:51:10Z</time>
      </trkpt>
      <trkpt lat="46.79613" lon="6.19891">
        <ele>1089.31</ele>
        <time>2013-10-27T12:51:16Z</time>
      </trkpt>
      <trkpt lat="46.79619" lon="6.19886">
        <ele>1089.79</ele>
        <time>2013-10-27T12:51:20Z</time>
      </trkpt>
      <trkpt lat="46.79647" lon="6.19862">
        <ele>1086.91</ele>
        <time>2013-10-27T12:51:30Z</time>
      </trkpt>
      <trkpt lat="46.79655" lon="6.19854">
        <ele>1087.39</ele>
        <time>2013-10-27T12:51:34Z</time>
      </trkpt>
      <trkpt lat="46.79667" lon="6.19837">
        <ele>1089.31</ele>
        <time>2013-10-27T12:51:40Z</time>
      </trkpt>
      <trkpt lat="46.79675" lon="6.19823">
        <ele>1089.31</ele>
        <time>2013-10-27T12:51:45Z</time>
      </trkpt>
      <trkpt lat="46.79695" lon="6.19807">
        <ele>1087.39</ele>
        <time>2013-10-27T12:51:54Z</time>
      </trkpt>
      <trkpt lat="46.79724" lon="6.19812">
        <ele>1083.54</ele>
        <time>2013-10-27T12:52:03Z</time>
      </trkpt>
      <trkpt lat="46.79754" lon="6.19813">
        <ele>1084.99</ele>
        <time>2013-10-27T12:52:13Z</time>
      </trkpt>
      <trkpt lat="46.79786" lon="6.19822">
        <ele>1084.99</ele>
        <time>2013-10-27T12:52:24Z</time>
      </trkpt>
      <trkpt lat="46.79808" lon="6.19835">
        <ele>1084.02</ele>
        <time>2013-10-27T12:52:33Z</time>
      </trkpt>
      <trkpt lat="46.7982" lon="6.19834">
        <ele>1083.06</ele>
        <time>2013-10-27T12:52:38Z</time>
      </trkpt>
      <trkpt lat="46.79823" lon="6.1983">
        <ele>1082.58</ele>
        <time>2013-10-27T12:52:42Z</time>
      </trkpt>
      <trkpt lat="46.79823" lon="6.19826">
        <ele>1076.33</ele>
        <time>2013-10-27T12:52:47Z</time>
      </trkpt>
      <trkpt lat="46.79823" lon="6.19826">
        <ele>1080.66</ele>
        <time>2013-10-27T12:52:48Z</time>
      </trkpt>
      <trkpt lat="46.79823" lon="6.19826">
        <ele>1081.62</ele>
        <time>2013-10-27T12:53:05Z</time>
      </trkpt>
      <trkpt lat="46.79828" lon="6.19817">
        <ele>1078.26</ele>
        <time>2013-10-27T12:53:17Z</time>
      </trkpt>
      <trkpt lat="46.79831" lon="6.19811">
        <ele>1073.93</ele>
        <time>2013-10-27T12:53:23Z</time>
      </trkpt>
      <trkpt lat="46.79832" lon="6.1981">
        <ele>1074.41</ele>
        <time>2013-10-27T12:53:24Z</time>
      </trkpt>
      <trkpt lat="46.79834" lon="6.19806">
        <ele>1071.53</ele>
        <time>2013-10-27T12:53:27Z</time>
      </trkpt>
      <trkpt lat="46.79839" lon="6.19801">
        <ele>1070.57</ele>
        <time>2013-10-27T12:53:33Z</time>
      </trkpt>
      <trkpt lat="46.79842" lon="6.19781">
        <ele>1067.2</ele>
        <time>2013-10-27T12:53:39Z</time>
      </trkpt>
      <trkpt lat="46.79847" lon="6.19753">
        <ele>1063.84</ele>
        <time>2013-10-27T12:53:47Z</time>
      </trkpt>
      <trkpt lat="46.79848" lon="6.1975">
        <ele>1063.84</ele>
        <time>2013-10-27T12:53:48Z</time>
      </trkpt>
      <trkpt lat="46.79851" lon="6.19737">
        <ele>1061.43</ele>
        <time>2013-10-27T12:53:52Z</time>
      </trkpt>
      <trkpt lat="46.79855" lon="6.19722">
        <ele>1058.07</ele>
        <time>2013-10-27T12:53:57Z</time>
      </trkpt>
      <trkpt lat="46.79857" lon="6.19716">
        <ele>1056.63</ele>
        <time>2013-10-27T12:53:59Z</time>
      </trkpt>
      <trkpt lat="46.79861" lon="6.197">
        <ele>1052.3</ele>
        <time>2013-10-27T12:54:04Z</time>
      </trkpt>
      <trkpt lat="46.79864" lon="6.19689">
        <ele>1049.9</ele>
        <time>2013-10-27T12:54:06Z</time>
      </trkpt>
      <trkpt lat="46.79866" lon="6.19684">
        <ele>1048.94</ele>
        <time>2013-10-27T12:54:07Z</time>
      </trkpt>
      <trkpt lat="46.79869" lon="6.19678">
        <ele>1048.94</ele>
        <time>2013-10-27T12:54:08Z</time>
      </trkpt>
      <trkpt lat="46.79877" lon="6.19663">
        <ele>1046.53</ele>
        <time>2013-10-27T12:54:11Z</time>
      </trkpt>
      <trkpt lat="46.79889" lon="6.19636">
        <ele>1047.49</ele>
        <time>2013-10-27T12:54:19Z</time>
      </trkpt>
      <trkpt lat="46.79892" lon="6.19633">
        <ele>1047.49</ele>
        <time>2013-10-27T12:54:20Z</time>
      </trkpt>
      <trkpt lat="46.79897" lon="6.19627">
        <ele>1046.05</ele>
        <time>2013-10-27T12:54:22Z</time>
      </trkpt>
      <trkpt lat="46.79909" lon="6.19615">
        <ele>1045.09</ele>
        <time>2013-10-27T12:54:26Z</time>
      </trkpt>
      <trkpt lat="46.79912" lon="6.1961">
        <ele>1043.65</ele>
        <time>2013-10-27T12:54:27Z</time>
      </trkpt>
      <trkpt lat="46.79914" lon="6.19606">
        <ele>1043.65</ele>
        <time>2013-10-27T12:54:28Z</time>
      </trkpt>
      <trkpt lat="46.79917" lon="6.19601">
        <ele>1043.17</ele>
        <time>2013-10-27T12:54:29Z</time>
      </trkpt>
      <trkpt lat="46.79919" lon="6.19596">
        <ele>1041.73</ele>
        <time>2013-10-27T12:54:30Z</time>
      </trkpt>
      <trkpt lat="46.79921" lon="6.1959">
        <ele>1042.69</ele>
        <time>2013-10-27T12:54:31Z</time>
      </trkpt>
      <trkpt lat="46.79931" lon="6.19569">
        <ele>1041.73</ele>
        <time>2013-10-27T12:54:37Z</time>
      </trkpt>
      <trkpt lat="46.79944" lon="6.19555">
        <ele>1041.25</ele>
        <time>2013-10-27T12:54:42Z</time>
      </trkpt>
      <trkpt lat="46.79967" lon="6.19543">
        <ele>1038.36</ele>
        <time>2013-10-27T12:54:48Z</time>
      </trkpt>
      <trkpt lat="46.79971" lon="6.19543">
        <ele>1036.92</ele>
        <time>2013-10-27T12:54:49Z</time>
      </trkpt>
      <trkpt lat="46.79994" lon="6.19546">
        <ele>1035</ele>
        <time>2013-10-27T12:54:53Z</time>
      </trkpt>
      <trkpt lat="46.80022" lon="6.19555">
        <ele>1033.07</ele>
        <time>2013-10-27T12:54:58Z</time>
      </trkpt>
      <trkpt lat="46.80026" lon="6.19557">
        <ele>1033.07</ele>
        <time>2013-10-27T12:54:59Z</time>
      </trkpt>
      <trkpt lat="46.80037" lon="6.19559">
        <ele>1030.19</ele>
        <time>2013-10-27T12:55:01Z</time>
      </trkpt>
      <trkpt lat="46.80043" lon="6.1956">
        <ele>1029.23</ele>
        <time>2013-10-27T12:55:02Z</time>
      </trkpt>
      <trkpt lat="46.80048" lon="6.19559">
        <ele>1028.75</ele>
        <time>2013-10-27T12:55:03Z</time>
      </trkpt>
      <trkpt lat="46.80052" lon="6.19555">
        <ele>1028.75</ele>
        <time>2013-10-27T12:55:04Z</time>
      </trkpt>
      <trkpt lat="46.80056" lon="6.19551">
        <ele>1029.71</ele>
        <time>2013-10-27T12:55:05Z</time>
      </trkpt>
      <trkpt lat="46.8006" lon="6.19546">
        <ele>1028.75</ele>
        <time>2013-10-27T12:55:06Z</time>
      </trkpt>
      <trkpt lat="46.80074" lon="6.19531">
        <ele>1028.75</ele>
        <time>2013-10-27T12:55:24Z</time>
      </trkpt>
      <trkpt lat="46.80071" lon="6.19527">
        <ele>1028.27</ele>
        <time>2013-10-27T12:55:25Z</time>
      </trkpt>
      <trkpt lat="46.80069" lon="6.19524">
        <ele>1027.79</ele>
        <time>2013-10-27T12:55:26Z</time>
      </trkpt>
      <trkpt lat="46.80066" lon="6.1952">
        <ele>1028.27</ele>
        <time>2013-10-27T12:55:27Z</time>
      </trkpt>
      <trkpt lat="46.8003" lon="6.19485">
        <ele>1025.86</ele>
        <time>2013-10-27T12:55:39Z</time>
      </trkpt>
      <trkpt lat="46.80027" lon="6.19482">
        <ele>1024.9</ele>
        <time>2013-10-27T12:55:41Z</time>
      </trkpt>
      <trkpt lat="46.80026" lon="6.1948">
        <ele>1025.38</ele>
        <time>2013-10-27T12:55:59Z</time>
      </trkpt>
      <trkpt lat="46.80026" lon="6.1948">
        <ele>1024.9</ele>
        <time>2013-10-27T12:56:23Z</time>
      </trkpt>
      <trkpt lat="46.80013" lon="6.19465">
        <ele>1023.94</ele>
        <time>2013-10-27T12:56:50Z</time>
      </trkpt>
      <trkpt lat="46.79998" lon="6.19447">
        <ele>1022.02</ele>
        <time>2013-10-27T12:56:54Z</time>
      </trkpt>
      <trkpt lat="46.79991" lon="6.19435">
        <ele>1021.06</ele>
        <time>2013-10-27T12:56:56Z</time>
      </trkpt>
      <trkpt lat="46.79985" lon="6.19423">
        <ele>1021.54</ele>
        <time>2013-10-27T12:56:58Z</time>
      </trkpt>
      <trkpt lat="46.79976" lon="6.19408">
        <ele>1020.58</ele>
        <time>2013-10-27T12:57:01Z</time>
      </trkpt>
      <trkpt lat="46.79958" lon="6.19374">
        <ele>1019.62</ele>
        <time>2013-10-27T12:57:08Z</time>
      </trkpt>
      <trkpt lat="46.79954" lon="6.19359">
        <ele>1017.69</ele>
        <time>2013-10-27T12:59:48Z</time>
      </trkpt>
      <trkpt lat="46.79941" lon="6.19347">
        <ele>1016.73</ele>
        <time>2013-10-27T12:59:57Z</time>
      </trkpt>
      <trkpt lat="46.79948" lon="6.19323">
        <ele>1016.25</ele>
        <time>2013-10-27T13:00:08Z</time>
      </trkpt>
      <trkpt lat="46.79955" lon="6.19299">
        <ele>1015.77</ele>
        <time>2013-10-27T13:00:15Z</time>
      </trkpt>
      <trkpt lat="46.79954" lon="6.19285">
        <ele>1014.81</ele>
        <time>2013-10-27T13:00:18Z</time>
      </trkpt>
      <trkpt lat="46.7995" lon="6.19273">
        <ele>1013.85</ele>
        <time>2013-10-27T13:00:20Z</time>
      </trkpt>
      <trkpt lat="46.79953" lon="6.19233">
        <ele>1010.48</ele>
        <time>2013-10-27T13:00:28Z</time>
      </trkpt>
      <trkpt lat="46.79953" lon="6.19227">
        <ele>1010</ele>
        <time>2013-10-27T13:00:29Z</time>
      </trkpt>
      <trkpt lat="46.79951" lon="6.1921">
        <ele>1008.56</ele>
        <time>2013-10-27T13:00:34Z</time>
      </trkpt>
      <trkpt lat="46.79946" lon="6.19205">
        <ele>1007.6</ele>
        <time>2013-10-27T13:00:36Z</time>
      </trkpt>
      <trkpt lat="46.79937" lon="6.192">
        <ele>1005.2</ele>
        <time>2013-10-27T13:00:38Z</time>
      </trkpt>
      <trkpt lat="46.79928" lon="6.19193">
        <ele>1003.75</ele>
        <time>2013-10-27T13:00:40Z</time>
      </trkpt>
      <trkpt lat="46.79921" lon="6.19165">
        <ele>1001.35</ele>
        <time>2013-10-27T13:00:47Z</time>
      </trkpt>
      <trkpt lat="46.79924" lon="6.1916">
        <ele>1001.35</ele>
        <time>2013-10-27T13:00:50Z</time>
      </trkpt>
      <trkpt lat="46.79932" lon="6.19141">
        <ele>996.54</ele>
        <time>2013-10-27T13:00:58Z</time>
      </trkpt>
      <trkpt lat="46.79936" lon="6.19135">
        <ele>996.06</ele>
        <time>2013-10-27T13:01:00Z</time>
      </trkpt>
      <trkpt lat="46.79939" lon="6.19133">
        <ele>995.1</ele>
        <time>2013-10-27T13:01:01Z</time>
      </trkpt>
      <trkpt lat="46.79951" lon="6.19125">
        <ele>992.22</ele>
        <time>2013-10-27T13:01:06Z</time>
      </trkpt>
      <trkpt lat="46.79958" lon="6.19111">
        <ele>988.85</ele>
        <time>2013-10-27T13:01:11Z</time>
      </trkpt>
      <trkpt lat="46.79962" lon="6.19105">
        <ele>987.41</ele>
        <time>2013-10-27T13:01:13Z</time>
      </trkpt>
      <trkpt lat="46.79964" lon="6.19091">
        <ele>983.57</ele>
        <time>2013-10-27T13:01:17Z</time>
      </trkpt>
      <trkpt lat="46.79959" lon="6.19076">
        <ele>981.64</ele>
        <time>2013-10-27T13:01:22Z</time>
      </trkpt>
      <trkpt lat="46.79956" lon="6.19072">
        <ele>980.2</ele>
        <time>2013-10-27T13:01:40Z</time>
      </trkpt>
      <trkpt lat="46.79954" lon="6.19069">
        <ele>980.68</ele>
        <time>2013-10-27T13:01:41Z</time>
      </trkpt>
      <trkpt lat="46.79949" lon="6.19057">
        <ele>977.32</ele>
        <time>2013-10-27T13:01:44Z</time>
      </trkpt>
      <trkpt lat="46.79946" lon="6.19052">
        <ele>976.36</ele>
        <time>2013-10-27T13:01:45Z</time>
      </trkpt>
      <trkpt lat="46.79936" lon="6.19023">
        <ele>972.51</ele>
        <time>2013-10-27T13:01:49Z</time>
      </trkpt>
      <trkpt lat="46.79933" lon="6.19015">
        <ele>971.55</ele>
        <time>2013-10-27T13:01:50Z</time>
      </trkpt>
      <trkpt lat="46.7992" lon="6.18987">
        <ele>971.55</ele>
        <time>2013-10-27T13:01:54Z</time>
      </trkpt>
      <trkpt lat="46.7991" lon="6.18971">
        <ele>969.63</ele>
        <time>2013-10-27T13:01:57Z</time>
      </trkpt>
      <trkpt lat="46.799" lon="6.18952">
        <ele>965.78</ele>
        <time>2013-10-27T13:02:02Z</time>
      </trkpt>
      <trkpt lat="46.79894" lon="6.18945">
        <ele>962.9</ele>
        <time>2013-10-27T13:02:05Z</time>
      </trkpt>
      <trkpt lat="46.79879" lon="6.18931">
        <ele>957.61</ele>
        <time>2013-10-27T13:02:09Z</time>
      </trkpt>
      <trkpt lat="46.79876" lon="6.18927">
        <ele>958.09</ele>
        <time>2013-10-27T13:02:10Z</time>
      </trkpt>
      <trkpt lat="46.79858" lon="6.189">
        <ele>955.69</ele>
        <time>2013-10-27T13:02:19Z</time>
      </trkpt>
      <trkpt lat="46.79858" lon="6.18899">
        <ele>955.21</ele>
        <time>2013-10-27T13:02:20Z</time>
      </trkpt>
      <trkpt lat="46.79857" lon="6.18892">
        <ele>954.73</ele>
        <time>2013-10-27T13:02:37Z</time>
      </trkpt>
      <trkpt lat="46.79857" lon="6.18889">
        <ele>955.21</ele>
        <time>2013-10-27T13:02:40Z</time>
      </trkpt>
      <trkpt lat="46.79856" lon="6.18884">
        <ele>955.21</ele>
        <time>2013-10-27T13:02:42Z</time>
      </trkpt>
      <trkpt lat="46.79856" lon="6.1888">
        <ele>954.73</ele>
        <time>2013-10-27T13:02:44Z</time>
      </trkpt>
      <trkpt lat="46.79854" lon="6.18873">
        <ele>954.73</ele>
        <time>2013-10-27T13:02:55Z</time>
      </trkpt>
      <trkpt lat="46.79855" lon="6.18867">
        <ele>954.73</ele>
        <time>2013-10-27T13:03:08Z</time>
      </trkpt>
      <trkpt lat="46.79851" lon="6.18859">
        <ele>957.13</ele>
        <time>2013-10-27T13:03:22Z</time>
      </trkpt>
      <trkpt lat="46.79843" lon="6.18853">
        <ele>957.13</ele>
        <time>2013-10-27T13:03:36Z</time>
      </trkpt>
      <trkpt lat="46.79843" lon="6.18853">
        <ele>957.13</ele>
        <time>2013-10-27T13:03:39Z</time>
      </trkpt>
      <trkpt lat="46.7984" lon="6.18838">
        <ele>956.17</ele>
        <time>2013-10-27T13:03:49Z</time>
      </trkpt>
      <trkpt lat="46.79839" lon="6.18825">
        <ele>956.65</ele>
        <time>2013-10-27T13:03:55Z</time>
      </trkpt>
      <trkpt lat="46.79825" lon="6.18802">
        <ele>957.13</ele>
        <time>2013-10-27T13:04:07Z</time>
      </trkpt>
      <trkpt lat="46.79824" lon="6.188">
        <ele>955.69</ele>
        <time>2013-10-27T13:04:08Z</time>
      </trkpt>
      <trkpt lat="46.79817" lon="6.1879">
        <ele>955.69</ele>
        <time>2013-10-27T13:04:13Z</time>
      </trkpt>
      <trkpt lat="46.7981" lon="6.18782">
        <ele>955.69</ele>
        <time>2013-10-27T13:04:19Z</time>
      </trkpt>
      <trkpt lat="46.79808" lon="6.18778">
        <ele>955.21</ele>
        <time>2013-10-27T13:04:21Z</time>
      </trkpt>
      <trkpt lat="46.79801" lon="6.18767">
        <ele>955.21</ele>
        <time>2013-10-27T13:04:26Z</time>
      </trkpt>
      <trkpt lat="46.79795" lon="6.18759">
        <ele>954.73</ele>
        <time>2013-10-27T13:04:29Z</time>
      </trkpt>
      <trkpt lat="46.79787" lon="6.1875">
        <ele>953.77</ele>
        <time>2013-10-27T13:04:35Z</time>
      </trkpt>
      <trkpt lat="46.79759" lon="6.18723">
        <ele>951.84</ele>
        <time>2013-10-27T13:04:46Z</time>
      </trkpt>
      <trkpt lat="46.79745" lon="6.18708">
        <ele>948.96</ele>
        <time>2013-10-27T13:04:54Z</time>
      </trkpt>
      <trkpt lat="46.7974" lon="6.18698">
        <ele>946.56</ele>
        <time>2013-10-27T13:04:58Z</time>
      </trkpt>
      <trkpt lat="46.79734" lon="6.1869">
        <ele>946.07</ele>
        <time>2013-10-27T13:05:00Z</time>
      </trkpt>
      <trkpt lat="46.79726" lon="6.18675">
        <ele>943.19</ele>
        <time>2013-10-27T13:05:05Z</time>
      </trkpt>
      <trkpt lat="46.79716" lon="6.18653">
        <ele>939.83</ele>
        <time>2013-10-27T13:05:11Z</time>
      </trkpt>
      <trkpt lat="46.79716" lon="6.18634">
        <ele>937.42</ele>
        <time>2013-10-27T13:05:16Z</time>
      </trkpt>
      <trkpt lat="46.79717" lon="6.18618">
        <ele>934.06</ele>
        <time>2013-10-27T13:05:22Z</time>
      </trkpt>
      <trkpt lat="46.79723" lon="6.186">
        <ele>931.17</ele>
        <time>2013-10-27T13:05:26Z</time>
      </trkpt>
      <trkpt lat="46.7973" lon="6.18594">
        <ele>930.21</ele>
        <time>2013-10-27T13:05:28Z</time>
      </trkpt>
      <trkpt lat="46.79734" lon="6.18591">
        <ele>929.73</ele>
        <time>2013-10-27T13:05:29Z</time>
      </trkpt>
      <trkpt lat="46.79738" lon="6.18589">
        <ele>928.77</ele>
        <time>2013-10-27T13:05:30Z</time>
      </trkpt>
      <trkpt lat="46.79762" lon="6.1857">
        <ele>927.33</ele>
        <time>2013-10-27T13:05:39Z</time>
      </trkpt>
      <trkpt lat="46.79764" lon="6.18568">
        <ele>926.37</ele>
        <time>2013-10-27T13:05:50Z</time>
      </trkpt>
      <trkpt lat="46.79763" lon="6.18566">
        <ele>927.33</ele>
        <time>2013-10-27T13:06:32Z</time>
      </trkpt>
      <trkpt lat="46.79764" lon="6.18563">
        <ele>927.33</ele>
        <time>2013-10-27T13:06:54Z</time>
      </trkpt>
      <trkpt lat="46.79765" lon="6.1856">
        <ele>926.37</ele>
        <time>2013-10-27T13:06:55Z</time>
      </trkpt>
      <trkpt lat="46.79766" lon="6.18557">
        <ele>926.37</ele>
        <time>2013-10-27T13:06:56Z</time>
      </trkpt>
      <trkpt lat="46.79767" lon="6.18553">
        <ele>925.89</ele>
        <time>2013-10-27T13:06:57Z</time>
      </trkpt>
      <trkpt lat="46.79772" lon="6.18545">
        <ele>924.93</ele>
        <time>2013-10-27T13:07:01Z</time>
      </trkpt>
      <trkpt lat="46.79774" lon="6.18544">
        <ele>924.93</ele>
        <time>2013-10-27T13:07:02Z</time>
      </trkpt>
      <trkpt lat="46.79776" lon="6.18542">
        <ele>923.96</ele>
        <time>2013-10-27T13:07:03Z</time>
      </trkpt>
      <trkpt lat="46.79775" lon="6.18536">
        <ele>923</ele>
        <time>2013-10-27T13:07:11Z</time>
      </trkpt>
      <trkpt lat="46.79776" lon="6.18533">
        <ele>923.48</ele>
        <time>2013-10-27T13:07:12Z</time>
      </trkpt>
      <trkpt lat="46.79777" lon="6.18529">
        <ele>923</ele>
        <time>2013-10-27T13:07:13Z</time>
      </trkpt>
      <trkpt lat="46.79778" lon="6.18524">
        <ele>923.48</ele>
        <time>2013-10-27T13:07:14Z</time>
      </trkpt>
      <trkpt lat="46.7978" lon="6.1852">
        <ele>922.52</ele>
        <time>2013-10-27T13:07:15Z</time>
      </trkpt>
      <trkpt lat="46.7979" lon="6.18483">
        <ele>918.68</ele>
        <time>2013-10-27T13:07:23Z</time>
      </trkpt>
      <trkpt lat="46.79794" lon="6.18472">
        <ele>917.72</ele>
        <time>2013-10-27T13:07:25Z</time>
      </trkpt>
      <trkpt lat="46.79796" lon="6.18466">
        <ele>916.75</ele>
        <time>2013-10-27T13:07:26Z</time>
      </trkpt>
      <trkpt lat="46.79818" lon="6.18399">
        <ele>913.39</ele>
        <time>2013-10-27T13:07:35Z</time>
      </trkpt>
      <trkpt lat="46.79825" lon="6.18384">
        <ele>912.91</ele>
        <time>2013-10-27T13:07:37Z</time>
      </trkpt>
      <trkpt lat="46.79838" lon="6.1836">
        <ele>910.03</ele>
        <time>2013-10-27T13:07:41Z</time>
      </trkpt>
      <trkpt lat="46.79862" lon="6.1833">
        <ele>906.66</ele>
        <time>2013-10-27T13:07:47Z</time>
      </trkpt>
      <trkpt lat="46.79867" lon="6.18323">
        <ele>899.93</ele>
        <time>2013-10-27T13:31:12Z</time>
      </trkpt>
      <trkpt lat="46.79842" lon="6.18333">
        <ele>901.85</ele>
        <time>2013-10-27T13:31:25Z</time>
      </trkpt>
      <trkpt lat="46.79813" lon="6.18345">
        <ele>903.78</ele>
        <time>2013-10-27T13:31:41Z</time>
      </trkpt>
      <trkpt lat="46.79787" lon="6.1836">
        <ele>907.14</ele>
        <time>2013-10-27T13:31:55Z</time>
      </trkpt>
      <trkpt lat="46.79763" lon="6.18374">
        <ele>908.58</ele>
        <time>2013-10-27T13:32:09Z</time>
      </trkpt>
      <trkpt lat="46.79738" lon="6.18389">
        <ele>911.47</ele>
        <time>2013-10-27T13:32:23Z</time>
      </trkpt>
      <trkpt lat="46.79717" lon="6.18398">
        <ele>912.43</ele>
        <time>2013-10-27T13:32:34Z</time>
      </trkpt>
      <trkpt lat="46.7969" lon="6.18406">
        <ele>915.31</ele>
        <time>2013-10-27T13:32:49Z</time>
      </trkpt>
      <trkpt lat="46.79663" lon="6.18414">
        <ele>917.24</ele>
        <time>2013-10-27T13:33:04Z</time>
      </trkpt>
      <trkpt lat="46.79654" lon="6.18417">
        <ele>917.72</ele>
        <time>2013-10-27T13:33:09Z</time>
      </trkpt>
      <trkpt lat="46.79646" lon="6.18409">
        <ele>917.24</ele>
        <time>2013-10-27T13:33:16Z</time>
      </trkpt>
      <trkpt lat="46.79646" lon="6.18389">
        <ele>916.27</ele>
        <time>2013-10-27T13:33:23Z</time>
      </trkpt>
      <trkpt lat="46.79649" lon="6.18344">
        <ele>912.91</ele>
        <time>2013-10-27T13:33:31Z</time>
      </trkpt>
      <trkpt lat="46.79648" lon="6.18328">
        <ele>912.91</ele>
        <time>2013-10-27T13:33:33Z</time>
      </trkpt>
      <trkpt lat="46.79646" lon="6.1832">
        <ele>911.47</ele>
        <time>2013-10-27T13:33:34Z</time>
      </trkpt>
      <trkpt lat="46.79643" lon="6.18314">
        <ele>911.47</ele>
        <time>2013-10-27T13:33:35Z</time>
      </trkpt>
      <trkpt lat="46.79631" lon="6.18296">
        <ele>910.51</ele>
        <time>2013-10-27T13:33:41Z</time>
      </trkpt>
      <trkpt lat="46.7963" lon="6.18295">
        <ele>910.51</ele>
        <time>2013-10-27T13:33:42Z</time>
      </trkpt>
      <trkpt lat="46.79629" lon="6.18293">
        <ele>910.03</ele>
        <time>2013-10-27T13:33:43Z</time>
      </trkpt>
      <trkpt lat="46.79628" lon="6.18291">
        <ele>910.03</ele>
        <time>2013-10-27T13:33:44Z</time>
      </trkpt>
      <trkpt lat="46.79626" lon="6.18289">
        <ele>910.99</ele>
        <time>2013-10-27T13:33:45Z</time>
      </trkpt>
      <trkpt lat="46.79623" lon="6.18287">
        <ele>910.51</ele>
        <time>2013-10-27T13:33:46Z</time>
      </trkpt>
      <trkpt lat="46.79611" lon="6.18279">
        <ele>913.87</ele>
        <time>2013-10-27T13:33:54Z</time>
      </trkpt>
      <trkpt lat="46.7961" lon="6.18278">
        <ele>912.91</ele>
        <time>2013-10-27T13:33:55Z</time>
      </trkpt>
      <trkpt lat="46.79609" lon="6.18277">
        <ele>905.7</ele>
        <time>2013-10-27T13:33:56Z</time>
      </trkpt>
      <trkpt lat="46.79607" lon="6.18276">
        <ele>910.51</ele>
        <time>2013-10-27T13:33:57Z</time>
      </trkpt>
      <trkpt lat="46.79593" lon="6.18264">
        <ele>909.54</ele>
        <time>2013-10-27T13:34:07Z</time>
      </trkpt>
      <trkpt lat="46.79581" lon="6.18257">
        <ele>906.18</ele>
        <time>2013-10-27T13:34:12Z</time>
      </trkpt>
      <trkpt lat="46.7956" lon="6.18232">
        <ele>907.14</ele>
        <time>2013-10-27T13:34:18Z</time>
      </trkpt>
      <trkpt lat="46.79552" lon="6.18219">
        <ele>909.06</ele>
        <time>2013-10-27T13:34:21Z</time>
      </trkpt>
      <trkpt lat="46.79522" lon="6.18181">
        <ele>910.99</ele>
        <time>2013-10-27T13:34:33Z</time>
      </trkpt>
      <trkpt lat="46.79502" lon="6.18173">
        <ele>911.47</ele>
        <time>2013-10-27T13:34:41Z</time>
      </trkpt>
      <trkpt lat="46.79491" lon="6.18167">
        <ele>913.87</ele>
        <time>2013-10-27T13:34:52Z</time>
      </trkpt>
      <trkpt lat="46.79489" lon="6.18165">
        <ele>913.39</ele>
        <time>2013-10-27T13:34:54Z</time>
      </trkpt>
      <trkpt lat="46.79466" lon="6.18143">
        <ele>915.79</ele>
        <time>2013-10-27T13:35:06Z</time>
      </trkpt>
      <trkpt lat="46.79445" lon="6.18121">
        <ele>915.79</ele>
        <time>2013-10-27T13:35:18Z</time>
      </trkpt>
      <trkpt lat="46.79422" lon="6.18096">
        <ele>919.64</ele>
        <time>2013-10-27T13:35:28Z</time>
      </trkpt>
      <trkpt lat="46.79393" lon="6.18068">
        <ele>919.16</ele>
        <time>2013-10-27T13:35:42Z</time>
      </trkpt>
      <trkpt lat="46.79383" lon="6.18052">
        <ele>920.12</ele>
        <time>2013-10-27T13:35:52Z</time>
      </trkpt>
      <trkpt lat="46.79372" lon="6.18034">
        <ele>918.68</ele>
        <time>2013-10-27T13:36:03Z</time>
      </trkpt>
      <trkpt lat="46.79366" lon="6.18026">
        <ele>917.72</ele>
        <time>2013-10-27T13:36:07Z</time>
      </trkpt>
      <trkpt lat="46.79358" lon="6.1801">
        <ele>917.24</ele>
        <time>2013-10-27T13:36:14Z</time>
      </trkpt>
      <trkpt lat="46.79346" lon="6.17982">
        <ele>916.27</ele>
        <time>2013-10-27T13:36:21Z</time>
      </trkpt>
      <trkpt lat="46.79336" lon="6.17946">
        <ele>915.31</ele>
        <time>2013-10-27T13:36:32Z</time>
      </trkpt>
      <trkpt lat="46.79334" lon="6.17938">
        <ele>914.35</ele>
        <time>2013-10-27T13:36:35Z</time>
      </trkpt>
      <trkpt lat="46.79332" lon="6.1792">
        <ele>912.43</ele>
        <time>2013-10-27T13:36:41Z</time>
      </trkpt>
      <trkpt lat="46.79323" lon="6.17902">
        <ele>909.54</ele>
        <time>2013-10-27T13:36:50Z</time>
      </trkpt>
      <trkpt lat="46.79311" lon="6.17878">
        <ele>908.58</ele>
        <time>2013-10-27T13:37:01Z</time>
      </trkpt>
      <trkpt lat="46.79305" lon="6.17848">
        <ele>906.66</ele>
        <time>2013-10-27T13:37:09Z</time>
      </trkpt>
      <trkpt lat="46.79306" lon="6.17837">
        <ele>906.18</ele>
        <time>2013-10-27T13:37:12Z</time>
      </trkpt>
      <trkpt lat="46.79303" lon="6.17821">
        <ele>904.74</ele>
        <time>2013-10-27T13:37:19Z</time>
      </trkpt>
      <trkpt lat="46.7929" lon="6.17795">
        <ele>906.66</ele>
        <time>2013-10-27T13:37:30Z</time>
      </trkpt>
      <trkpt lat="46.79283" lon="6.17786">
        <ele>907.62</ele>
        <time>2013-10-27T13:37:32Z</time>
      </trkpt>
      <trkpt lat="46.79278" lon="6.17778">
        <ele>907.14</ele>
        <time>2013-10-27T13:37:36Z</time>
      </trkpt>
      <trkpt lat="46.79263" lon="6.17762">
        <ele>910.51</ele>
        <time>2013-10-27T13:37:48Z</time>
      </trkpt>
      <trkpt lat="46.79247" lon="6.17747">
        <ele>912.91</ele>
        <time>2013-10-27T13:38:02Z</time>
      </trkpt>
      <trkpt lat="46.79244" lon="6.17744">
        <ele>912.91</ele>
        <time>2013-10-27T13:38:05Z</time>
      </trkpt>
      <trkpt lat="46.79238" lon="6.17744">
        <ele>912.91</ele>
        <time>2013-10-27T13:38:09Z</time>
      </trkpt>
      <trkpt lat="46.79226" lon="6.17735">
        <ele>913.87</ele>
        <time>2013-10-27T13:38:17Z</time>
      </trkpt>
      <trkpt lat="46.79203" lon="6.17719">
        <ele>913.87</ele>
        <time>2013-10-27T13:38:31Z</time>
      </trkpt>
      <trkpt lat="46.79185" lon="6.17716">
        <ele>915.31</ele>
        <time>2013-10-27T13:38:42Z</time>
      </trkpt>
      <trkpt lat="46.79181" lon="6.17717">
        <ele>916.75</ele>
        <time>2013-10-27T13:38:44Z</time>
      </trkpt>
      <trkpt lat="46.79162" lon="6.1771">
        <ele>918.2</ele>
        <time>2013-10-27T13:38:58Z</time>
      </trkpt>
      <trkpt lat="46.79155" lon="6.17688">
        <ele>917.72</ele>
        <time>2013-10-27T13:39:11Z</time>
      </trkpt>
      <trkpt lat="46.79142" lon="6.17673">
        <ele>918.68</ele>
        <time>2013-10-27T13:39:21Z</time>
      </trkpt>
      <trkpt lat="46.79123" lon="6.17653">
        <ele>918.68</ele>
        <time>2013-10-27T13:39:32Z</time>
      </trkpt>
      <trkpt lat="46.79097" lon="6.17627">
        <ele>919.64</ele>
        <time>2013-10-27T13:39:45Z</time>
      </trkpt>
      <trkpt lat="46.79084" lon="6.17611">
        <ele>918.2</ele>
        <time>2013-10-27T13:39:50Z</time>
      </trkpt>
      <trkpt lat="46.79083" lon="6.17603">
        <ele>917.72</ele>
        <time>2013-10-27T13:39:51Z</time>
      </trkpt>
      <trkpt lat="46.79084" lon="6.17595">
        <ele>916.75</ele>
        <time>2013-10-27T13:39:52Z</time>
      </trkpt>
      <trkpt lat="46.79086" lon="6.17588">
        <ele>916.75</ele>
        <time>2013-10-27T13:39:53Z</time>
      </trkpt>
      <trkpt lat="46.79092" lon="6.17571">
        <ele>915.31</ele>
        <time>2013-10-27T13:39:55Z</time>
      </trkpt>
      <trkpt lat="46.79097" lon="6.17564">
        <ele>914.83</ele>
        <time>2013-10-27T13:39:56Z</time>
      </trkpt>
      <trkpt lat="46.79103" lon="6.17556">
        <ele>913.87</ele>
        <time>2013-10-27T13:39:57Z</time>
      </trkpt>
      <trkpt lat="46.79121" lon="6.17533">
        <ele>913.39</ele>
        <time>2013-10-27T13:40:00Z</time>
      </trkpt>
      <trkpt lat="46.79126" lon="6.17525">
        <ele>912.91</ele>
        <time>2013-10-27T13:40:01Z</time>
      </trkpt>
      <trkpt lat="46.79145" lon="6.17476">
        <ele>914.35</ele>
        <time>2013-10-27T13:40:10Z</time>
      </trkpt>
      <trkpt lat="46.79165" lon="6.17448">
        <ele>915.79</ele>
        <time>2013-10-27T13:40:19Z</time>
      </trkpt>
      <trkpt lat="46.79168" lon="6.17447">
        <ele>915.31</ele>
        <time>2013-10-27T13:40:20Z</time>
      </trkpt>
      <trkpt lat="46.7917" lon="6.17444">
        <ele>914.83</ele>
        <time>2013-10-27T13:40:21Z</time>
      </trkpt>
      <trkpt lat="46.79185" lon="6.17432">
        <ele>913.87</ele>
        <time>2013-10-27T13:40:26Z</time>
      </trkpt>
      <trkpt lat="46.79189" lon="6.17429">
        <ele>913.39</ele>
        <time>2013-10-27T13:40:27Z</time>
      </trkpt>
      <trkpt lat="46.79235" lon="6.17409">
        <ele>910.51</ele>
        <time>2013-10-27T13:40:35Z</time>
      </trkpt>
      <trkpt lat="46.79254" lon="6.174">
        <ele>909.06</ele>
        <time>2013-10-27T13:40:38Z</time>
      </trkpt>
      <trkpt lat="46.79267" lon="6.17392">
        <ele>907.62</ele>
        <time>2013-10-27T13:40:40Z</time>
      </trkpt>
      <trkpt lat="46.79272" lon="6.17387">
        <ele>907.14</ele>
        <time>2013-10-27T13:40:41Z</time>
      </trkpt>
      <trkpt lat="46.79277" lon="6.17381">
        <ele>905.7</ele>
        <time>2013-10-27T13:40:42Z</time>
      </trkpt>
      <trkpt lat="46.79297" lon="6.17352">
        <ele>905.22</ele>
        <time>2013-10-27T13:40:46Z</time>
      </trkpt>
      <trkpt lat="46.79305" lon="6.1734">
        <ele>904.74</ele>
        <time>2013-10-27T13:40:48Z</time>
      </trkpt>
      <trkpt lat="46.79317" lon="6.17325">
        <ele>903.3</ele>
        <time>2013-10-27T13:40:51Z</time>
      </trkpt>
      <trkpt lat="46.79321" lon="6.1732">
        <ele>903.3</ele>
        <time>2013-10-27T13:40:52Z</time>
      </trkpt>
      <trkpt lat="46.79375" lon="6.17273">
        <ele>901.37</ele>
        <time>2013-10-27T13:41:04Z</time>
      </trkpt>
      <trkpt lat="46.79387" lon="6.17257">
        <ele>900.89</ele>
        <time>2013-10-27T13:41:07Z</time>
      </trkpt>
      <trkpt lat="46.79393" lon="6.17247">
        <ele>901.37</ele>
        <time>2013-10-27T13:41:09Z</time>
      </trkpt>
      <trkpt lat="46.79405" lon="6.17221">
        <ele>901.37</ele>
        <time>2013-10-27T13:41:14Z</time>
      </trkpt>
      <trkpt lat="46.79408" lon="6.17215">
        <ele>901.37</ele>
        <time>2013-10-27T13:41:15Z</time>
      </trkpt>
      <trkpt lat="46.79411" lon="6.1721">
        <ele>901.37</ele>
        <time>2013-10-27T13:41:16Z</time>
      </trkpt>
      <trkpt lat="46.79415" lon="6.17204">
        <ele>900.41</ele>
        <time>2013-10-27T13:41:17Z</time>
      </trkpt>
      <trkpt lat="46.79418" lon="6.17199">
        <ele>900.41</ele>
        <time>2013-10-27T13:41:18Z</time>
      </trkpt>
      <trkpt lat="46.79421" lon="6.17194">
        <ele>900.41</ele>
        <time>2013-10-27T13:41:19Z</time>
      </trkpt>
      <trkpt lat="46.79425" lon="6.1719">
        <ele>899.93</ele>
        <time>2013-10-27T13:41:20Z</time>
      </trkpt>
      <trkpt lat="46.79429" lon="6.17185">
        <ele>899.93</ele>
        <time>2013-10-27T13:41:21Z</time>
      </trkpt>
      <trkpt lat="46.79438" lon="6.17177">
        <ele>899.93</ele>
        <time>2013-10-27T13:41:23Z</time>
      </trkpt>
      <trkpt lat="46.79476" lon="6.17137">
        <ele>897.53</ele>
        <time>2013-10-27T13:41:31Z</time>
      </trkpt>
      <trkpt lat="46.79499" lon="6.17114">
        <ele>897.05</ele>
        <time>2013-10-27T13:41:35Z</time>
      </trkpt>
      <trkpt lat="46.79511" lon="6.17098">
        <ele>895.61</ele>
        <time>2013-10-27T13:41:37Z</time>
      </trkpt>
      <trkpt lat="46.79523" lon="6.17081">
        <ele>894.64</ele>
        <time>2013-10-27T13:41:39Z</time>
      </trkpt>
      <trkpt lat="46.79547" lon="6.17033">
        <ele>893.2</ele>
        <time>2013-10-27T13:41:44Z</time>
      </trkpt>
      <trkpt lat="46.79578" lon="6.16972">
        <ele>889.84</ele>
        <time>2013-10-27T13:41:52Z</time>
      </trkpt>
      <trkpt lat="46.79583" lon="6.16954">
        <ele>887.91</ele>
        <time>2013-10-27T13:41:56Z</time>
      </trkpt>
      <trkpt lat="46.79583" lon="6.16948">
        <ele>886.47</ele>
        <time>2013-10-27T13:41:57Z</time>
      </trkpt>
      <trkpt lat="46.79579" lon="6.16917">
        <ele>884.07</ele>
        <time>2013-10-27T13:42:00Z</time>
      </trkpt>
      <trkpt lat="46.79579" lon="6.16905">
        <ele>884.07</ele>
        <time>2013-10-27T13:42:01Z</time>
      </trkpt>
      <trkpt lat="46.7958" lon="6.16893">
        <ele>883.59</ele>
        <time>2013-10-27T13:42:02Z</time>
      </trkpt>
      <trkpt lat="46.79583" lon="6.1688">
        <ele>882.15</ele>
        <time>2013-10-27T13:42:03Z</time>
      </trkpt>
      <trkpt lat="46.79585" lon="6.16869">
        <ele>882.63</ele>
        <time>2013-10-27T13:42:04Z</time>
      </trkpt>
      <trkpt lat="46.7962" lon="6.16759">
        <ele>881.19</ele>
        <time>2013-10-27T13:42:15Z</time>
      </trkpt>
      <trkpt lat="46.79622" lon="6.1675">
        <ele>881.19</ele>
        <time>2013-10-27T13:42:16Z</time>
      </trkpt>
      <trkpt lat="46.79624" lon="6.16742">
        <ele>880.71</ele>
        <time>2013-10-27T13:42:17Z</time>
      </trkpt>
      <trkpt lat="46.79625" lon="6.16733">
        <ele>880.71</ele>
        <time>2013-10-27T13:42:18Z</time>
      </trkpt>
      <trkpt lat="46.79624" lon="6.16725">
        <ele>880.71</ele>
        <time>2013-10-27T13:42:19Z</time>
      </trkpt>
      <trkpt lat="46.79623" lon="6.16717">
        <ele>880.22</ele>
        <time>2013-10-27T13:42:20Z</time>
      </trkpt>
      <trkpt lat="46.7962" lon="6.16709">
        <ele>879.74</ele>
        <time>2013-10-27T13:42:21Z</time>
      </trkpt>
      <trkpt lat="46.79617" lon="6.16702">
        <ele>880.22</ele>
        <time>2013-10-27T13:42:22Z</time>
      </trkpt>
      <trkpt lat="46.79613" lon="6.16695">
        <ele>879.74</ele>
        <time>2013-10-27T13:42:23Z</time>
      </trkpt>
      <trkpt lat="46.79608" lon="6.16687">
        <ele>879.74</ele>
        <time>2013-10-27T13:42:24Z</time>
      </trkpt>
      <trkpt lat="46.79598" lon="6.16672">
        <ele>879.26</ele>
        <time>2013-10-27T13:42:26Z</time>
      </trkpt>
      <trkpt lat="46.79594" lon="6.16664">
        <ele>879.74</ele>
        <time>2013-10-27T13:42:27Z</time>
      </trkpt>
      <trkpt lat="46.7959" lon="6.16658">
        <ele>879.26</ele>
        <time>2013-10-27T13:42:28Z</time>
      </trkpt>
      <trkpt lat="46.79586" lon="6.16652">
        <ele>879.26</ele>
        <time>2013-10-27T13:42:29Z</time>
      </trkpt>
      <trkpt lat="46.79582" lon="6.16647">
        <ele>878.78</ele>
        <time>2013-10-27T13:42:30Z</time>
      </trkpt>
      <trkpt lat="46.7958" lon="6.16642">
        <ele>879.74</ele>
        <time>2013-10-27T13:42:31Z</time>
      </trkpt>
      <trkpt lat="46.79577" lon="6.16637">
        <ele>878.3</ele>
        <time>2013-10-27T13:42:32Z</time>
      </trkpt>
      <trkpt lat="46.79575" lon="6.16632">
        <ele>878.3</ele>
        <time>2013-10-27T13:42:33Z</time>
      </trkpt>
      <trkpt lat="46.79573" lon="6.16627">
        <ele>878.78</ele>
        <time>2013-10-27T13:42:34Z</time>
      </trkpt>
      <trkpt lat="46.7957" lon="6.16621">
        <ele>879.26</ele>
        <time>2013-10-27T13:42:35Z</time>
      </trkpt>
      <trkpt lat="46.79568" lon="6.16614">
        <ele>878.3</ele>
        <time>2013-10-27T13:42:36Z</time>
      </trkpt>
      <trkpt lat="46.79563" lon="6.1659">
        <ele>877.82</ele>
        <time>2013-10-27T13:42:39Z</time>
      </trkpt>
      <trkpt lat="46.79562" lon="6.16582">
        <ele>877.34</ele>
        <time>2013-10-27T13:42:40Z</time>
      </trkpt>
      <trkpt lat="46.79562" lon="6.16557">
        <ele>876.38</ele>
        <time>2013-10-27T13:42:43Z</time>
      </trkpt>
      <trkpt lat="46.79561" lon="6.16549">
        <ele>876.86</ele>
        <time>2013-10-27T13:42:44Z</time>
      </trkpt>
      <trkpt lat="46.79561" lon="6.16541">
        <ele>875.9</ele>
        <time>2013-10-27T13:42:45Z</time>
      </trkpt>
      <trkpt lat="46.79561" lon="6.16515">
        <ele>875.9</ele>
        <time>2013-10-27T13:42:48Z</time>
      </trkpt>
      <trkpt lat="46.7956" lon="6.16496">
        <ele>875.9</ele>
        <time>2013-10-27T13:42:50Z</time>
      </trkpt>
      <trkpt lat="46.79559" lon="6.16486">
        <ele>875.9</ele>
        <time>2013-10-27T13:42:51Z</time>
      </trkpt>
      <trkpt lat="46.79559" lon="6.16477">
        <ele>874.46</ele>
        <time>2013-10-27T13:42:52Z</time>
      </trkpt>
      <trkpt lat="46.79558" lon="6.16458">
        <ele>873.5</ele>
        <time>2013-10-27T13:42:54Z</time>
      </trkpt>
      <trkpt lat="46.79559" lon="6.16448">
        <ele>873.5</ele>
        <time>2013-10-27T13:42:55Z</time>
      </trkpt>
      <trkpt lat="46.79559" lon="6.16439">
        <ele>872.53</ele>
        <time>2013-10-27T13:42:56Z</time>
      </trkpt>
      <trkpt lat="46.79561" lon="6.16421">
        <ele>872.05</ele>
        <time>2013-10-27T13:42:58Z</time>
      </trkpt>
      <trkpt lat="46.79563" lon="6.16411">
        <ele>872.05</ele>
        <time>2013-10-27T13:42:59Z</time>
      </trkpt>
      <trkpt lat="46.79564" lon="6.16402">
        <ele>872.05</ele>
        <time>2013-10-27T13:43:00Z</time>
      </trkpt>
      <trkpt lat="46.79578" lon="6.16349">
        <ele>870.61</ele>
        <time>2013-10-27T13:43:06Z</time>
      </trkpt>
      <trkpt lat="46.79581" lon="6.16341">
        <ele>870.61</ele>
        <time>2013-10-27T13:43:07Z</time>
      </trkpt>
      <trkpt lat="46.79602" lon="6.16299">
        <ele>870.13</ele>
        <time>2013-10-27T13:43:13Z</time>
      </trkpt>
      <trkpt lat="46.79609" lon="6.16287">
        <ele>870.13</ele>
        <time>2013-10-27T13:43:15Z</time>
      </trkpt>
      <trkpt lat="46.79612" lon="6.1628">
        <ele>870.13</ele>
        <time>2013-10-27T13:43:16Z</time>
      </trkpt>
      <trkpt lat="46.79616" lon="6.16274">
        <ele>870.13</ele>
        <time>2013-10-27T13:43:17Z</time>
      </trkpt>
      <trkpt lat="46.79635" lon="6.16241">
        <ele>869.65</ele>
        <time>2013-10-27T13:43:22Z</time>
      </trkpt>
      <trkpt lat="46.79647" lon="6.16223">
        <ele>868.69</ele>
        <time>2013-10-27T13:43:25Z</time>
      </trkpt>
      <trkpt lat="46.79651" lon="6.16217">
        <ele>868.69</ele>
        <time>2013-10-27T13:43:26Z</time>
      </trkpt>
      <trkpt lat="46.79655" lon="6.1621">
        <ele>869.17</ele>
        <time>2013-10-27T13:43:27Z</time>
      </trkpt>
      <trkpt lat="46.79666" lon="6.16193">
        <ele>868.69</ele>
        <time>2013-10-27T13:43:30Z</time>
      </trkpt>
      <trkpt lat="46.7967" lon="6.16187">
        <ele>869.17</ele>
        <time>2013-10-27T13:43:31Z</time>
      </trkpt>
      <trkpt lat="46.79708" lon="6.1612">
        <ele>869.17</ele>
        <time>2013-10-27T13:43:42Z</time>
      </trkpt>
      <trkpt lat="46.79711" lon="6.16114">
        <ele>868.69</ele>
        <time>2013-10-27T13:43:43Z</time>
      </trkpt>
      <trkpt lat="46.79718" lon="6.16103">
        <ele>867.73</ele>
        <time>2013-10-27T13:43:45Z</time>
      </trkpt>
      <trkpt lat="46.79737" lon="6.16079">
        <ele>867.25</ele>
        <time>2013-10-27T13:43:50Z</time>
      </trkpt>
      <trkpt lat="46.79772" lon="6.16048">
        <ele>868.21</ele>
        <time>2013-10-27T13:43:58Z</time>
      </trkpt>
      <trkpt lat="46.79776" lon="6.16044">
        <ele>868.21</ele>
        <time>2013-10-27T13:43:59Z</time>
      </trkpt>
      <trkpt lat="46.7978" lon="6.16039">
        <ele>867.73</ele>
        <time>2013-10-27T13:44:00Z</time>
      </trkpt>
      <trkpt lat="46.79784" lon="6.16034">
        <ele>867.25</ele>
        <time>2013-10-27T13:44:01Z</time>
      </trkpt>
      <trkpt lat="46.79788" lon="6.16029">
        <ele>867.25</ele>
        <time>2013-10-27T13:44:02Z</time>
      </trkpt>
      <trkpt lat="46.79791" lon="6.16024">
        <ele>867.73</ele>
        <time>2013-10-27T13:44:03Z</time>
      </trkpt>
      <trkpt lat="46.79817" lon="6.15975">
        <ele>866.77</ele>
        <time>2013-10-27T13:44:11Z</time>
      </trkpt>
      <trkpt lat="46.79822" lon="6.15962">
        <ele>865.32</ele>
        <time>2013-10-27T13:44:13Z</time>
      </trkpt>
      <trkpt lat="46.79824" lon="6.15955">
        <ele>865.8</ele>
        <time>2013-10-27T13:44:14Z</time>
      </trkpt>
      <trkpt lat="46.79825" lon="6.15948">
        <ele>866.77</ele>
        <time>2013-10-27T13:44:15Z</time>
      </trkpt>
      <trkpt lat="46.79825" lon="6.15942">
        <ele>867.25</ele>
        <time>2013-10-27T13:44:16Z</time>
      </trkpt>
      <trkpt lat="46.79826" lon="6.15935">
        <ele>866.77</ele>
        <time>2013-10-27T13:44:17Z</time>
      </trkpt>
      <trkpt lat="46.79826" lon="6.15929">
        <ele>867.73</ele>
        <time>2013-10-27T13:44:18Z</time>
      </trkpt>
      <trkpt lat="46.79825" lon="6.15923">
        <ele>866.77</ele>
        <time>2013-10-27T13:44:19Z</time>
      </trkpt>
      <trkpt lat="46.79825" lon="6.15917">
        <ele>866.77</ele>
        <time>2013-10-27T13:44:20Z</time>
      </trkpt>
      <trkpt lat="46.79824" lon="6.15912">
        <ele>867.25</ele>
        <time>2013-10-27T13:44:21Z</time>
      </trkpt>
      <trkpt lat="46.79823" lon="6.15907">
        <ele>865.8</ele>
        <time>2013-10-27T13:44:22Z</time>
      </trkpt>
      <trkpt lat="46.7982" lon="6.15893">
        <ele>866.29</ele>
        <time>2013-10-27T13:44:24Z</time>
      </trkpt>
      <trkpt lat="46.7981" lon="6.15844">
        <ele>866.77</ele>
        <time>2013-10-27T13:44:31Z</time>
      </trkpt>
      <trkpt lat="46.79809" lon="6.15837">
        <ele>867.73</ele>
        <time>2013-10-27T13:44:32Z</time>
      </trkpt>
      <trkpt lat="46.79789" lon="6.15744">
        <ele>868.69</ele>
        <time>2013-10-27T13:44:47Z</time>
      </trkpt>
      <trkpt lat="46.79771" lon="6.15694">
        <ele>869.65</ele>
        <time>2013-10-27T13:44:59Z</time>
      </trkpt>
      <trkpt lat="46.79752" lon="6.15646">
        <ele>872.05</ele>
        <time>2013-10-27T13:45:12Z</time>
      </trkpt>
      <trkpt lat="46.79749" lon="6.1561">
        <ele>871.57</ele>
        <time>2013-10-27T13:45:21Z</time>
      </trkpt>
      <trkpt lat="46.7975" lon="6.15602">
        <ele>872.53</ele>
        <time>2013-10-27T13:45:23Z</time>
      </trkpt>
      <trkpt lat="46.79752" lon="6.1556">
        <ele>873.5</ele>
        <time>2013-10-27T13:45:35Z</time>
      </trkpt>
      <trkpt lat="46.7973" lon="6.15541">
        <ele>875.42</ele>
        <time>2013-10-27T13:45:46Z</time>
      </trkpt>
      <trkpt lat="46.79705" lon="6.15537">
        <ele>878.78</ele>
        <time>2013-10-27T13:45:56Z</time>
      </trkpt>
      <trkpt lat="46.79664" lon="6.15527">
        <ele>880.22</ele>
        <time>2013-10-27T13:46:11Z</time>
      </trkpt>
      <trkpt lat="46.79655" lon="6.15526">
        <ele>881.67</ele>
        <time>2013-10-27T13:46:14Z</time>
      </trkpt>
      <trkpt lat="46.79628" lon="6.15522">
        <ele>882.63</ele>
        <time>2013-10-27T13:46:24Z</time>
      </trkpt>
      <trkpt lat="46.79617" lon="6.15506">
        <ele>882.15</ele>
        <time>2013-10-27T13:46:33Z</time>
      </trkpt>
      <trkpt lat="46.79597" lon="6.15489">
        <ele>881.67</ele>
        <time>2013-10-27T13:46:45Z</time>
      </trkpt>
      <trkpt lat="46.79577" lon="6.15472">
        <ele>880.71</ele>
        <time>2013-10-27T13:46:53Z</time>
      </trkpt>
      <trkpt lat="46.79557" lon="6.15453">
        <ele>879.74</ele>
        <time>2013-10-27T13:47:00Z</time>
      </trkpt>
      <trkpt lat="46.79551" lon="6.15447">
        <ele>879.26</ele>
        <time>2013-10-27T13:47:14Z</time>
      </trkpt>
      <trkpt lat="46.7955" lon="6.15446">
        <ele>878.78</ele>
        <time>2013-10-27T13:47:15Z</time>
      </trkpt>
      <trkpt lat="46.79524" lon="6.15431">
        <ele>878.78</ele>
        <time>2013-10-27T13:47:27Z</time>
      </trkpt>
      <trkpt lat="46.79509" lon="6.1542">
        <ele>880.71</ele>
        <time>2013-10-27T13:47:34Z</time>
      </trkpt>
      <trkpt lat="46.79505" lon="6.15415">
        <ele>881.19</ele>
        <time>2013-10-27T13:47:37Z</time>
      </trkpt>
      <trkpt lat="46.79485" lon="6.15405">
        <ele>880.71</ele>
        <time>2013-10-27T13:47:50Z</time>
      </trkpt>
      <trkpt lat="46.79483" lon="6.15404">
        <ele>880.22</ele>
        <time>2013-10-27T13:47:51Z</time>
      </trkpt>
      <trkpt lat="46.79477" lon="6.15399">
        <ele>880.71</ele>
        <time>2013-10-27T13:47:55Z</time>
      </trkpt>
      <trkpt lat="46.79468" lon="6.15392">
        <ele>881.19</ele>
        <time>2013-10-27T13:48:00Z</time>
      </trkpt>
      <trkpt lat="46.7946" lon="6.15392">
        <ele>881.67</ele>
        <time>2013-10-27T13:48:04Z</time>
      </trkpt>
      <trkpt lat="46.7944" lon="6.1539">
        <ele>881.67</ele>
        <time>2013-10-27T13:48:14Z</time>
      </trkpt>
      <trkpt lat="46.79419" lon="6.15384">
        <ele>882.63</ele>
        <time>2013-10-27T13:48:27Z</time>
      </trkpt>
      <trkpt lat="46.79396" lon="6.15377">
        <ele>884.55</ele>
        <time>2013-10-27T13:48:40Z</time>
      </trkpt>
      <trkpt lat="46.79393" lon="6.15376">
        <ele>885.03</ele>
        <time>2013-10-27T13:48:42Z</time>
      </trkpt>
      <trkpt lat="46.79368" lon="6.15368">
        <ele>885.03</ele>
        <time>2013-10-27T13:48:54Z</time>
      </trkpt>
      <trkpt lat="46.79339" lon="6.15367">
        <ele>885.99</ele>
        <time>2013-10-27T13:49:08Z</time>
      </trkpt>
      <trkpt lat="46.7933" lon="6.15344">
        <ele>884.07</ele>
        <time>2013-10-27T13:49:16Z</time>
      </trkpt>
      <trkpt lat="46.79313" lon="6.15289">
        <ele>884.55</ele>
        <time>2013-10-27T13:49:30Z</time>
      </trkpt>
      <trkpt lat="46.79311" lon="6.15282">
        <ele>885.51</ele>
        <time>2013-10-27T13:49:34Z</time>
      </trkpt>
      <trkpt lat="46.79306" lon="6.15271">
        <ele>886.47</ele>
        <time>2013-10-27T13:49:39Z</time>
      </trkpt>
      <trkpt lat="46.793" lon="6.15248">
        <ele>888.4</ele>
        <time>2013-10-27T13:49:53Z</time>
      </trkpt>
      <trkpt lat="46.79297" lon="6.15238">
        <ele>888.88</ele>
        <time>2013-10-27T13:50:01Z</time>
      </trkpt>
      <trkpt lat="46.79285" lon="6.15212">
        <ele>889.36</ele>
        <time>2013-10-27T13:50:06Z</time>
      </trkpt>
      <trkpt lat="46.79279" lon="6.15187">
        <ele>891.28</ele>
        <time>2013-10-27T13:50:18Z</time>
      </trkpt>
      <trkpt lat="46.7928" lon="6.15185">
        <ele>891.28</ele>
        <time>2013-10-27T13:50:19Z</time>
      </trkpt>
      <trkpt lat="46.7928" lon="6.15176">
        <ele>891.28</ele>
        <time>2013-10-27T13:50:23Z</time>
      </trkpt>
      <trkpt lat="46.79278" lon="6.15138">
        <ele>893.68</ele>
        <time>2013-10-27T13:50:38Z</time>
      </trkpt>
      <trkpt lat="46.79279" lon="6.15123">
        <ele>893.2</ele>
        <time>2013-10-27T13:50:45Z</time>
      </trkpt>
      <trkpt lat="46.79274" lon="6.15105">
        <ele>893.68</ele>
        <time>2013-10-27T13:50:55Z</time>
      </trkpt>
      <trkpt lat="46.79274" lon="6.15099">
        <ele>894.16</ele>
        <time>2013-10-27T13:50:58Z</time>
      </trkpt>
      <trkpt lat="46.79277" lon="6.15085">
        <ele>895.12</ele>
        <time>2013-10-27T13:51:06Z</time>
      </trkpt>
      <trkpt lat="46.79282" lon="6.15071">
        <ele>895.61</ele>
        <time>2013-10-27T13:51:15Z</time>
      </trkpt>
      <trkpt lat="46.79277" lon="6.15049">
        <ele>895.12</ele>
        <time>2013-10-27T13:51:22Z</time>
      </trkpt>
      <trkpt lat="46.7928" lon="6.15034">
        <ele>895.61</ele>
        <time>2013-10-27T13:51:27Z</time>
      </trkpt>
      <trkpt lat="46.79289" lon="6.15014">
        <ele>894.64</ele>
        <time>2013-10-27T13:51:35Z</time>
      </trkpt>
      <trkpt lat="46.79314" lon="6.14985">
        <ele>893.68</ele>
        <time>2013-10-27T13:51:46Z</time>
      </trkpt>
      <trkpt lat="46.79317" lon="6.1498">
        <ele>893.2</ele>
        <time>2013-10-27T13:51:48Z</time>
      </trkpt>
      <trkpt lat="46.79326" lon="6.14969">
        <ele>893.2</ele>
        <time>2013-10-27T13:51:54Z</time>
      </trkpt>
      <trkpt lat="46.7935" lon="6.14948">
        <ele>891.28</ele>
        <time>2013-10-27T13:52:05Z</time>
      </trkpt>
      <trkpt lat="46.79371" lon="6.14907">
        <ele>890.32</ele>
        <time>2013-10-27T13:52:15Z</time>
      </trkpt>
      <trkpt lat="46.7938" lon="6.14878">
        <ele>888.88</ele>
        <time>2013-10-27T13:52:25Z</time>
      </trkpt>
      <trkpt lat="46.79382" lon="6.14874">
        <ele>889.84</ele>
        <time>2013-10-27T13:52:26Z</time>
      </trkpt>
      <trkpt lat="46.79384" lon="6.1486">
        <ele>889.84</ele>
        <time>2013-10-27T13:52:30Z</time>
      </trkpt>
      <trkpt lat="46.79386" lon="6.14806">
        <ele>889.36</ele>
        <time>2013-10-27T13:52:43Z</time>
      </trkpt>
      <trkpt lat="46.7939" lon="6.14779">
        <ele>886.95</ele>
        <time>2013-10-27T13:52:47Z</time>
      </trkpt>
      <trkpt lat="46.79393" lon="6.14765">
        <ele>885.99</ele>
        <time>2013-10-27T13:52:49Z</time>
      </trkpt>
      <trkpt lat="46.79397" lon="6.14732">
        <ele>884.07</ele>
        <time>2013-10-27T13:52:55Z</time>
      </trkpt>
      <trkpt lat="46.79396" lon="6.14725">
        <ele>884.07</ele>
        <time>2013-10-27T13:52:56Z</time>
      </trkpt>
      <trkpt lat="46.79396" lon="6.14697">
        <ele>882.15</ele>
        <time>2013-10-27T13:53:00Z</time>
      </trkpt>
      <trkpt lat="46.79396" lon="6.14691">
        <ele>882.63</ele>
        <time>2013-10-27T13:53:01Z</time>
      </trkpt>
      <trkpt lat="46.79389" lon="6.14648">
        <ele>882.63</ele>
        <time>2013-10-27T13:53:13Z</time>
      </trkpt>
      <trkpt lat="46.79371" lon="6.14614">
        <ele>883.11</ele>
        <time>2013-10-27T13:53:26Z</time>
      </trkpt>
      <trkpt lat="46.7936" lon="6.14588">
        <ele>883.59</ele>
        <time>2013-10-27T13:53:34Z</time>
      </trkpt>
      <trkpt lat="46.79356" lon="6.14552">
        <ele>882.15</ele>
        <time>2013-10-27T13:53:46Z</time>
      </trkpt>
      <trkpt lat="46.79352" lon="6.14544">
        <ele>883.11</ele>
        <time>2013-10-27T13:53:50Z</time>
      </trkpt>
      <trkpt lat="46.79351" lon="6.14542">
        <ele>882.63</ele>
        <time>2013-10-27T13:53:51Z</time>
      </trkpt>
      <trkpt lat="46.79339" lon="6.14514">
        <ele>883.59</ele>
        <time>2013-10-27T13:54:03Z</time>
      </trkpt>
      <trkpt lat="46.79338" lon="6.14513">
        <ele>883.59</ele>
        <time>2013-10-27T13:54:04Z</time>
      </trkpt>
      <trkpt lat="46.79333" lon="6.14508">
        <ele>884.07</ele>
        <time>2013-10-27T13:54:08Z</time>
      </trkpt>
      <trkpt lat="46.79332" lon="6.14506">
        <ele>884.07</ele>
        <time>2013-10-27T13:54:09Z</time>
      </trkpt>
      <trkpt lat="46.79323" lon="6.14493">
        <ele>884.55</ele>
        <time>2013-10-27T13:54:16Z</time>
      </trkpt>
      <trkpt lat="46.79321" lon="6.1449">
        <ele>884.55</ele>
        <time>2013-10-27T13:54:17Z</time>
      </trkpt>
      <trkpt lat="46.79314" lon="6.14479">
        <ele>885.51</ele>
        <time>2013-10-27T13:54:25Z</time>
      </trkpt>
      <trkpt lat="46.79304" lon="6.14463">
        <ele>883.59</ele>
        <time>2013-10-27T13:54:35Z</time>
      </trkpt>
      <trkpt lat="46.79304" lon="6.14461">
        <ele>884.07</ele>
        <time>2013-10-27T13:54:36Z</time>
      </trkpt>
      <trkpt lat="46.79303" lon="6.14459">
        <ele>883.11</ele>
        <time>2013-10-27T13:54:37Z</time>
      </trkpt>
      <trkpt lat="46.79301" lon="6.14457">
        <ele>883.59</ele>
        <time>2013-10-27T13:54:38Z</time>
      </trkpt>
      <trkpt lat="46.79299" lon="6.14456">
        <ele>885.03</ele>
        <time>2013-10-27T13:54:39Z</time>
      </trkpt>
      <trkpt lat="46.79298" lon="6.14454">
        <ele>885.51</ele>
        <time>2013-10-27T13:54:40Z</time>
      </trkpt>
      <trkpt lat="46.79296" lon="6.14451">
        <ele>885.99</ele>
        <time>2013-10-27T13:54:41Z</time>
      </trkpt>
      <trkpt lat="46.79295" lon="6.14449">
        <ele>885.99</ele>
        <time>2013-10-27T13:54:42Z</time>
      </trkpt>
      <trkpt lat="46.79294" lon="6.14447">
        <ele>885.51</ele>
        <time>2013-10-27T13:54:43Z</time>
      </trkpt>
      <trkpt lat="46.79293" lon="6.14445">
        <ele>885.03</ele>
        <time>2013-10-27T13:54:44Z</time>
      </trkpt>
      <trkpt lat="46.79293" lon="6.14443">
        <ele>884.55</ele>
        <time>2013-10-27T13:54:45Z</time>
      </trkpt>
      <trkpt lat="46.79292" lon="6.1444">
        <ele>885.03</ele>
        <time>2013-10-27T13:54:46Z</time>
      </trkpt>
      <trkpt lat="46.7928" lon="6.14421">
        <ele>884.07</ele>
        <time>2013-10-27T13:54:56Z</time>
      </trkpt>
      <trkpt lat="46.79277" lon="6.1441">
        <ele>884.55</ele>
        <time>2013-10-27T13:55:00Z</time>
      </trkpt>
      <trkpt lat="46.79277" lon="6.14406">
        <ele>884.07</ele>
        <time>2013-10-27T13:55:01Z</time>
      </trkpt>
      <trkpt lat="46.79278" lon="6.14403">
        <ele>883.59</ele>
        <time>2013-10-27T13:55:02Z</time>
      </trkpt>
      <trkpt lat="46.79278" lon="6.14399">
        <ele>885.03</ele>
        <time>2013-10-27T13:55:03Z</time>
      </trkpt>
      <trkpt lat="46.79278" lon="6.14395">
        <ele>885.99</ele>
        <time>2013-10-27T13:55:04Z</time>
      </trkpt>
      <trkpt lat="46.79279" lon="6.14392">
        <ele>885.51</ele>
        <time>2013-10-27T13:55:05Z</time>
      </trkpt>
      <trkpt lat="46.79281" lon="6.14388">
        <ele>884.55</ele>
        <time>2013-10-27T13:55:06Z</time>
      </trkpt>
      <trkpt lat="46.79281" lon="6.14384">
        <ele>885.03</ele>
        <time>2013-10-27T13:55:07Z</time>
      </trkpt>
      <trkpt lat="46.79281" lon="6.14379">
        <ele>885.03</ele>
        <time>2013-10-27T13:55:08Z</time>
      </trkpt>
      <trkpt lat="46.79281" lon="6.14376">
        <ele>885.99</ele>
        <time>2013-10-27T13:55:09Z</time>
      </trkpt>
      <trkpt lat="46.79281" lon="6.14372">
        <ele>884.55</ele>
        <time>2013-10-27T13:55:10Z</time>
      </trkpt>
      <trkpt lat="46.79282" lon="6.14368">
        <ele>884.55</ele>
        <time>2013-10-27T13:55:11Z</time>
      </trkpt>
      <trkpt lat="46.79283" lon="6.14365">
        <ele>885.51</ele>
        <time>2013-10-27T13:55:12Z</time>
      </trkpt>
      <trkpt lat="46.79285" lon="6.14361">
        <ele>885.51</ele>
        <time>2013-10-27T13:55:13Z</time>
      </trkpt>
      <trkpt lat="46.79286" lon="6.14358">
        <ele>885.03</ele>
        <time>2013-10-27T13:55:14Z</time>
      </trkpt>
      <trkpt lat="46.79286" lon="6.14354">
        <ele>885.03</ele>
        <time>2013-10-27T13:55:15Z</time>
      </trkpt>
      <trkpt lat="46.79287" lon="6.14351">
        <ele>883.59</ele>
        <time>2013-10-27T13:55:16Z</time>
      </trkpt>
      <trkpt lat="46.79288" lon="6.14347">
        <ele>884.55</ele>
        <time>2013-10-27T13:55:17Z</time>
      </trkpt>
      <trkpt lat="46.79289" lon="6.14344">
        <ele>884.55</ele>
        <time>2013-10-27T13:55:18Z</time>
      </trkpt>
      <trkpt lat="46.79291" lon="6.14341">
        <ele>884.55</ele>
        <time>2013-10-27T13:55:19Z</time>
      </trkpt>
      <trkpt lat="46.79314" lon="6.14292">
        <ele>881.67</ele>
        <time>2013-10-27T13:55:31Z</time>
      </trkpt>
      <trkpt lat="46.79329" lon="6.14268">
        <ele>879.74</ele>
        <time>2013-10-27T13:55:38Z</time>
      </trkpt>
      <trkpt lat="46.79351" lon="6.1423">
        <ele>878.3</ele>
        <time>2013-10-27T13:55:49Z</time>
      </trkpt>
      <trkpt lat="46.7937" lon="6.1419">
        <ele>878.3</ele>
        <time>2013-10-27T13:56:01Z</time>
      </trkpt>
      <trkpt lat="46.79376" lon="6.1416">
        <ele>878.3</ele>
        <time>2013-10-27T13:56:13Z</time>
      </trkpt>
      <trkpt lat="46.79379" lon="6.14127">
        <ele>877.34</ele>
        <time>2013-10-27T13:56:24Z</time>
      </trkpt>
      <trkpt lat="46.79383" lon="6.14112">
        <ele>876.86</ele>
        <time>2013-10-27T13:56:30Z</time>
      </trkpt>
      <trkpt lat="46.79384" lon="6.14109">
        <ele>877.34</ele>
        <time>2013-10-27T13:56:31Z</time>
      </trkpt>
      <trkpt lat="46.79386" lon="6.14106">
        <ele>876.86</ele>
        <time>2013-10-27T13:56:32Z</time>
      </trkpt>
      <trkpt lat="46.79389" lon="6.14099">
        <ele>879.26</ele>
        <time>2013-10-27T13:56:35Z</time>
      </trkpt>
      <trkpt lat="46.79389" lon="6.14097">
        <ele>877.34</ele>
        <time>2013-10-27T13:56:38Z</time>
      </trkpt>
      <trkpt lat="46.79393" lon="6.14089">
        <ele>877.82</ele>
        <time>2013-10-27T13:56:48Z</time>
      </trkpt>
      <trkpt lat="46.79399" lon="6.14079">
        <ele>877.34</ele>
        <time>2013-10-27T13:57:00Z</time>
      </trkpt>
      <trkpt lat="46.79406" lon="6.14063">
        <ele>876.86</ele>
        <time>2013-10-27T13:57:10Z</time>
      </trkpt>
      <trkpt lat="46.79412" lon="6.14048">
        <ele>875.9</ele>
        <time>2013-10-27T13:57:18Z</time>
      </trkpt>
      <trkpt lat="46.79413" lon="6.14046">
        <ele>877.82</ele>
        <time>2013-10-27T13:57:19Z</time>
      </trkpt>
      <trkpt lat="46.79414" lon="6.14044">
        <ele>877.34</ele>
        <time>2013-10-27T13:57:20Z</time>
      </trkpt>
      <trkpt lat="46.79416" lon="6.14037">
        <ele>877.82</ele>
        <time>2013-10-27T13:57:24Z</time>
      </trkpt>
      <trkpt lat="46.79422" lon="6.14024">
        <ele>877.34</ele>
        <time>2013-10-27T13:57:30Z</time>
      </trkpt>
      <trkpt lat="46.79422" lon="6.14023">
        <ele>877.34</ele>
        <time>2013-10-27T13:57:31Z</time>
      </trkpt>
      <trkpt lat="46.79422" lon="6.14021">
        <ele>877.34</ele>
        <time>2013-10-27T13:57:32Z</time>
      </trkpt>
      <trkpt lat="46.79423" lon="6.14019">
        <ele>875.9</ele>
        <time>2013-10-27T13:57:33Z</time>
      </trkpt>
      <trkpt lat="46.79423" lon="6.14017">
        <ele>876.38</ele>
        <time>2013-10-27T13:57:34Z</time>
      </trkpt>
      <trkpt lat="46.79423" lon="6.14015">
        <ele>875.42</ele>
        <time>2013-10-27T13:57:35Z</time>
      </trkpt>
      <trkpt lat="46.79423" lon="6.14013">
        <ele>877.34</ele>
        <time>2013-10-27T13:57:36Z</time>
      </trkpt>
      <trkpt lat="46.79424" lon="6.14011">
        <ele>877.34</ele>
        <time>2013-10-27T13:57:37Z</time>
      </trkpt>
      <trkpt lat="46.79429" lon="6.13996">
        <ele>878.3</ele>
        <time>2013-10-27T13:57:46Z</time>
      </trkpt>
      <trkpt lat="46.79429" lon="6.13988">
        <ele>877.34</ele>
        <time>2013-10-27T13:57:56Z</time>
      </trkpt>
      <trkpt lat="46.7943" lon="6.13986">
        <ele>877.82</ele>
        <time>2013-10-27T13:57:57Z</time>
      </trkpt>
      <trkpt lat="46.79429" lon="6.13965">
        <ele>878.3</ele>
        <time>2013-10-27T13:58:11Z</time>
      </trkpt>
      <trkpt lat="46.79429" lon="6.13962">
        <ele>879.26</ele>
        <time>2013-10-27T13:58:13Z</time>
      </trkpt>
      <trkpt lat="46.79429" lon="6.1396">
        <ele>878.3</ele>
        <time>2013-10-27T13:58:14Z</time>
      </trkpt>
      <trkpt lat="46.79431" lon="6.13955">
        <ele>877.82</ele>
        <time>2013-10-27T13:58:21Z</time>
      </trkpt>
      <trkpt lat="46.79431" lon="6.13953">
        <ele>878.3</ele>
        <time>2013-10-27T13:58:22Z</time>
      </trkpt>
      <trkpt lat="46.79432" lon="6.13951">
        <ele>878.3</ele>
        <time>2013-10-27T13:58:23Z</time>
      </trkpt>
      <trkpt lat="46.79432" lon="6.13949">
        <ele>877.82</ele>
        <time>2013-10-27T13:58:24Z</time>
      </trkpt>
      <trkpt lat="46.7943" lon="6.13947">
        <ele>877.82</ele>
        <time>2013-10-27T13:58:25Z</time>
      </trkpt>
      <trkpt lat="46.79429" lon="6.13945">
        <ele>878.3</ele>
        <time>2013-10-27T13:58:26Z</time>
      </trkpt>
      <trkpt lat="46.79418" lon="6.13919">
        <ele>876.38</ele>
        <time>2013-10-27T13:58:36Z</time>
      </trkpt>
      <trkpt lat="46.79398" lon="6.1387">
        <ele>874.46</ele>
        <time>2013-10-27T13:58:49Z</time>
      </trkpt>
      <trkpt lat="46.79396" lon="6.13862">
        <ele>875.9</ele>
        <time>2013-10-27T13:58:51Z</time>
      </trkpt>
      <trkpt lat="46.7938" lon="6.13819">
        <ele>877.34</ele>
        <time>2013-10-27T13:59:06Z</time>
      </trkpt>
      <trkpt lat="46.79361" lon="6.13766">
        <ele>879.26</ele>
        <time>2013-10-27T13:59:24Z</time>
      </trkpt>
      <trkpt lat="46.7936" lon="6.13761">
        <ele>879.26</ele>
        <time>2013-10-27T13:59:26Z</time>
      </trkpt>
      <trkpt lat="46.7936" lon="6.13758">
        <ele>878.3</ele>
        <time>2013-10-27T13:59:27Z</time>
      </trkpt>
      <trkpt lat="46.79359" lon="6.13755">
        <ele>878.3</ele>
        <time>2013-10-27T13:59:28Z</time>
      </trkpt>
      <trkpt lat="46.79359" lon="6.13753">
        <ele>878.3</ele>
        <time>2013-10-27T13:59:29Z</time>
      </trkpt>
      <trkpt lat="46.79357" lon="6.1375">
        <ele>879.74</ele>
        <time>2013-10-27T13:59:30Z</time>
      </trkpt>
      <trkpt lat="46.79356" lon="6.13747">
        <ele>878.78</ele>
        <time>2013-10-27T13:59:31Z</time>
      </trkpt>
      <trkpt lat="46.79352" lon="6.1374">
        <ele>878.78</ele>
        <time>2013-10-27T13:59:34Z</time>
      </trkpt>
      <trkpt lat="46.7935" lon="6.13739">
        <ele>878.3</ele>
        <time>2013-10-27T13:59:35Z</time>
      </trkpt>
      <trkpt lat="46.79349" lon="6.13737">
        <ele>877.82</ele>
        <time>2013-10-27T13:59:36Z</time>
      </trkpt>
      <trkpt lat="46.79348" lon="6.13734">
        <ele>877.34</ele>
        <time>2013-10-27T13:59:37Z</time>
      </trkpt>
      <trkpt lat="46.79347" lon="6.13731">
        <ele>878.3</ele>
        <time>2013-10-27T13:59:38Z</time>
      </trkpt>
      <trkpt lat="46.79347" lon="6.13728">
        <ele>878.78</ele>
        <time>2013-10-27T13:59:39Z</time>
      </trkpt>
      <trkpt lat="46.7934" lon="6.13693">
        <ele>880.22</ele>
        <time>2013-10-27T13:59:51Z</time>
      </trkpt>
      <trkpt lat="46.79342" lon="6.13692">
        <ele>880.22</ele>
        <time>2013-10-27T13:59:52Z</time>
      </trkpt>
      <trkpt lat="46.79345" lon="6.13691">
        <ele>881.67</ele>
        <time>2013-10-27T13:59:54Z</time>
      </trkpt>
      <trkpt lat="46.79364" lon="6.13695">
        <ele>879.26</ele>
        <time>2013-10-27T14:00:00Z</time>
      </trkpt>
      <trkpt lat="46.79372" lon="6.13701">
        <ele>879.26</ele>
        <time>2013-10-27T14:00:02Z</time>
      </trkpt>
      <trkpt lat="46.79376" lon="6.13703">
        <ele>878.78</ele>
        <time>2013-10-27T14:00:03Z</time>
      </trkpt>
      <trkpt lat="46.79381" lon="6.13703">
        <ele>880.22</ele>
        <time>2013-10-27T14:00:04Z</time>
      </trkpt>
      <trkpt lat="46.79385" lon="6.13703">
        <ele>879.26</ele>
        <time>2013-10-27T14:00:05Z</time>
      </trkpt>
      <trkpt lat="46.7939" lon="6.13701">
        <ele>880.22</ele>
        <time>2013-10-27T14:00:06Z</time>
      </trkpt>
      <trkpt lat="46.79395" lon="6.13698">
        <ele>878.78</ele>
        <time>2013-10-27T14:00:07Z</time>
      </trkpt>
      <trkpt lat="46.794" lon="6.13695">
        <ele>878.3</ele>
        <time>2013-10-27T14:00:08Z</time>
      </trkpt>
      <trkpt lat="46.79404" lon="6.13691">
        <ele>878.3</ele>
        <time>2013-10-27T14:00:09Z</time>
      </trkpt>
      <trkpt lat="46.79421" lon="6.13674">
        <ele>877.82</ele>
        <time>2013-10-27T14:00:13Z</time>
      </trkpt>
      <trkpt lat="46.79425" lon="6.13669">
        <ele>877.82</ele>
        <time>2013-10-27T14:00:14Z</time>
      </trkpt>
      <trkpt lat="46.79427" lon="6.13664">
        <ele>876.86</ele>
        <time>2013-10-27T14:00:15Z</time>
      </trkpt>
      <trkpt lat="46.79429" lon="6.13658">
        <ele>878.3</ele>
        <time>2013-10-27T14:00:16Z</time>
      </trkpt>
      <trkpt lat="46.79431" lon="6.13653">
        <ele>878.3</ele>
        <time>2013-10-27T14:00:17Z</time>
      </trkpt>
      <trkpt lat="46.79432" lon="6.13647">
        <ele>877.34</ele>
        <time>2013-10-27T14:00:18Z</time>
      </trkpt>
      <trkpt lat="46.79433" lon="6.13642">
        <ele>877.82</ele>
        <time>2013-10-27T14:00:19Z</time>
      </trkpt>
      <trkpt lat="46.79434" lon="6.13636">
        <ele>878.3</ele>
        <time>2013-10-27T14:00:20Z</time>
      </trkpt>
      <trkpt lat="46.79436" lon="6.13624">
        <ele>877.82</ele>
        <time>2013-10-27T14:00:22Z</time>
      </trkpt>
      <trkpt lat="46.79443" lon="6.13574">
        <ele>876.86</ele>
        <time>2013-10-27T14:00:30Z</time>
      </trkpt>
      <trkpt lat="46.79446" lon="6.13568">
        <ele>876.38</ele>
        <time>2013-10-27T14:00:31Z</time>
      </trkpt>
      <trkpt lat="46.79449" lon="6.13563">
        <ele>875.9</ele>
        <time>2013-10-27T14:00:32Z</time>
      </trkpt>
      <trkpt lat="46.79456" lon="6.13554">
        <ele>876.38</ele>
        <time>2013-10-27T14:00:34Z</time>
      </trkpt>
      <trkpt lat="46.7946" lon="6.13551">
        <ele>877.34</ele>
        <time>2013-10-27T14:00:35Z</time>
      </trkpt>
      <trkpt lat="46.79484" lon="6.13534">
        <ele>876.38</ele>
        <time>2013-10-27T14:00:41Z</time>
      </trkpt>
      <trkpt lat="46.79488" lon="6.13531">
        <ele>875.42</ele>
        <time>2013-10-27T14:00:42Z</time>
      </trkpt>
      <trkpt lat="46.79492" lon="6.13527">
        <ele>874.46</ele>
        <time>2013-10-27T14:00:43Z</time>
      </trkpt>
      <trkpt lat="46.79495" lon="6.13521">
        <ele>876.38</ele>
        <time>2013-10-27T14:00:44Z</time>
      </trkpt>
      <trkpt lat="46.79496" lon="6.13514">
        <ele>875.9</ele>
        <time>2013-10-27T14:00:45Z</time>
      </trkpt>
      <trkpt lat="46.79496" lon="6.13508">
        <ele>875.42</ele>
        <time>2013-10-27T14:00:46Z</time>
      </trkpt>
      <trkpt lat="46.79494" lon="6.13502">
        <ele>875.9</ele>
        <time>2013-10-27T14:00:47Z</time>
      </trkpt>
      <trkpt lat="46.79492" lon="6.13497">
        <ele>874.46</ele>
        <time>2013-10-27T14:00:48Z</time>
      </trkpt>
      <trkpt lat="46.7949" lon="6.13492">
        <ele>876.38</ele>
        <time>2013-10-27T14:00:49Z</time>
      </trkpt>
      <trkpt lat="46.79488" lon="6.13487">
        <ele>875.42</ele>
        <time>2013-10-27T14:00:50Z</time>
      </trkpt>
      <trkpt lat="46.79486" lon="6.13481">
        <ele>875.42</ele>
        <time>2013-10-27T14:00:51Z</time>
      </trkpt>
      <trkpt lat="46.79468" lon="6.1344">
        <ele>878.78</ele>
        <time>2013-10-27T14:01:00Z</time>
      </trkpt>
      <trkpt lat="46.7945" lon="6.13378">
        <ele>878.78</ele>
        <time>2013-10-27T14:01:13Z</time>
      </trkpt>
      <trkpt lat="46.79449" lon="6.13305">
        <ele>881.19</ele>
        <time>2013-10-27T14:01:27Z</time>
      </trkpt>
      <trkpt lat="46.79451" lon="6.1329">
        <ele>879.26</ele>
        <time>2013-10-27T14:01:30Z</time>
      </trkpt>
      <trkpt lat="46.79462" lon="6.13229">
        <ele>880.71</ele>
        <time>2013-10-27T14:01:43Z</time>
      </trkpt>
      <trkpt lat="46.79478" lon="6.13157">
        <ele>879.26</ele>
        <time>2013-10-27T14:01:57Z</time>
      </trkpt>
      <trkpt lat="46.79482" lon="6.13152">
        <ele>879.26</ele>
        <time>2013-10-27T14:01:58Z</time>
      </trkpt>
      <trkpt lat="46.79485" lon="6.13147">
        <ele>878.3</ele>
        <time>2013-10-27T14:01:59Z</time>
      </trkpt>
      <trkpt lat="46.79502" lon="6.13128">
        <ele>876.86</ele>
        <time>2013-10-27T14:02:03Z</time>
      </trkpt>
      <trkpt lat="46.79506" lon="6.13122">
        <ele>877.82</ele>
        <time>2013-10-27T14:02:04Z</time>
      </trkpt>
      <trkpt lat="46.79509" lon="6.13116">
        <ele>878.3</ele>
        <time>2013-10-27T14:02:05Z</time>
      </trkpt>
      <trkpt lat="46.79511" lon="6.13108">
        <ele>877.34</ele>
        <time>2013-10-27T14:02:06Z</time>
      </trkpt>
      <trkpt lat="46.79512" lon="6.13101">
        <ele>876.86</ele>
        <time>2013-10-27T14:02:07Z</time>
      </trkpt>
      <trkpt lat="46.79514" lon="6.13093">
        <ele>877.34</ele>
        <time>2013-10-27T14:02:08Z</time>
      </trkpt>
      <trkpt lat="46.79515" lon="6.13085">
        <ele>876.86</ele>
        <time>2013-10-27T14:02:09Z</time>
      </trkpt>
      <trkpt lat="46.79516" lon="6.13078">
        <ele>876.38</ele>
        <time>2013-10-27T14:02:10Z</time>
      </trkpt>
      <trkpt lat="46.79523" lon="6.12982">
        <ele>876.38</ele>
        <time>2013-10-27T14:02:25Z</time>
      </trkpt>
      <trkpt lat="46.7952" lon="6.12899">
        <ele>874.94</ele>
        <time>2013-10-27T14:02:37Z</time>
      </trkpt>
      <trkpt lat="46.79521" lon="6.12891">
        <ele>874.46</ele>
        <time>2013-10-27T14:02:38Z</time>
      </trkpt>
      <trkpt lat="46.79522" lon="6.12884">
        <ele>873.98</ele>
        <time>2013-10-27T14:02:39Z</time>
      </trkpt>
      <trkpt lat="46.79523" lon="6.12878">
        <ele>874.46</ele>
        <time>2013-10-27T14:02:40Z</time>
      </trkpt>
      <trkpt lat="46.79525" lon="6.12872">
        <ele>875.42</ele>
        <time>2013-10-27T14:02:41Z</time>
      </trkpt>
      <trkpt lat="46.79527" lon="6.12866">
        <ele>874.94</ele>
        <time>2013-10-27T14:02:42Z</time>
      </trkpt>
      <trkpt lat="46.79558" lon="6.12805">
        <ele>874.46</ele>
        <time>2013-10-27T14:02:54Z</time>
      </trkpt>
      <trkpt lat="46.79589" lon="6.1272">
        <ele>873.5</ele>
        <time>2013-10-27T14:03:07Z</time>
      </trkpt>
      <trkpt lat="46.7959" lon="6.12713">
        <ele>872.05</ele>
        <time>2013-10-27T14:03:08Z</time>
      </trkpt>
      <trkpt lat="46.79592" lon="6.12705">
        <ele>873.5</ele>
        <time>2013-10-27T14:03:09Z</time>
      </trkpt>
      <trkpt lat="46.79594" lon="6.12697">
        <ele>872.53</ele>
        <time>2013-10-27T14:03:10Z</time>
      </trkpt>
      <trkpt lat="46.79605" lon="6.12653">
        <ele>873.01</ele>
        <time>2013-10-27T14:03:16Z</time>
      </trkpt>
      <trkpt lat="46.79605" lon="6.12637">
        <ele>871.57</ele>
        <time>2013-10-27T14:03:18Z</time>
      </trkpt>
      <trkpt lat="46.79592" lon="6.12557">
        <ele>872.05</ele>
        <time>2013-10-27T14:03:31Z</time>
      </trkpt>
      <trkpt lat="46.79592" lon="6.12553">
        <ele>872.53</ele>
        <time>2013-10-27T14:03:32Z</time>
      </trkpt>
      <trkpt lat="46.79593" lon="6.1255">
        <ele>873.01</ele>
        <time>2013-10-27T14:03:33Z</time>
      </trkpt>
      <trkpt lat="46.79593" lon="6.12548">
        <ele>873.01</ele>
        <time>2013-10-27T14:03:34Z</time>
      </trkpt>
      <trkpt lat="46.79594" lon="6.12545">
        <ele>872.53</ele>
        <time>2013-10-27T14:03:35Z</time>
      </trkpt>
      <trkpt lat="46.79594" lon="6.12542">
        <ele>872.53</ele>
        <time>2013-10-27T14:03:36Z</time>
      </trkpt>
      <trkpt lat="46.79593" lon="6.1254">
        <ele>872.53</ele>
        <time>2013-10-27T14:03:37Z</time>
      </trkpt>
      <trkpt lat="46.79591" lon="6.12538">
        <ele>872.53</ele>
        <time>2013-10-27T14:03:38Z</time>
      </trkpt>
      <trkpt lat="46.79589" lon="6.12538">
        <ele>872.53</ele>
        <time>2013-10-27T14:03:39Z</time>
      </trkpt>
      <trkpt lat="46.79587" lon="6.12539">
        <ele>873.01</ele>
        <time>2013-10-27T14:03:40Z</time>
      </trkpt>
      <trkpt lat="46.79586" lon="6.12541">
        <ele>873.01</ele>
        <time>2013-10-27T14:03:41Z</time>
      </trkpt>
      <trkpt lat="46.79586" lon="6.12552">
        <ele>873.5</ele>
        <time>2013-10-27T14:03:52Z</time>
      </trkpt>
      <trkpt lat="46.79588" lon="6.12553">
        <ele>872.53</ele>
        <time>2013-10-27T14:03:54Z</time>
      </trkpt>
      <trkpt lat="46.79589" lon="6.12549">
        <ele>873.98</ele>
        <time>2013-10-27T14:03:55Z</time>
      </trkpt>
      <trkpt lat="46.79588" lon="6.12546">
        <ele>873.5</ele>
        <time>2013-10-27T14:03:56Z</time>
      </trkpt>
      <trkpt lat="46.79586" lon="6.12542">
        <ele>872.53</ele>
        <time>2013-10-27T14:03:57Z</time>
      </trkpt>
      <trkpt lat="46.79584" lon="6.12539">
        <ele>873.01</ele>
        <time>2013-10-27T14:03:58Z</time>
      </trkpt>
      <trkpt lat="46.7958" lon="6.12536">
        <ele>873.01</ele>
        <time>2013-10-27T14:03:59Z</time>
      </trkpt>
      <trkpt lat="46.79577" lon="6.12533">
        <ele>873.01</ele>
        <time>2013-10-27T14:04:00Z</time>
      </trkpt>
      <trkpt lat="46.79573" lon="6.1253">
        <ele>873.5</ele>
        <time>2013-10-27T14:04:01Z</time>
      </trkpt>
      <trkpt lat="46.79541" lon="6.12508">
        <ele>872.53</ele>
        <time>2013-10-27T14:04:10Z</time>
      </trkpt>
      <trkpt lat="46.79537" lon="6.12507">
        <ele>873.01</ele>
        <time>2013-10-27T14:04:11Z</time>
      </trkpt>
      <trkpt lat="46.79532" lon="6.12506">
        <ele>873.01</ele>
        <time>2013-10-27T14:04:12Z</time>
      </trkpt>
      <trkpt lat="46.79482" lon="6.12509">
        <ele>870.13</ele>
        <time>2013-10-27T14:04:23Z</time>
      </trkpt>
      <trkpt lat="46.7944" lon="6.12511">
        <ele>871.09</ele>
        <time>2013-10-27T14:04:31Z</time>
      </trkpt>
      <trkpt lat="46.79435" lon="6.12513">
        <ele>871.09</ele>
        <time>2013-10-27T14:04:32Z</time>
      </trkpt>
      <trkpt lat="46.79431" lon="6.12515">
        <ele>870.61</ele>
        <time>2013-10-27T14:04:33Z</time>
      </trkpt>
      <trkpt lat="46.79427" lon="6.12518">
        <ele>869.65</ele>
        <time>2013-10-27T14:04:34Z</time>
      </trkpt>
      <trkpt lat="46.79423" lon="6.12521">
        <ele>869.17</ele>
        <time>2013-10-27T14:04:35Z</time>
      </trkpt>
      <trkpt lat="46.79418" lon="6.12522">
        <ele>869.65</ele>
        <time>2013-10-27T14:04:36Z</time>
      </trkpt>
      <trkpt lat="46.79414" lon="6.12524">
        <ele>869.65</ele>
        <time>2013-10-27T14:04:37Z</time>
      </trkpt>
      <trkpt lat="46.79409" lon="6.12525">
        <ele>868.69</ele>
        <time>2013-10-27T14:04:38Z</time>
      </trkpt>
      <trkpt lat="46.79393" lon="6.12529">
        <ele>870.13</ele>
        <time>2013-10-27T14:04:41Z</time>
      </trkpt>
      <trkpt lat="46.79372" lon="6.12534">
        <ele>868.69</ele>
        <time>2013-10-27T14:04:45Z</time>
      </trkpt>
      <trkpt lat="46.79349" lon="6.12537">
        <ele>868.69</ele>
        <time>2013-10-27T14:04:49Z</time>
      </trkpt>
      <trkpt lat="46.79344" lon="6.12536">
        <ele>868.21</ele>
        <time>2013-10-27T14:04:50Z</time>
      </trkpt>
      <trkpt lat="46.79338" lon="6.12535">
        <ele>867.73</ele>
        <time>2013-10-27T14:04:51Z</time>
      </trkpt>
      <trkpt lat="46.79332" lon="6.12533">
        <ele>867.25</ele>
        <time>2013-10-27T14:04:52Z</time>
      </trkpt>
      <trkpt lat="46.79326" lon="6.12531">
        <ele>866.77</ele>
        <time>2013-10-27T14:04:53Z</time>
      </trkpt>
      <trkpt lat="46.7932" lon="6.12529">
        <ele>866.77</ele>
        <time>2013-10-27T14:04:54Z</time>
      </trkpt>
      <trkpt lat="46.7931" lon="6.12524">
        <ele>865.32</ele>
        <time>2013-10-27T14:04:56Z</time>
      </trkpt>
      <trkpt lat="46.79288" lon="6.12516">
        <ele>866.29</ele>
        <time>2013-10-27T14:05:00Z</time>
      </trkpt>
      <trkpt lat="46.79283" lon="6.12516">
        <ele>865.32</ele>
        <time>2013-10-27T14:05:01Z</time>
      </trkpt>
      <trkpt lat="46.79278" lon="6.12517">
        <ele>864.84</ele>
        <time>2013-10-27T14:05:02Z</time>
      </trkpt>
      <trkpt lat="46.79273" lon="6.1252">
        <ele>865.8</ele>
        <time>2013-10-27T14:05:03Z</time>
      </trkpt>
      <trkpt lat="46.7927" lon="6.12524">
        <ele>865.32</ele>
        <time>2013-10-27T14:05:04Z</time>
      </trkpt>
      <trkpt lat="46.79267" lon="6.12529">
        <ele>864.84</ele>
        <time>2013-10-27T14:05:05Z</time>
      </trkpt>
      <trkpt lat="46.79251" lon="6.12561">
        <ele>866.77</ele>
        <time>2013-10-27T14:05:11Z</time>
      </trkpt>
      <trkpt lat="46.79219" lon="6.126">
        <ele>865.32</ele>
        <time>2013-10-27T14:05:20Z</time>
      </trkpt>
      <trkpt lat="46.79197" lon="6.12611">
        <ele>866.29</ele>
        <time>2013-10-27T14:05:25Z</time>
      </trkpt>
      <trkpt lat="46.7917" lon="6.12614">
        <ele>867.73</ele>
        <time>2013-10-27T14:05:32Z</time>
      </trkpt>
      <trkpt lat="46.79156" lon="6.12607">
        <ele>868.21</ele>
        <time>2013-10-27T14:05:39Z</time>
      </trkpt>
      <trkpt lat="46.79155" lon="6.12606">
        <ele>868.21</ele>
        <time>2013-10-27T14:05:40Z</time>
      </trkpt>
      <trkpt lat="46.79154" lon="6.12603">
        <ele>868.21</ele>
        <time>2013-10-27T14:05:45Z</time>
      </trkpt>
      <trkpt lat="46.79154" lon="6.12603">
        <ele>869.65</ele>
        <time>2013-10-27T14:06:02Z</time>
      </trkpt>
      <trkpt lat="46.79154" lon="6.12603">
        <ele>869.17</ele>
        <time>2013-10-27T14:06:12Z</time>
      </trkpt>
      <trkpt lat="46.79154" lon="6.12603">
        <ele>868.69</ele>
        <time>2013-10-27T14:06:16Z</time>
      </trkpt>
      <trkpt lat="46.79154" lon="6.12604">
        <ele>869.65</ele>
        <time>2013-10-27T14:07:35Z</time>
      </trkpt>
      <trkpt lat="46.79154" lon="6.12604">
        <ele>868.69</ele>
        <time>2013-10-27T14:08:07Z</time>
      </trkpt>
      <trkpt lat="46.79153" lon="6.12605">
        <ele>868.21</ele>
        <time>2013-10-27T14:08:20Z</time>
      </trkpt>
      <trkpt lat="46.79154" lon="6.12606">
        <ele>869.17</ele>
        <time>2013-10-27T14:08:51Z</time>
      </trkpt>
      <trkpt lat="46.79154" lon="6.12606">
        <ele>869.17</ele>
        <time>2013-10-27T14:08:59Z</time>
      </trkpt>
      <trkpt lat="46.79154" lon="6.12606">
        <ele>867.73</ele>
        <time>2013-10-27T14:09:09Z</time>
      </trkpt>
      <trkpt lat="46.79154" lon="6.12606">
        <ele>869.65</ele>
        <time>2013-10-27T14:09:24Z</time>
      </trkpt>
      <trkpt lat="46.79153" lon="6.12606">
        <ele>868.69</ele>
        <time>2013-10-27T14:10:22Z</time>
      </trkpt>
      <trkpt lat="46.79152" lon="6.12606">
        <ele>869.65</ele>
        <time>2013-10-27T14:10:53Z</time>
      </trkpt>
      <trkpt lat="46.79152" lon="6.12606">
        <ele>869.65</ele>
        <time>2013-10-27T14:11:10Z</time>
      </trkpt>
      <trkpt lat="46.79151" lon="6.12607">
        <ele>869.17</ele>
        <time>2013-10-27T14:12:09Z</time>
      </trkpt>
      <trkpt lat="46.79151" lon="6.12607">
        <ele>867.73</ele>
        <time>2013-10-27T14:13:01Z</time>
      </trkpt>
      <trkpt lat="46.7915" lon="6.12607">
        <ele>863.88</ele>
        <time>2013-10-27T14:14:08Z</time>
      </trkpt>
      <trkpt lat="46.7915" lon="6.12607">
        <ele>865.8</ele>
        <time>2013-10-27T14:14:09Z</time>
      </trkpt>
    </trkseg>
  </trk>
</gpx>